GFSCGP_250_spd_000.txt.gz
Wind_Speed
74 68 57 54 55 53 47 43 41 38 33 34 31 31 31 32 30 28 25 26 24 22 24 27 31 33 32 33 32 33 31 28 28 29 31 32 34 36 39 40 45 49 52 53
79 66 66 65 57 50 48 48 44 40 37 36 30 31 31 31 29 28 27 29 27 24 25 28 30 32 30 30 31 33 32 30 29 29 30 32 35 39 42 45 49 52 54 56
75 70 70 62 57 52 52 47 42 41 39 38 34 33 32 31 30 31 25 29 28 25 29 30 31 31 31 28 30 33 34 33 33 34 35 37 40 44 47 50 51 53 57 60
80 76 74 64 60 56 56 52 44 42 42 41 35 34 33 32 32 35 31 31 32 29 32 35 33 32 31 30 32 32 36 38 38 39 41 43 45 48 49 52 54 54 54 55
80 77 74 65 62 61 64 54 49 46 45 42 38 36 36 35 34 37 35 30 33 31 30 32 31 32 35 34 33 33 35 39 42 43 43 45 46 50 51 51 54 56 59 61
86 85 78 71 70 69 61 52 51 47 45 41 41 37 40 37 38 40 39 35 34 33 33 30 30 32 36 33 31 32 35 39 42 44 45 45 49 50 52 55 58 60 62 64
87 82 79 77 69 65 58 54 51 47 45 48 42 37 44 40 40 42 40 37 36 37 37 34 35 35 38 33 31 32 34 36 39 41 44 46 48 51 56 58 60 63 67 71
83 77 75 68 67 65 60 57 52 48 47 49 45 42 46 44 42 43 43 41 37 43 43 40 40 37 38 35 32 35 38 38 39 42 45 48 52 54 57 61 65 69 72 75
82 82 80 78 75 70 63 57 58 51 50 50 48 50 51 47 45 47 46 45 41 44 47 46 41 35 35 35 37 39 40 42 43 46 49 51 55 59 63 66 70 74 77 81
87 85 81 79 74 68 62 63 56 53 54 54 53 54 52 51 50 48 50 49 47 48 49 48 46 39 38 39 41 43 45 48 50 53 56 58 62 65 68 72 77 81 85 89
90 88 84 80 72 70 68 62 60 59 58 57 56 56 55 55 53 51 52 53 53 53 54 52 50 46 45 44 45 48 50 53 56 59 61 64 67 71 75 79 84 87 91 96
87 89 83 79 76 73 70 65 62 60 60 61 61 59 58 57 56 54 52 53 56 57 56 56 53 51 50 49 53 55 56 58 60 63 67 71 74 77 81 85 89 94 98 102
73 79 80 78 74 69 67 65 64 66 65 64 62 64 60 57 57 56 56 58 58 60 60 61 57 54 57 57 60 62 63 65 68 70 71 74 78 83 87 91 96 100 104 107
61 68 70 71 73 76 73 71 70 68 64 65 62 62 59 56 56 59 58 58 58 61 62 62 57 58 62 63 65 66 65 67 69 72 77 80 84 88 93 96 101 103 102 105
51 58 65 68 69 67 67 67 65 63 65 60 63 59 57 57 60 61 60 62 61 59 61 58 56 61 62 61 61 63 67 70 73 77 80 84 89 93 97 99 100 103 105 109
44 50 56 62 65 66 66 65 63 63 63 62 63 60 58 58 59 61 63 63 63 57 60 60 60 59 57 61 63 68 71 74 77 82 86 90 94 94 96 101 105 106 111 116
40 44 47 49 52 53 53 55 56 58 60 60 60 61 59 59 61 63 64 61 61 62 61 59 57 57 59 63 67 71 75 79 84 87 90 91 92 97 101 103 105 111 114 119
37 38 39 41 44 43 46 49 50 53 54 55 58 60 61 61 62 64 62 61 62 61 61 56 59 61 63 66 71 77 81 84 88 90 90 92 95 99 101 107 113 116 121 126
36 38 41 45 45 45 48 49 52 54 54 56 60 63 62 60 61 60 61 61 63 62 61 62 62 64 67 72 77 81 85 88 88 89 91 94 97 102 108 115 119 121 128 131
43 46 45 48 49 50 51 52 55 58 60 64 65 64 57 58 59 55 50 49 52 54 57 60 65 69 74 76 80 84 86 88 88 89 96 100 105 110 114 119 122 129 132 129
22 28 31 36 38 42 46 47 48 49 51 54 54 51 51 47 46 48 49 50 54 57 62 67 70 74 78 81 82 83 85 87 91 96 102 106 112 115 117 124 129 130 129 128
28 31 31 29 29 31 32 33 37 40 43 45 45 44 42 43 45 48 51 55 61 65 69 72 75 77 78 78 80 82 85 91 96 102 107 111 114 120 122 128 130 133 129 127
38 36 33 34 34 33 38 39 42 41 40 41 42 45 47 48 51 55 60 65 69 71 74 76 74 75 74 77 81 85 91 97 103 108 110 111 119 124 127 130 131 129 128 122
35 35 37 36 38 38 37 40 41 43 46 46 47 49 52 56 60 65 68 70 71 72 69 69 69 73 77 82 86 92 98 104 107 107 111 118 124 127 130 132 130 127 123 115
44 44 45 44 44 44 46 47 48 50 51 52 54 56 59 62 65 67 67 69 65 64 67 71 74 78 83 88 93 97 102 104 105 112 118 123 128 129 131 132 126 122 118 112
45 47 47 47 49 49 50 49 51 52 55 57 58 61 63 63 63 63 58 60 64 69 72 75 80 86 91 96 99 101 105 108 113 118 123 127 130 133 131 123 118 117 111 109

GFSCGP_250_spd_003.txt.gz
Wind_Speed
90 79 69 62 61 63 59 51 45 39 34 33 30 31 29 27 24 25 24 24 26 25 20 20 22 22 22 25 27 30 32 30 28 28 27 28 28 30 32 34 37 41 43 45
92 76 72 69 68 66 59 52 48 40 39 34 32 30 30 30 24 22 22 22 25 25 23 23 23 22 24 26 27 30 29 29 28 29 29 30 29 31 33 35 38 41 45 48
83 74 76 72 68 62 58 54 50 43 39 35 35 31 31 29 26 25 20 22 24 24 21 24 24 23 24 28 31 32 32 31 30 31 32 33 35 37 39 41 44 47 50 51
85 83 77 72 68 63 59 59 50 42 39 37 36 35 33 31 27 26 26 23 24 27 24 27 28 27 27 28 30 32 34 33 33 33 35 37 39 41 44 46 47 48 50 53
86 81 76 72 71 69 65 57 47 41 39 39 38 36 35 28 28 29 29 29 29 30 28 30 34 31 29 29 32 33 33 34 34 34 35 37 40 43 46 48 49 51 53 54
88 83 80 77 76 71 65 54 49 45 41 41 38 36 35 32 30 29 30 31 33 36 35 30 33 35 34 33 34 34 34 34 34 36 37 37 40 43 45 48 50 52 55 59
91 86 80 77 75 69 61 52 49 45 42 46 38 35 38 33 32 34 34 32 35 37 41 37 31 35 37 37 37 38 36 34 37 39 36 37 40 43 46 49 52 56 59 63
84 82 78 75 72 67 62 54 51 47 47 46 40 39 39 36 35 36 37 37 38 39 42 41 35 33 38 41 42 42 41 41 41 39 40 41 44 47 51 55 58 61 65 69
82 77 75 71 69 70 61 51 53 52 49 47 46 43 41 39 38 38 39 40 41 42 44 47 43 38 38 42 45 47 48 45 45 46 46 47 51 55 59 61 64 67 70 74
79 78 75 73 69 64 62 60 52 51 52 51 48 48 44 42 43 43 44 44 45 44 47 49 49 49 46 46 49 53 53 52 51 51 51 53 57 61 64 66 69 73 77 80
79 77 76 74 68 67 68 61 58 56 52 52 51 52 50 47 47 48 48 49 49 50 51 50 52 51 52 53 53 56 59 61 60 58 59 61 63 67 70 72 75 78 81 85
80 77 73 72 72 70 67 66 61 58 58 57 56 56 55 52 51 53 54 54 55 53 53 54 54 54 57 58 59 60 63 64 64 65 67 69 71 72 72 76 79 83 88 92
83 80 76 73 70 65 64 65 65 68 67 63 59 60 57 55 55 56 57 59 59 57 56 56 58 59 59 61 63 64 65 68 69 70 71 73 73 73 77 80 84 88 92 96
87 84 79 75 76 78 75 73 71 67 62 65 63 64 60 59 60 61 61 60 59 58 57 59 61 64 64 66 68 67 69 71 71 69 72 72 72 75 79 85 89 93 95 98
76 84 84 82 81 78 76 74 71 66 66 62 68 65 64 64 63 64 63 61 60 59 60 61 64 67 69 71 73 73 72 72 66 66 68 71 75 80 85 88 94 98 100 103
54 66 80 86 85 83 81 78 74 71 69 69 71 69 67 65 66 65 63 61 60 62 65 65 66 69 71 74 72 69 69 63 64 69 72 76 81 86 90 95 98 100 102 103
47 52 59 67 76 80 79 79 78 76 73 70 70 72 67 66 64 63 61 62 64 65 65 67 69 71 74 73 68 65 65 65 69 73 77 82 86 92 95 98 98 99 101 103
34 40 46 50 55 60 66 68 68 68 69 67 67 66 64 63 63 63 63 64 63 65 67 68 70 73 71 66 63 67 69 70 74 78 84 88 92 94 94 95 98 100 106 113
28 30 34 39 43 50 56 59 60 61 62 61 62 61 61 61 60 59 59 61 64 65 67 71 71 68 65 65 62 65 70 76 81 85 90 91 90 90 93 98 103 109 113 117
28 28 30 32 35 40 47 49 50 51 52 54 54 54 57 58 58 60 61 62 65 69 70 64 55 55 57 61 66 71 78 83 87 90 87 84 89 92 98 103 110 114 118 119
28 30 30 32 35 36 41 43 45 46 49 51 52 54 55 56 59 62 65 67 64 60 54 54 57 58 62 67 73 79 83 86 84 80 84 88 94 98 104 109 113 116 116 121
37 38 39 39 39 42 43 42 44 47 50 51 52 55 57 57 56 55 56 55 55 51 52 54 59 63 69 75 80 81 81 76 79 83 90 95 101 106 109 112 117 120 124 129
24 26 26 25 27 32 34 36 39 39 42 42 43 46 46 47 48 48 48 47 51 53 57 62 67 72 76 76 77 72 75 78 85 91 97 103 106 110 114 117 120 127 130 133
33 33 31 32 35 34 34 35 35 35 38 38 40 43 46 46 47 49 53 54 57 61 65 69 72 72 73 69 71 75 81 86 92 98 103 105 109 114 118 122 127 131 133 130
33 37 40 37 37 37 39 39 41 42 43 47 50 52 54 56 55 56 59 61 63 66 68 69 71 66 68 72 77 82 88 93 99 103 106 109 114 118 122 128 132 133 131 128
41 38 39 41 40 41 43 43 43 46 47 48 50 52 53 54 55 57 60 61 63 65 65 62 66 70 75 80 84 89 94 98 102 106 111 114 117 122 127 131 133 131 126 122

GFSCGP_250_spd_006.txt.gz
Wind_Speed
106 102 97 86 76 72 67 70 62 56 53 48 44 45 36 35 31 28 28 26 26 26 27 26 25 22 26 27 26 24 26 28 29 30 31 30 27 27 29 31 32 36 40 42
105 97 94 87 82 74 72 68 61 53 53 49 44 46 36 33 27 26 25 22 19 21 26 23 21 24 24 27 27 27 27 28 31 32 33 33 32 30 30 32 34 35 38 41
98 92 95 88 81 75 70 66 62 55 56 50 45 43 33 33 29 28 26 23 21 18 20 23 23 23 28 28 28 28 29 29 32 32 33 36 38 37 37 38 38 40 42 45
91 96 93 86 80 74 72 68 59 56 56 51 46 41 35 30 27 28 28 24 26 21 21 22 24 22 28 30 31 32 31 32 34 36 36 35 36 40 42 42 44 45 46 50
92 97 94 87 78 76 77 71 59 61 55 52 46 44 38 32 30 29 27 26 26 27 27 24 24 26 26 33 36 34 34 36 36 37 36 38 39 40 40 42 43 45 48 50
95 97 91 83 81 80 76 70 61 61 56 53 48 43 36 32 32 30 29 27 27 29 27 27 25 26 29 30 35 38 38 38 39 40 41 42 41 41 41 43 44 46 48 51
98 98 90 87 85 81 75 70 64 61 54 53 45 42 38 33 32 31 32 32 32 31 30 30 31 31 30 34 35 37 40 42 43 43 44 47 48 47 47 48 51 53 55 57
96 95 93 87 82 74 71 67 62 58 56 54 46 44 36 32 31 30 32 35 36 34 34 34 36 37 38 38 39 38 39 42 46 46 48 51 53 55 56 59 61 62 63 65
95 92 92 85 79 73 71 64 59 60 58 55 49 46 40 34 31 32 34 37 37 37 38 38 38 40 43 45 46 47 47 47 48 50 52 54 56 60 64 66 67 68 70 71
96 91 83 79 78 75 71 68 62 59 59 55 49 47 42 40 36 35 36 38 40 40 41 42 43 44 46 49 51 52 52 52 53 54 56 58 62 66 67 70 73 75 76 78
85 81 76 78 75 71 69 65 63 61 58 56 52 49 46 42 41 40 40 40 42 44 45 46 47 49 50 51 54 56 58 59 59 59 60 62 64 67 71 74 78 81 84 85
78 76 76 76 74 72 70 67 64 58 58 59 58 49 45 45 46 45 45 46 48 49 49 50 52 54 55 56 57 58 61 63 65 65 66 69 74 75 75 79 80 82 82 85
79 77 74 72 72 68 63 64 65 65 65 60 55 56 53 49 47 48 49 52 52 51 52 54 56 57 59 59 60 62 64 66 68 71 71 73 74 76 77 80 79 78 81 85
79 77 74 70 71 70 67 67 68 67 63 64 61 62 55 51 52 55 57 56 56 56 58 59 59 62 63 63 64 66 68 70 71 71 72 75 76 76 77 74 76 83 86 88
75 76 74 73 72 70 69 65 63 59 65 62 64 60 60 57 60 61 61 62 63 62 63 64 64 67 67 66 67 69 72 72 72 72 76 75 74 73 72 77 83 86 89 95
74 76 75 73 71 68 66 65 62 61 60 59 63 66 65 62 63 64 65 66 66 67 68 68 69 70 68 69 71 73 74 73 73 75 75 72 72 79 82 81 86 93 97 100
68 75 74 72 71 68 64 65 66 67 66 68 66 72 67 67 67 67 68 69 70 71 71 72 71 70 70 71 73 72 72 73 75 71 71 73 76 78 83 88 93 95 90 90
52 68 74 73 73 69 72 71 70 69 70 71 74 75 72 71 71 71 72 72 72 72 72 72 70 70 71 71 69 70 73 74 68 67 69 74 80 84 88 92 87 84 90 94
44 50 61 71 73 76 78 77 76 75 76 76 78 78 78 78 76 75 74 72 71 71 71 69 68 67 67 67 70 72 69 65 67 73 75 79 84 88 85 82 85 90 96 101
36 42 45 49 56 65 74 77 79 79 80 80 80 79 78 77 73 72 70 69 69 67 64 62 63 65 66 68 67 67 67 68 71 75 80 85 85 81 81 87 91 98 101 108
27 31 33 37 39 44 49 52 55 58 62 64 66 67 65 64 64 63 62 60 59 59 60 62 63 64 62 64 62 62 67 73 77 81 83 84 81 84 88 94 98 103 109 115
28 27 28 29 29 31 33 34 35 38 41 44 48 50 51 52 53 53 55 56 58 58 56 58 60 61 58 59 64 70 75 79 81 82 81 80 86 89 94 99 105 111 114 118
30 32 31 31 34 33 33 35 36 38 41 42 43 45 48 50 52 54 53 50 53 55 56 55 54 57 63 68 71 77 79 79 79 77 82 85 90 95 101 107 112 117 122 125
26 32 36 38 38 38 39 40 41 42 43 43 42 41 41 43 44 46 47 49 51 52 55 58 62 68 71 75 75 75 74 73 77 81 85 91 97 103 109 113 118 123 126 131
26 24 24 28 30 31 32 33 34 32 33 34 34 35 37 40 44 47 50 53 56 60 62 65 68 70 69 68 67 68 73 76 81 86 92 98 104 109 115 120 124 127 133 136
29 29 30 33 34 33 32 34 37 39 39 40 42 43 46 50 52 54 54 56 58 60 60 63 65 61 60 64 68 72 77 82 88 94 100 106 110 115 119 122 127 132 135 135

GFSCGP_250_spd_009.txt.gz
Wind_Speed
69 81 97 101 101 89 90 88 82 76 69 59 57 60 47 48 46 44 41 35 32 33 34 35 35 33 28 29 29 29 33 34 35 35 33 32 33 33 32 33 36 37 39 38
69 82 90 102 103 96 95 89 83 77 67 60 58 59 51 47 47 44 39 34 33 32 30 34 33 30 28 26 29 31 31 34 35 34 33 34 36 36 36 38 38 39 42 42
60 60 90 99 100 97 94 89 83 73 64 60 59 60 54 47 47 43 38 35 32 28 26 27 25 21 24 23 31 33 34 36 36 37 37 38 38 37 38 39 41 43 45 46
44 66 80 90 99 94 92 86 81 73 63 62 61 60 54 47 49 42 38 35 30 28 27 24 21 22 22 24 23 30 36 39 39 40 39 40 39 38 39 42 43 44 45 46
48 58 68 85 93 91 90 87 79 71 65 61 60 59 56 50 47 42 40 34 28 28 28 26 25 26 25 26 25 28 27 32 39 41 43 41 40 41 42 43 45 47 48 48
51 63 72 93 89 89 88 84 76 72 63 62 61 60 56 51 41 38 35 31 28 31 29 28 27 27 29 29 29 29 30 32 33 36 40 44 45 45 46 47 47 47 50 53
58 70 94 101 98 94 91 84 79 70 63 64 63 60 57 47 41 38 34 32 32 32 29 29 30 30 31 32 33 34 35 35 38 40 42 43 44 46 48 49 51 54 57 60
69 85 96 92 94 92 88 80 71 60 63 64 62 59 55 48 43 39 37 34 34 33 34 34 34 34 35 36 38 40 42 43 45 47 48 48 48 51 53 54 55 57 59 62
81 91 92 93 94 91 86 80 73 64 66 61 60 61 56 49 43 39 37 34 33 34 35 37 36 37 38 39 42 45 47 48 50 52 54 56 57 58 61 62 63 65 67 70
87 88 87 89 90 82 76 73 67 68 67 63 63 60 54 49 45 41 38 35 33 33 35 36 37 40 42 44 46 49 52 53 54 56 58 60 62 63 65 66 69 71 73 75
86 84 91 96 88 82 77 71 68 71 66 64 65 60 53 50 45 42 40 37 36 36 37 39 40 42 44 47 49 52 54 56 58 61 63 64 65 67 69 70 72 73 75 79
88 89 88 84 80 78 79 78 75 70 66 64 63 56 55 52 49 45 43 40 40 41 42 43 46 47 49 51 53 56 60 62 64 66 68 70 70 71 73 75 74 75 78 80
81 89 90 87 80 75 67 67 68 70 67 64 62 57 56 53 48 44 42 44 45 45 46 47 49 51 54 56 59 62 65 67 69 71 72 72 74 75 76 76 76 79 80 79
70 76 78 77 74 74 74 73 72 70 65 64 61 56 59 51 45 45 47 48 49 50 50 52 55 57 60 62 65 67 70 72 74 75 76 77 77 77 77 76 79 79 80 80
63 69 71 70 69 71 72 72 66 62 66 60 62 57 56 49 51 52 53 53 55 56 58 60 62 63 65 67 70 72 75 76 78 78 79 79 79 77 77 80 80 79 81 83
65 69 72 72 70 70 69 68 62 60 58 58 62 60 61 57 56 57 58 61 63 63 63 64 66 68 70 72 74 78 80 80 79 80 80 78 76 78 80 80 80 81 85 88
63 68 71 70 69 67 64 63 63 66 63 63 63 71 62 62 63 64 65 66 65 65 66 68 70 73 75 78 81 81 81 80 80 79 77 76 79 79 79 81 83 85 88 92
60 66 68 68 68 64 63 66 65 64 63 62 64 68 63 64 63 65 65 65 66 68 71 73 76 78 80 82 84 82 81 79 77 77 77 78 77 78 80 82 85 90 91 89
51 61 66 68 67 66 68 67 65 65 67 65 67 66 66 65 65 65 69 71 73 75 77 78 80 83 84 82 79 78 76 75 76 76 76 77 78 80 83 88 91 89 86 88
45 52 61 66 67 68 69 67 66 65 67 67 68 68 70 70 69 71 74 75 77 79 81 82 81 78 76 74 73 73 74 73 74 74 75 75 79 85 88 89 85 86 90 94
38 42 49 58 63 67 68 68 67 68 71 69 71 72 73 74 75 77 78 80 81 80 78 75 72 70 68 70 70 68 70 71 71 71 76 82 86 88 85 83 87 91 94 101
27 32 36 40 46 55 61 65 66 69 71 71 72 74 73 74 75 74 71 69 68 68 65 63 63 65 65 66 65 66 67 70 75 80 83 85 83 79 82 88 92 97 103 109
25 27 29 31 32 36 40 45 49 53 53 53 55 56 57 58 57 56 56 56 57 59 60 62 62 62 61 62 65 70 73 77 79 80 81 76 79 84 90 94 98 104 110 117
25 26 28 29 31 32 36 37 39 39 41 41 43 44 45 47 48 50 53 55 56 54 53 54 55 58 63 67 70 71 74 76 76 73 75 80 86 91 97 101 106 112 117 122
25 28 30 31 31 32 33 35 37 39 41 43 45 46 48 49 51 49 44 43 46 50 54 56 60 64 67 69 71 72 74 70 71 76 81 87 92 98 103 109 115 119 122 126
23 24 24 24 26 30 34 34 36 40 42 42 40 38 37 39 40 43 48 50 53 56 59 61 65 68 71 72 67 64 67 72 77 82 88 94 100 105 111 115 119 124 127 131

GFSCGP_250_spd_012.txt.gz
Wind_Speed
78 78 70 71 74 70 84 94 93 88 87 85 74 70 66 58 54 47 43 43 39 36 34 33 34 35 34 35 35 32 35 37 33 35 35 37 39 39 37 39 38 38 37 38
81 72 72 79 77 67 79 94 95 89 90 88 78 70 65 59 53 49 44 43 39 38 33 33 33 34 35 34 37 36 35 31 34 35 35 37 39 39 40 41 41 41 40 41
82 68 75 71 70 59 71 90 93 86 88 84 78 70 64 57 54 50 45 45 41 38 35 36 33 29 29 31 32 31 28 28 32 36 38 37 39 40 39 40 41 42 42 43
66 69 70 67 60 58 68 82 92 88 85 82 77 68 66 59 54 48 48 45 42 38 36 37 31 28 29 28 27 27 27 26 27 29 30 33 38 42 42 43 44 46 46 47
62 64 58 53 54 63 71 87 93 92 90 84 77 67 65 55 52 52 49 45 42 42 38 36 28 30 32 31 29 27 26 26 26 28 30 31 34 35 38 41 43 45 47 49
50 49 42 47 55 64 90 90 90 81 86 83 78 68 68 56 54 56 49 43 44 42 39 32 29 31 30 31 30 30 29 29 30 32 34 35 37 39 41 43 45 47 50 52
37 37 40 45 56 79 80 89 94 94 91 79 72 65 65 57 53 53 49 44 44 44 37 33 31 31 32 31 32 32 33 34 35 38 39 41 43 46 48 50 52 54 56 59
31 32 37 42 53 59 74 85 88 78 77 73 68 63 62 53 54 54 49 44 46 45 37 33 32 34 36 36 35 37 37 37 39 43 45 47 49 51 53 56 58 61 62 64
30 33 46 54 58 72 83 83 80 78 79 76 66 67 64 56 55 51 48 46 43 39 36 35 34 35 38 38 37 39 40 41 44 47 49 51 54 58 60 63 65 66 68 70
38 52 58 65 78 84 87 84 83 84 81 74 72 67 60 55 53 52 51 48 42 39 37 36 36 35 37 36 37 39 41 46 48 50 53 57 60 63 66 68 71 74 75 75
54 62 71 76 81 90 91 87 78 74 76 70 68 63 58 56 55 54 53 49 43 40 38 37 37 37 37 38 40 43 46 49 52 54 58 62 65 69 71 74 77 79 79 80
65 68 72 81 83 84 82 86 80 79 72 70 68 61 60 57 55 55 53 48 43 40 40 40 41 40 40 43 45 48 51 55 57 60 64 67 71 74 78 79 81 82 83 84
71 75 79 79 80 82 79 81 81 77 71 70 66 60 58 57 56 55 52 49 45 43 44 43 44 44 45 48 50 53 57 61 63 65 69 72 76 80 82 83 84 85 86 86
74 79 74 77 80 81 77 78 79 70 67 67 63 60 57 55 53 52 52 51 48 46 46 47 49 50 52 53 56 60 64 67 69 71 74 78 82 85 86 86 87 87 87 87
74 76 77 80 75 76 79 76 69 67 69 64 62 60 57 56 55 54 53 51 50 50 50 52 52 54 56 60 64 67 69 71 73 76 80 83 87 90 89 89 88 88 88 90
74 75 75 71 74 77 72 63 60 63 61 61 59 60 56 53 55 53 50 51 52 53 54 55 58 60 63 67 70 72 73 75 79 82 85 89 91 91 90 89 88 88 91 92
58 62 57 64 68 67 63 60 62 62 61 63 59 61 54 51 52 52 53 56 55 57 59 60 62 65 69 72 74 75 78 81 84 86 90 92 91 89 88 88 89 90 92 91
44 42 43 55 60 60 57 59 62 59 58 58 59 59 52 53 54 55 56 58 59 61 65 67 69 71 73 74 77 80 83 86 88 92 92 89 87 87 87 88 89 88 88 92
34 38 47 54 57 58 59 58 58 58 60 59 58 58 53 56 59 55 58 61 63 65 67 69 71 72 75 79 82 85 88 90 92 88 84 83 83 85 84 86 88 91 93 94
34 38 45 53 58 61 60 57 58 58 60 60 61 60 57 59 57 60 60 62 63 66 68 71 74 77 80 83 86 88 87 83 80 81 80 80 81 83 85 88 90 92 90 88
35 40 44 49 56 61 63 60 59 61 61 61 60 60 61 61 62 64 65 66 68 70 73 76 79 82 84 84 82 79 76 75 76 77 77 80 83 84 86 89 90 87 90 95
31 34 38 44 52 58 59 60 62 62 60 61 62 63 64 65 66 67 69 70 72 75 77 79 81 83 78 76 72 72 72 73 74 74 78 81 82 86 88 85 86 92 96 101
27 30 33 38 43 46 53 58 60 62 64 64 65 65 66 68 69 70 73 75 75 77 78 75 72 69 67 68 69 70 70 71 73 76 80 84 85 80 81 86 91 98 104 108
22 26 30 33 36 40 44 48 53 56 59 62 63 65 67 68 69 71 72 73 72 68 65 61 62 65 64 65 66 69 70 72 76 81 82 75 77 82 87 93 99 104 110 113
21 21 23 25 27 31 34 38 41 44 47 50 54 57 58 59 59 59 57 54 54 56 58 58 57 60 62 66 67 69 73 77 78 73 72 77 82 87 94 100 106 111 117 121
26 24 25 27 26 29 29 31 33 36 37 39 40 41 42 44 45 48 51 51 52 52 53 55 60 64 66 67 70 74 77 71 69 73 77 82 88 95 101 106 112 120 123 127

GFSCGP_250_spd_015.txt.gz
Wind_Speed
59 51 53 64 66 64 64 63 63 65 76 88 81 83 85 87 72 63 58 51 45 45 38 37 38 40 41 40 39 39 39 34 34 35 38 39 36 38 39 40 41 41 43 43
58 55 68 70 70 68 67 64 58 62 72 90 85 81 87 86 72 65 58 50 44 41 36 35 38 37 36 34 35 33 32 33 34 36 36 36 40 42 41 42 43 44 43 44
62 64 76 75 75 73 70 64 64 61 71 81 88 81 86 81 72 66 57 49 43 42 37 38 38 36 33 33 34 31 32 33 32 32 32 31 33 36 37 37 38 40 42 44
68 77 80 83 79 80 74 74 72 67 75 74 89 78 84 78 73 67 57 47 44 44 38 41 39 37 35 33 31 26 26 26 27 29 30 31 34 34 33 33 34 37 39 41
76 80 87 83 83 85 76 72 70 70 70 75 88 78 79 82 77 64 56 46 44 47 41 43 41 38 37 35 33 31 31 29 29 29 30 32 34 34 35 37 38 41 42 43
83 80 79 76 78 72 72 64 65 67 68 80 81 73 79 77 72 62 58 46 46 50 44 45 42 40 39 37 32 30 31 31 31 31 34 35 38 40 41 43 44 46 50 52
74 68 66 62 60 58 48 56 57 62 73 71 75 76 76 76 71 62 55 50 50 50 47 45 44 43 42 38 33 32 32 32 33 35 37 38 41 43 44 45 47 50 53 57
51 49 45 45 45 44 51 60 58 58 62 72 76 84 83 73 69 60 53 52 50 51 48 46 45 46 42 39 37 35 34 35 38 39 41 41 43 46 48 50 52 55 58 62
29 28 29 32 34 39 51 49 54 55 72 76 83 77 78 73 68 59 55 53 52 50 47 46 47 48 43 41 38 37 38 39 39 40 41 44 47 50 53 56 58 61 64 68
16 17 22 26 29 37 53 69 75 74 77 79 80 75 74 70 65 59 57 55 53 50 48 48 48 46 44 40 38 39 39 39 41 43 45 48 51 55 58 60 64 67 72 76
14 16 18 23 32 35 48 66 70 70 72 77 74 75 71 68 62 60 57 55 52 49 49 49 50 47 44 41 41 42 41 42 45 48 50 54 57 62 64 66 69 74 78 82
16 16 31 41 45 59 71 70 61 63 60 68 68 69 68 65 62 58 55 54 52 50 49 48 47 44 43 43 45 45 46 47 50 53 57 59 63 68 70 73 76 81 85 89
52 51 58 59 64 66 73 78 67 33 46 67 69 69 69 63 60 58 56 53 52 52 52 51 49 46 44 46 49 49 51 52 55 58 63 65 70 74 76 79 83 87 91 95
59 63 62 66 64 65 65 64 52 47 32 69 71 70 66 64 60 58 55 53 52 53 54 52 50 47 47 50 53 54 56 57 61 65 68 73 76 79 81 86 89 93 97 99
58 57 62 63 62 63 62 47 60 63 64 74 71 69 66 63 58 55 54 52 51 53 54 54 53 50 51 53 56 58 61 63 66 70 74 79 82 83 88 91 94 98 100 98
57 52 56 64 62 54 63 61 71 73 71 72 71 66 63 58 54 53 52 51 51 53 55 56 55 54 57 59 60 62 65 68 72 76 80 83 84 89 92 97 99 100 96 92
56 63 64 64 71 67 67 73 68 62 66 67 63 63 59 56 54 53 50 50 52 54 56 56 56 58 60 61 63 66 69 73 77 81 82 85 89 93 97 100 98 93 92 93
51 62 64 63 67 70 68 62 55 57 59 57 58 56 55 54 54 51 49 49 50 53 55 56 58 60 62 64 67 70 74 78 79 81 86 90 94 98 99 93 89 90 91 92
36 43 53 60 61 62 58 52 52 55 52 51 51 52 52 53 51 50 50 50 50 52 55 57 60 62 64 67 71 74 75 78 83 86 90 94 97 93 87 86 89 88 90 94
33 28 46 41 48 46 43 48 54 52 50 51 50 51 53 53 52 50 49 51 53 54 57 60 61 64 67 70 73 76 80 83 87 90 94 91 85 84 85 85 86 89 93 97
29 30 33 39 40 42 44 47 50 50 49 49 49 50 52 53 53 54 55 55 57 59 61 63 64 67 70 73 77 81 84 87 91 89 83 81 81 82 83 86 88 94 93 90
24 25 27 30 33 37 45 48 48 47 48 49 50 51 52 53 53 55 57 58 60 62 64 66 69 71 75 78 81 85 87 86 80 78 77 79 81 83 84 88 92 88 89 94
24 24 25 27 29 37 43 48 50 50 49 50 52 53 53 54 56 57 59 60 62 65 68 71 74 76 79 82 83 84 76 75 74 75 78 80 82 83 87 88 85 90 94 99
25 25 27 27 29 33 39 46 49 51 52 53 54 55 56 58 59 61 63 65 68 70 72 74 76 78 80 76 71 70 71 72 74 77 78 79 82 85 82 84 89 94 101 107
20 22 22 24 25 28 33 39 44 50 54 55 57 59 60 61 63 65 66 67 69 71 71 71 68 65 65 66 67 68 69 71 73 75 78 81 79 78 84 90 96 103 109 113
19 18 17 18 24 25 28 31 34 38 42 46 49 51 54 56 57 58 58 57 57 58 58 59 61 62 63 65 66 67 70 72 76 77 74 73 77 82 89 96 103 110 114 121

GFSCGP_250_spd_018.txt.gz
Wind_Speed
63 57 56 62 64 61 54 50 49 53 57 60 58 65 74 78 82 83 79 76 69 62 56 51 47 41 40 40 43 44 44 45 45 45 46 47 44 42 43 44 42 44 46 46
64 60 64 65 66 66 60 53 50 58 63 62 61 60 72 78 80 80 80 77 70 64 57 50 45 39 39 38 41 41 41 43 42 41 39 39 40 41 43 42 40 40 39 39
68 66 67 69 69 71 61 58 61 63 70 65 66 63 72 75 83 79 78 77 70 66 57 48 42 39 38 37 36 36 37 37 36 35 36 37 38 40 39 37 38 38 40 39
68 72 73 73 74 77 67 69 70 71 73 66 72 60 68 74 82 77 77 75 70 66 58 47 43 39 38 36 35 34 36 35 34 33 32 34 36 36 36 37 38 39 38 39
72 75 78 77 83 80 72 76 75 75 74 73 68 60 58 70 79 72 74 74 69 66 58 45 43 40 40 38 36 38 36 36 33 31 33 35 36 37 38 41 41 41 42 43
77 79 82 84 88 83 81 82 82 80 80 65 64 60 52 64 73 75 75 74 72 67 57 47 45 42 43 39 37 40 39 38 37 36 37 37 39 39 41 42 44 45 44 45
82 84 83 85 86 89 90 90 90 86 78 41 69 62 44 66 71 75 72 75 74 67 56 49 45 45 44 41 40 43 43 41 39 37 38 40 40 42 44 46 47 47 49 52
80 81 81 86 82 84 86 82 74 66 50 54 71 45 49 68 75 78 73 76 73 65 55 48 46 45 45 43 42 45 45 44 43 40 41 42 43 46 46 48 50 51 54 57
75 66 63 61 58 58 58 53 64 58 55 61 56 51 64 70 66 72 69 70 69 63 56 50 47 48 47 44 45 48 47 47 45 44 44 46 48 48 49 51 53 56 60 63
46 43 37 33 34 35 37 43 41 38 47 49 49 59 58 61 66 69 66 72 70 62 54 50 49 49 48 47 48 50 48 48 48 48 49 49 50 51 52 55 58 61 65 69
21 18 18 17 17 18 24 29 33 43 50 55 57 57 66 70 74 72 73 74 67 59 54 50 48 48 49 50 51 51 51 51 50 49 51 52 53 54 57 61 64 67 71 77
3 2 4 7 10 19 31 39 54 61 55 54 57 61 66 70 71 73 73 71 63 57 53 49 48 49 51 52 52 52 52 53 52 52 54 55 57 60 63 67 70 74 79 84
21 20 30 32 30 30 41 53 60 65 65 62 65 64 68 71 70 69 69 66 60 56 52 50 50 51 51 53 53 52 53 52 53 55 58 60 62 65 69 72 76 81 86 90
61 59 57 54 44 49 50 51 56 62 60 53 58 60 68 67 66 67 66 61 58 54 52 51 50 51 52 54 53 52 52 53 56 59 61 64 67 70 74 77 82 87 91 93
61 66 66 64 60 54 45 45 45 53 52 51 57 57 67 66 67 67 63 58 56 55 52 51 50 50 53 53 52 54 56 58 60 62 64 67 71 75 78 83 88 92 94 98
57 65 63 60 56 53 43 41 29 34 40 52 60 59 64 66 65 64 61 57 55 55 53 51 50 52 54 55 57 58 60 62 63 66 69 72 76 79 83 87 92 94 98 102
53 62 61 54 51 55 54 47 41 45 29 46 57 63 63 64 64 61 57 54 52 51 49 48 49 53 56 58 59 62 63 65 68 71 74 76 79 82 87 90 95 99 103 107
49 50 56 51 47 52 43 52 50 50 52 52 64 61 62 63 60 57 54 53 52 51 49 49 51 54 56 59 61 63 66 68 70 73 76 78 82 86 90 94 99 103 104 97
45 47 49 51 48 48 43 55 55 51 52 52 57 56 58 61 58 55 53 51 48 48 49 50 51 54 56 59 61 64 67 69 73 75 78 82 86 90 94 98 103 98 94 95
43 40 46 49 52 51 50 48 51 46 45 49 50 53 57 57 54 52 51 50 50 51 52 53 54 55 56 57 59 62 67 72 74 78 81 86 89 94 98 99 91 91 92 94
31 36 31 39 43 45 39 36 41 34 32 39 47 50 53 52 51 52 53 52 52 52 54 55 56 57 59 61 64 68 70 73 77 81 85 90 94 97 92 88 88 90 90 92
18 20 24 31 33 32 32 27 27 32 36 37 48 52 52 51 51 52 53 54 54 54 55 56 58 60 62 65 68 70 74 77 81 85 89 93 91 86 85 85 87 88 88 87
20 18 16 17 24 26 27 29 30 32 37 42 47 49 49 49 49 50 51 52 52 53 56 58 61 63 66 68 71 74 78 82 86 89 88 82 81 81 82 83 86 85 84 88
19 18 17 18 19 22 24 26 29 32 38 44 45 46 47 48 49 51 52 53 53 56 58 60 63 65 68 72 75 79 82 83 82 77 78 78 78 79 82 82 80 83 88 94
20 19 19 18 19 22 24 26 29 34 39 44 46 47 47 48 49 51 53 55 57 59 62 64 67 69 72 75 77 76 75 72 73 73 73 75 76 77 75 77 82 89 95 100
18 18 16 19 20 21 21 23 28 34 40 44 47 49 50 50 52 54 56 58 60 62 65 68 70 70 68 67 66 66 68 69 70 72 72 71 70 71 76 83 90 96 101 107

GFSCGP_250_spd_021.txt.gz
Wind_Speed
73 67 64 68 69 63 59 57 56 56 58 62 54 54 56 59 61 67 77 71 70 74 77 74 68 63 58 52 52 50 48 52 58 65 65 61 60 59 58 51 53 52 47 47
76 71 73 72 69 66 65 62 60 61 63 63 60 50 56 53 54 59 67 73 67 71 75 75 71 65 59 53 49 47 45 42 41 42 43 45 46 47 49 48 48 46 46 44
83 78 78 73 71 71 69 68 67 65 68 64 59 48 57 55 53 56 60 66 69 67 73 74 72 67 60 54 49 47 45 43 40 39 41 43 45 45 45 44 43 43 41 40
88 85 85 81 75 77 73 74 72 70 70 66 63 44 57 56 56 55 58 64 71 66 71 73 71 67 61 54 49 46 44 43 38 37 39 41 40 40 40 40 39 39 39 41
82 84 86 82 84 81 76 79 77 75 73 70 65 46 48 55 54 57 61 65 71 68 71 72 72 68 61 52 48 46 45 41 37 38 38 37 37 37 35 37 39 40 43 44
74 76 78 79 81 81 81 82 82 82 79 66 67 47 41 53 51 54 55 62 67 71 70 73 72 67 60 54 50 47 44 39 39 39 39 41 40 39 40 41 42 44 45 46
66 70 73 77 79 81 83 85 87 88 80 57 71 58 33 52 61 58 58 59 64 71 71 73 70 67 60 55 50 48 44 40 42 42 43 43 43 44 43 44 46 47 48 51
65 67 72 76 78 82 84 88 90 88 80 76 85 48 37 54 66 65 62 58 58 67 70 70 70 66 59 54 52 50 45 42 43 45 45 46 47 47 47 49 49 50 53 55
65 68 73 77 81 84 87 91 93 85 79 83 79 62 56 61 63 60 59 58 53 63 69 68 70 66 58 55 53 50 45 44 46 48 48 48 50 50 51 52 53 55 58 59
69 70 71 64 60 62 66 69 69 67 64 62 61 50 53 66 70 65 63 58 57 67 72 71 70 62 58 56 52 50 47 47 47 49 50 51 52 52 53 55 57 59 61 63
54 49 46 42 41 39 38 42 43 43 43 44 49 51 67 72 77 62 62 61 63 74 75 73 69 61 57 55 52 51 48 48 49 51 53 54 53 53 55 58 60 64 66 68
33 32 33 31 29 26 25 27 30 31 35 43 48 62 70 63 56 57 60 62 66 71 70 69 66 60 57 56 53 51 50 51 52 53 54 55 56 56 59 62 64 67 71 74
13 16 16 10 4 6 4 9 17 20 29 43 51 52 56 54 51 54 55 58 67 70 69 68 63 60 58 55 52 52 51 52 53 54 56 56 57 59 62 65 68 71 74 76
35 35 25 31 28 22 17 11 18 26 35 43 48 51 53 51 43 53 53 61 69 68 69 67 62 59 55 54 52 52 52 52 53 55 56 58 60 62 65 68 72 75 78 81
46 46 40 39 47 44 42 38 33 40 46 49 51 51 54 51 49 51 60 66 65 65 67 64 60 56 54 54 52 51 51 52 54 55 58 60 63 66 69 72 76 80 83 87
45 43 39 37 41 43 39 45 44 44 48 50 45 46 38 45 48 55 62 64 63 65 63 60 58 54 52 50 49 49 51 53 56 59 61 64 67 70 73 77 80 84 87 91
49 47 45 36 28 28 34 36 36 35 38 38 34 35 38 37 45 54 61 61 63 63 60 57 52 50 48 46 47 49 52 54 58 60 64 67 71 73 77 81 83 87 91 94
47 45 46 43 31 32 28 21 23 27 31 28 26 34 34 40 48 53 59 58 61 60 56 53 51 49 47 46 47 51 54 57 59 63 66 69 72 75 78 81 85 89 93 97
45 45 45 44 42 34 32 40 32 32 23 30 35 27 32 41 49 55 55 57 58 56 54 51 49 47 46 48 50 53 55 57 60 63 67 70 72 75 79 83 88 92 96 101
49 44 46 45 43 39 44 40 40 37 41 31 34 28 32 41 48 53 52 54 55 53 50 48 48 48 48 50 52 53 56 59 62 65 68 71 74 78 83 87 91 96 101 101
41 42 40 42 39 32 39 41 35 33 27 26 24 31 32 37 50 52 54 53 51 48 47 46 46 47 49 51 54 57 60 62 66 69 72 75 79 83 87 91 96 97 94 93
31 33 35 30 28 33 27 34 34 26 24 22 22 29 35 43 48 48 49 49 47 46 46 46 47 49 51 55 58 60 62 65 69 72 75 79 83 87 91 92 90 89 91 92
29 23 19 17 17 22 22 17 19 17 19 19 18 29 36 39 43 46 47 47 47 46 46 48 51 53 54 57 60 63 65 68 71 74 79 83 86 87 85 85 87 88 85 81
15 23 21 19 21 20 19 17 11 15 16 18 19 24 30 34 39 45 47 47 46 47 49 51 53 56 58 59 61 64 67 71 75 78 81 82 79 79 83 83 81 76 76 81
18 17 17 18 19 19 20 18 18 20 20 20 23 26 28 30 38 41 43 45 46 47 49 51 54 57 59 61 65 69 72 74 77 77 73 74 77 78 75 69 69 75 80 86
14 15 16 17 17 18 19 18 17 18 19 18 19 23 26 31 38 42 43 44 46 49 51 54 57 60 63 66 68 71 70 67 66 69 72 74 71 65 65 69 75 80 86 91

GFSCGP_250_spd_024.txt.gz
Wind_Speed
71 68 70 73 78 77 76 70 69 67 67 67 63 55 57 60 60 57 55 55 59 63 68 68 68 72 74 75 72 65 61 60 57 55 53 50 51 56 62 68 70 70 69 68
73 74 76 78 78 79 79 75 74 69 72 71 68 54 57 57 53 53 51 51 57 61 65 70 70 70 72 72 72 68 62 58 52 50 48 47 50 52 55 58 60 58 56 52
80 78 80 81 80 83 85 85 83 77 76 69 68 57 58 55 51 50 46 48 51 55 58 66 71 70 70 71 70 68 63 59 52 48 45 44 47 47 46 46 47 47 49 48
78 81 83 84 83 83 83 86 88 86 80 73 75 56 58 54 51 47 45 45 45 49 55 58 68 70 68 71 70 66 64 59 52 48 45 44 48 46 46 45 46 45 45 45
74 74 77 76 80 81 81 87 90 90 85 78 72 61 51 57 51 46 45 47 49 49 51 55 65 71 68 68 70 68 62 59 53 49 47 45 48 46 45 44 43 42 42 42
64 64 66 71 78 81 83 84 85 83 82 71 70 66 47 53 54 50 50 52 53 53 52 57 61 68 68 66 68 67 64 60 53 49 48 46 46 45 45 43 41 41 43 44
61 67 70 76 82 82 75 73 75 74 70 56 67 68 43 55 56 59 58 55 59 58 57 58 58 64 68 66 67 67 65 59 52 50 49 47 45 46 45 45 44 46 47 48
65 68 77 78 72 67 64 70 68 69 65 61 68 52 48 58 62 58 60 56 61 59 57 57 60 61 67 65 65 67 65 58 52 50 49 47 46 47 48 47 48 49 50 51
70 73 67 63 64 67 70 69 73 70 68 70 64 51 52 56 67 66 66 62 58 59 57 60 60 60 66 65 66 67 63 58 53 51 49 48 48 49 50 50 51 50 51 55
62 59 63 67 68 71 70 73 76 74 74 72 61 59 61 67 81 75 70 61 56 57 57 59 60 60 65 64 65 66 62 57 53 52 50 49 50 51 52 52 52 53 55 57
59 63 65 66 61 56 50 52 53 57 62 61 56 54 68 82 88 83 78 65 55 53 56 60 62 63 65 64 62 63 60 56 54 53 51 49 51 53 53 54 55 57 59 62
47 37 36 40 41 41 44 43 43 48 46 42 40 42 62 83 91 87 82 61 52 54 56 58 59 61 62 62 62 63 60 55 53 53 51 51 53 53 54 56 58 59 62 66
10 11 14 19 19 20 27 31 28 27 25 29 32 43 57 75 88 84 77 59 56 53 52 55 59 57 61 61 62 61 57 55 54 53 52 51 52 53 56 58 60 63 66 69
20 22 25 18 19 14 9 6 4 4 8 12 15 28 44 56 62 62 57 59 58 56 56 57 56 55 63 61 60 57 56 55 53 51 50 51 54 56 58 61 64 66 69 71
25 28 30 31 27 20 20 21 23 19 14 5 12 31 41 40 40 41 47 50 53 55 55 57 56 59 59 58 58 56 55 53 50 49 50 53 55 58 61 64 66 68 72 76
27 28 21 24 25 27 20 20 22 22 23 24 26 32 34 33 31 32 36 42 47 51 52 52 55 58 57 57 55 54 53 51 48 49 52 54 57 60 63 65 68 72 76 79
24 26 19 18 22 22 17 21 22 19 22 30 37 41 47 44 32 19 19 34 39 43 46 51 55 54 55 54 52 51 51 50 49 51 54 57 60 63 64 67 71 74 77 80
21 24 21 17 14 17 16 11 13 15 19 21 26 33 39 28 34 48 45 33 37 37 43 51 52 53 52 51 50 49 48 48 50 52 56 58 60 63 66 69 73 75 79 82
26 24 22 23 18 16 11 10 13 9 10 22 16 16 17 27 29 29 32 32 34 37 45 50 51 52 50 48 47 46 45 47 50 53 55 58 61 64 68 72 75 79 83 86
28 25 25 25 21 24 17 24 22 15 24 11 20 15 11 8 6 13 24 28 33 39 44 49 49 48 46 45 44 45 46 49 52 54 57 60 63 67 71 75 79 82 87 90
27 28 26 23 22 24 17 19 23 19 24 16 9 12 8 6 6 10 18 29 35 38 45 47 46 44 44 43 44 46 48 52 54 56 60 63 67 71 75 78 82 86 89 94
22 25 28 25 19 20 22 19 17 15 12 7 8 11 7 6 8 15 20 28 30 38 45 44 44 43 43 44 46 49 52 53 55 59 62 66 70 74 78 81 85 89 93 92
25 30 25 26 23 17 24 25 23 16 15 9 8 7 11 10 7 12 17 24 32 39 43 43 44 45 44 45 47 50 53 56 59 62 66 71 73 76 81 85 88 88 84 85
30 35 28 23 22 16 19 16 19 19 16 15 6 5 8 15 16 15 17 29 34 39 41 43 43 43 45 46 49 53 56 59 63 67 70 72 76 80 83 82 81 82 79 73
18 21 25 25 27 21 17 15 11 10 11 12 11 10 10 11 15 21 27 32 35 38 40 42 43 44 47 49 53 56 60 62 65 69 72 76 76 75 76 77 75 70 69 73
18 17 20 20 16 17 16 12 10 11 12 14 14 16 16 15 17 20 23 28 32 37 40 43 46 48 51 53 56 59 62 66 69 72 69 68 70 73 71 67 65 67 73 78

GFSCGP_250_spd_027.txt.gz
Wind_Speed
70 69 72 75 73 71 68 67 66 69 74 74 70 57 59 59 54 53 57 54 55 57 58 57 55 59 66 70 71 70 71 71 68 67 63 58 56 53 53 53 51 49 50 56
71 71 74 75 75 74 72 71 72 74 76 76 73 63 64 62 57 58 56 56 55 56 59 59 59 56 66 71 72 69 70 70 68 67 64 59 54 52 53 49 48 48 51 55
73 74 74 74 75 76 77 76 79 80 82 81 78 67 70 66 63 61 58 59 57 56 57 58 58 53 61 68 72 71 68 68 67 66 63 60 54 51 50 47 46 49 51 54
72 73 71 72 74 80 81 84 86 85 85 83 86 73 69 70 64 60 61 61 60 59 58 59 56 53 53 63 68 70 68 66 66 66 64 60 54 51 51 47 47 48 49 50
69 73 75 75 80 82 83 84 85 87 90 87 81 78 62 68 69 67 65 67 66 64 61 61 55 51 53 59 64 67 67 65 65 66 64 60 55 53 50 49 49 51 52 51
71 72 74 78 81 82 82 82 81 82 81 70 72 75 56 65 74 79 73 71 69 68 64 61 56 52 52 55 58 64 66 64 64 64 64 61 55 52 51 51 51 51 52 49
69 71 74 78 73 71 69 73 77 80 81 70 76 78 61 68 73 80 82 77 71 69 65 62 54 53 53 54 55 58 65 64 63 64 64 61 57 53 52 52 51 52 52 49
60 63 59 60 63 69 74 80 84 84 81 78 77 54 54 62 72 76 77 78 74 69 65 59 52 55 54 56 55 54 60 62 63 64 63 61 58 54 52 52 51 53 52 51
46 49 58 64 69 77 80 86 90 82 75 66 63 51 53 58 65 74 78 78 74 69 64 60 54 53 56 58 59 53 56 61 62 63 64 61 58 54 52 53 53 54 54 54
48 53 63 68 77 81 81 79 80 80 72 67 60 55 58 58 65 73 78 75 75 69 59 56 50 51 56 57 57 53 54 60 61 63 63 61 58 54 52 53 54 55 56 57
52 60 66 69 68 65 60 59 63 63 61 58 51 51 63 69 75 78 78 76 74 69 58 56 47 50 55 57 57 53 52 59 60 62 62 61 57 54 53 54 55 57 58 58
55 52 46 48 38 37 36 37 40 39 41 39 43 46 52 77 83 79 76 78 70 65 55 55 49 51 56 58 56 52 51 59 61 61 61 59 56 54 54 55 57 58 58 60
45 37 34 27 22 24 26 26 27 29 29 28 24 42 43 53 68 76 77 76 68 62 57 55 49 50 54 54 54 52 51 57 59 59 60 58 56 55 55 57 57 58 59 60
34 37 32 14 19 19 28 33 31 23 19 15 17 25 32 41 49 66 76 72 66 61 58 52 51 51 51 52 52 52 48 57 58 58 59 57 56 56 56 57 57 57 59 62
29 19 5 15 23 26 31 37 40 35 27 14 6 4 17 24 32 42 52 63 65 59 54 51 52 51 50 51 50 47 49 57 57 57 58 56 55 56 57 56 56 58 60 64
18 5 15 20 24 29 33 34 35 28 29 25 23 17 12 11 10 21 31 40 53 55 51 49 51 48 46 46 46 43 46 54 55 56 56 56 56 55 56 56 56 58 62 66
9 3 12 12 20 25 29 31 32 26 29 27 30 28 28 30 24 25 24 29 38 47 51 51 52 48 47 44 40 39 47 53 54 56 56 54 53 54 55 56 57 61 65 71
9 8 10 6 11 22 25 26 28 23 26 33 35 37 35 29 26 28 30 21 32 40 45 47 47 46 43 39 39 40 49 53 53 52 51 51 52 53 54 57 60 64 69 72
15 7 16 20 16 27 16 20 17 20 30 30 24 22 18 21 29 15 22 19 24 28 32 35 34 35 35 35 37 42 48 49 49 48 49 50 51 53 56 58 63 67 71 75
19 12 8 14 14 20 17 18 16 18 25 26 28 25 15 13 10 13 9 8 9 8 19 24 27 27 28 30 36 41 45 44 44 44 46 48 51 54 57 61 66 71 74 78
18 15 10 15 10 7 15 9 8 11 16 21 20 20 17 10 11 10 8 4 5 6 11 16 19 23 26 30 34 39 40 41 42 43 46 49 52 56 61 66 70 73 77 82
20 16 11 11 13 8 7 9 5 4 6 6 9 14 15 14 10 10 9 8 6 5 2 11 18 23 26 30 34 37 39 40 42 45 48 51 55 60 65 69 73 77 82 85
21 19 16 13 13 12 14 9 13 13 12 10 5 9 11 8 6 3 5 3 2 2 5 12 17 23 28 32 36 39 42 43 45 47 51 56 61 65 69 72 77 81 83 88
25 29 22 20 15 13 10 16 20 18 15 19 14 3 8 10 9 8 7 7 4 4 8 13 17 23 30 35 40 43 43 45 49 53 56 60 64 68 72 75 78 83 86 84
28 32 35 30 27 23 22 20 20 17 10 9 12 10 11 11 14 12 10 9 9 10 13 18 25 28 37 42 45 46 48 51 54 57 60 64 67 71 74 79 82 79 79 80
22 24 26 31 29 27 20 16 15 12 11 9 9 9 11 14 17 16 16 13 14 15 18 21 26 34 40 43 46 49 52 55 58 62 65 68 71 75 78 76 75 77 75 68

GFSCGP_250_spd_030.txt.gz
Wind_Speed
78 76 78 79 78 77 77 77 73 73 72 71 65 60 60 65 65 64 61 58 56 52 55 60 61 64 61 59 61 62 60 61 61 64 66 68 69 65 60 60 57 56 57 53
81 78 78 80 81 81 81 79 74 76 75 72 69 58 63 66 66 67 66 63 63 61 57 58 61 61 62 63 62 62 62 59 59 62 64 66 67 66 62 59 58 58 55 52
80 79 80 81 82 84 83 76 77 77 76 74 72 63 69 66 66 68 68 68 69 68 67 62 63 63 62 60 63 64 64 61 59 60 62 62 66 67 63 60 59 59 56 56
79 80 82 82 82 82 77 75 75 77 79 79 78 72 68 71 72 74 76 75 74 74 72 69 66 66 64 60 61 64 64 63 61 61 62 63 63 65 62 59 60 61 58 55
78 81 78 76 77 74 74 75 77 79 80 81 80 84 67 75 77 79 85 83 81 81 81 75 71 66 67 62 60 61 61 59 62 64 65 64 63 62 60 61 63 63 59 58
67 68 67 69 72 72 74 77 80 82 82 80 83 88 68 80 82 84 87 91 87 84 81 81 77 68 66 63 59 59 58 57 61 64 66 67 63 60 58 62 62 63 61 59
55 58 61 66 69 72 74 78 80 82 85 80 85 86 75 85 85 86 88 89 89 83 79 79 75 70 65 63 61 61 58 56 58 61 63 66 64 53 59 63 64 64 62 60
52 57 62 66 65 68 70 76 79 75 77 78 79 74 75 75 73 77 75 76 84 83 76 74 76 71 66 62 59 59 56 54 56 57 58 62 62 58 62 63 63 63 62 60
51 56 55 58 55 56 57 64 70 74 79 80 79 80 82 87 83 77 81 85 83 88 85 78 75 70 67 63 57 58 54 52 54 53 54 59 62 60 61 66 66 65 63 61
41 44 45 42 48 54 60 64 73 82 83 87 82 80 84 77 76 68 83 86 89 91 95 87 82 74 68 64 59 56 50 51 52 50 50 56 61 61 60 66 67 66 65 63
30 35 40 46 51 56 62 68 68 63 65 67 57 58 62 67 66 67 76 78 79 82 86 82 78 73 66 63 60 57 51 50 51 50 48 53 60 62 61 66 67 66 64 63
33 38 41 46 53 54 48 44 32 35 40 48 48 39 50 56 59 62 75 74 73 76 76 70 70 70 64 62 60 57 51 49 50 50 50 50 58 62 63 65 66 66 65 64
34 37 42 39 26 19 12 25 31 36 38 30 26 32 41 43 46 45 66 73 69 70 72 65 66 66 61 58 55 51 48 50 52 51 49 49 55 63 64 64 67 67 65 64
32 33 19 18 13 13 20 21 22 30 32 31 22 21 22 31 41 43 48 62 68 67 66 60 62 60 57 52 50 46 46 49 50 48 49 50 52 61 63 65 67 67 65 64
24 18 18 13 9 18 17 15 23 25 24 23 20 13 7 12 20 28 35 42 59 62 59 54 57 56 53 50 45 44 46 46 47 48 49 50 50 59 63 64 65 65 63 63
11 16 13 6 11 17 15 19 20 32 39 30 31 26 19 5 9 16 24 30 50 56 51 49 51 53 51 46 43 43 45 47 45 46 47 47 49 57 62 62 63 62 61 63
16 10 5 7 9 19 15 17 25 26 37 42 38 36 29 22 14 12 18 29 47 49 45 44 48 50 47 43 41 45 46 44 43 45 46 46 48 55 58 59 60 60 61 61
11 9 3 7 18 16 10 16 25 30 34 38 37 36 32 32 25 19 19 26 43 48 42 44 44 44 42 38 41 43 42 41 39 40 43 45 47 52 54 55 57 58 60 62
12 9 7 10 14 8 12 12 23 27 30 35 30 28 32 34 35 29 27 20 30 46 43 41 42 42 42 41 43 44 42 40 39 40 42 41 44 48 51 53 55 57 60 63
12 12 8 17 12 7 12 13 17 18 24 31 34 30 24 22 23 25 25 23 20 25 36 40 40 41 43 44 40 40 37 35 36 37 34 37 42 45 48 51 55 58 62 65
14 18 11 7 7 5 4 3 10 11 15 20 22 24 23 25 23 23 20 18 19 14 16 21 27 32 33 33 33 31 30 27 25 27 32 37 41 43 47 51 55 59 63 67
16 13 9 13 7 5 5 2 4 7 11 12 15 17 18 21 16 15 15 19 20 18 16 14 12 14 16 16 15 15 17 20 23 28 32 35 39 44 48 53 57 62 66 71
19 18 14 12 14 11 10 13 12 4 12 13 8 10 11 8 7 5 9 7 12 12 10 9 7 6 6 8 10 13 16 21 25 30 34 38 43 47 52 57 61 66 71 76
25 21 22 17 16 17 16 14 14 13 15 16 17 17 14 11 9 7 4 6 3 5 7 7 5 1 3 7 12 16 20 24 29 34 39 43 48 53 58 62 67 72 76 80
27 29 28 26 28 29 22 21 18 12 10 7 9 9 10 11 11 11 10 11 10 7 6 6 5 6 9 13 16 20 25 30 34 40 45 51 56 60 65 69 73 77 81 85
31 36 35 34 35 28 29 26 18 13 8 6 6 8 12 18 17 16 15 14 13 10 10 11 13 15 17 20 23 27 32 37 42 47 53 59 63 67 71 74 78 81 84 85

GFSCGP_250_spd_033.txt.gz
Wind_Speed
85 83 83 87 83 81 80 79 78 78 75 74 71 67 66 66 68 72 65 62 61 61 64 62 60 61 61 58 58 61 62 66 63 60 59 57 59 60 61 64 66 70 70 68
84 84 84 83 82 81 81 80 79 79 78 75 75 68 71 75 71 73 70 68 68 67 67 66 65 65 63 63 58 59 62 64 64 62 60 58 56 57 57 60 62 67 68 68
82 83 86 84 82 81 80 80 80 80 80 78 78 71 77 72 71 73 75 73 73 72 71 70 69 66 66 65 61 57 59 63 64 62 62 60 58 57 56 60 62 64 64 65
73 79 81 84 84 83 81 80 82 83 82 82 80 76 76 78 75 76 78 82 80 77 73 72 71 68 67 68 68 63 60 60 62 61 58 61 60 58 59 61 62 63 64 66
65 71 74 80 82 82 83 83 85 85 86 83 83 88 74 82 81 81 83 85 88 84 79 77 75 72 71 70 70 71 66 60 61 63 57 58 59 59 60 61 63 62 64 68
60 64 70 76 78 80 83 84 86 86 86 85 89 94 74 82 84 86 86 88 90 89 87 84 81 80 78 74 69 70 68 64 62 64 59 57 56 57 57 58 62 66 65 68
55 60 64 66 70 74 78 83 84 87 88 87 88 83 74 83 85 86 90 92 93 96 95 91 86 85 81 78 74 70 70 68 65 63 60 57 56 56 55 56 57 63 65 68
49 55 60 64 66 70 74 76 80 76 74 71 75 73 78 84 89 82 89 93 100 99 97 94 92 88 84 80 73 71 74 72 68 62 60 55 57 55 55 53 53 58 64 69
48 51 54 54 56 55 51 50 58 59 62 62 65 72 74 88 88 84 85 84 94 96 97 98 95 92 87 84 76 72 73 71 67 64 60 55 56 54 55 54 53 59 63 67
34 32 33 35 34 33 38 48 50 54 58 65 69 76 89 91 85 83 90 79 85 86 87 88 89 89 82 78 71 69 69 69 67 62 57 57 56 54 52 52 52 58 64 68
27 25 29 24 23 32 38 44 49 56 62 65 67 63 78 77 70 74 78 84 81 89 86 85 81 80 76 72 68 64 62 62 64 59 58 57 57 55 53 51 51 54 61 66
20 22 23 22 27 33 40 44 38 36 38 44 52 50 67 75 60 58 56 64 65 85 91 91 85 85 80 73 69 66 64 64 60 58 57 56 58 57 56 52 50 52 62 67
18 20 20 22 30 34 27 23 21 20 28 37 40 44 40 47 42 42 47 46 49 61 81 91 86 84 81 75 71 70 69 67 63 58 53 54 59 58 56 57 52 50 56 65
18 19 19 19 17 14 18 15 15 22 26 27 34 30 37 33 30 29 33 34 39 48 65 76 77 78 77 67 65 65 68 65 58 56 52 57 59 58 59 56 53 53 55 61
18 16 11 5 8 7 2 10 12 21 28 26 34 39 33 32 22 20 22 24 29 34 45 60 61 63 56 50 51 53 56 55 54 50 52 54 53 55 56 57 54 56 58 59
15 8 2 7 5 1 3 8 14 23 28 26 33 39 39 28 20 14 12 14 20 24 29 46 45 43 40 40 45 47 48 49 47 45 49 51 51 51 54 56 56 56 58 57
10 2 5 7 5 3 6 7 14 24 24 24 30 36 40 37 25 11 4 5 9 13 23 36 36 33 32 39 41 43 43 43 42 45 44 45 46 48 50 56 51 52 54 54
7 2 11 8 3 3 11 7 12 21 25 27 30 30 34 41 37 24 11 6 10 18 29 34 29 26 32 36 38 38 40 40 42 42 39 34 43 47 50 48 50 51 49 47
7 5 17 9 4 2 12 5 9 18 21 27 28 32 36 37 39 34 26 23 24 26 25 25 29 33 34 35 36 38 39 39 40 41 36 40 52 46 49 49 48 46 43 45
8 6 6 11 3 7 11 5 8 14 17 23 27 30 32 35 33 36 28 21 20 20 23 27 30 31 32 33 33 32 34 35 36 37 39 41 46 47 45 45 41 39 41 46
10 11 7 15 9 6 6 9 10 10 12 19 22 27 26 29 30 27 26 21 16 16 20 21 23 24 26 27 27 26 30 37 36 38 45 42 41 39 36 34 35 39 44 48
10 6 9 9 11 13 10 12 10 9 10 16 23 20 22 22 21 19 20 18 17 15 16 18 20 23 24 26 29 33 37 37 36 34 32 29 28 28 31 34 38 42 47 52
15 11 11 9 15 12 13 14 15 16 15 14 21 24 19 13 13 12 11 17 12 15 14 15 16 15 16 18 20 21 21 20 18 19 20 23 26 30 34 39 44 49 54 59
15 15 15 15 16 16 17 17 20 15 14 15 15 16 13 13 12 2 7 8 11 11 13 15 14 11 10 9 9 9 10 12 15 19 22 27 31 36 41 46 52 57 61 66
20 21 22 23 22 22 22 23 28 25 16 15 7 9 12 12 11 9 3 2 4 7 11 10 9 8 9 11 12 13 15 17 20 24 28 33 39 44 50 56 60 64 68 73
26 25 27 29 29 30 30 24 23 20 10 7 7 9 11 13 14 11 10 8 9 8 7 7 8 10 12 13 15 17 19 23 27 31 35 40 46 52 57 62 67 70 74 78

GFSCGP_250_spd_036.txt.gz
Wind_Speed
84 82 82 88 88 88 86 88 90 90 88 85 84 79 79 76 71 76 71 66 65 67 71 69 66 65 63 65 63 58 56 53 56 54 55 56 55 57 58 59 58 59 61 65
72 77 86 84 82 84 86 89 88 88 87 83 85 79 79 79 74 71 72 69 70 72 68 72 74 70 66 66 67 64 61 56 58 56 54 54 51 56 59 58 58 57 59 61
75 76 75 77 81 83 84 83 86 87 88 87 83 75 76 74 74 76 75 75 76 76 76 77 73 78 73 68 69 69 67 64 58 61 56 50 51 55 58 59 61 60 59 59
78 79 80 78 77 81 82 81 83 84 85 84 81 77 77 76 76 76 79 79 79 81 81 81 79 77 81 74 72 69 69 69 66 62 59 54 52 53 55 59 58 58 59 60
78 80 78 75 81 79 81 82 85 85 83 80 80 80 67 76 77 77 81 83 86 86 86 85 84 79 83 80 75 72 70 69 69 65 64 59 59 55 56 58 57 55 57 60
73 72 75 79 75 79 84 84 84 83 82 79 80 80 66 75 80 84 87 90 91 90 92 93 92 87 86 85 80 75 71 69 68 67 68 63 65 56 58 60 56 54 54 54
68 71 68 67 67 71 72 75 76 75 76 79 83 80 74 79 86 88 93 96 100 100 100 102 99 94 88 90 85 80 75 73 72 70 70 65 66 61 62 63 58 56 54 51
54 55 52 53 53 55 57 60 65 65 68 71 79 78 82 86 90 96 97 101 105 108 105 100 95 94 92 90 90 87 81 75 76 72 72 70 60 63 63 64 60 58 54 50
40 42 43 45 46 47 52 55 58 62 68 66 71 76 77 83 88 90 96 97 98 102 96 93 93 92 93 93 90 90 85 79 82 77 79 71 60 65 65 61 60 59 55 52
31 33 33 39 41 43 46 52 56 59 59 60 58 63 66 73 81 81 83 90 94 93 90 88 86 87 91 91 91 90 88 83 82 79 77 68 65 67 63 60 58 58 56 55
29 31 36 39 37 41 41 41 39 35 38 42 48 56 62 76 72 74 83 84 88 87 86 88 86 81 82 90 90 88 87 85 80 81 71 69 70 65 62 61 57 58 58 57
32 35 34 26 24 21 22 22 27 34 39 42 43 37 52 55 61 68 72 72 74 66 59 67 74 77 81 83 81 80 82 83 80 76 72 70 63 59 59 59 57 58 57 58
26 25 19 16 11 17 22 25 32 30 28 30 27 29 44 53 55 58 59 54 55 54 51 53 68 71 77 80 80 77 68 63 61 60 60 59 53 49 53 56 55 56 59 61
20 16 10 8 14 22 24 17 16 15 21 18 28 17 35 45 47 52 50 41 41 39 39 43 51 63 70 71 82 77 63 56 55 56 56 52 51 49 51 52 54 57 59 60
13 9 9 14 17 16 11 4 3 8 15 16 27 28 33 40 44 42 39 31 27 29 27 31 34 48 54 63 73 67 63 60 57 54 51 51 50 51 53 53 56 57 58 59
8 6 13 13 12 8 8 5 2 9 20 24 25 28 30 37 38 32 29 18 15 13 14 16 23 28 40 49 53 59 59 56 54 53 52 53 53 52 50 54 54 55 56 58
7 14 13 11 10 8 13 9 2 10 18 24 29 31 34 34 36 32 21 14 10 4 2 7 11 17 22 25 34 44 48 50 52 53 51 48 46 46 48 49 51 53 56 55
11 11 13 15 14 14 15 10 2 11 17 20 28 31 36 32 33 35 32 29 26 25 22 21 19 19 19 21 25 30 35 38 37 36 36 36 38 40 41 44 48 51 48 52
15 12 19 16 12 10 16 11 1 9 15 16 28 32 34 35 29 25 31 29 27 25 23 21 21 20 20 22 24 26 28 27 27 28 31 32 30 25 31 44 50 52 56 59
16 12 20 13 7 14 16 9 5 4 12 19 26 27 26 30 37 22 22 23 21 20 19 21 21 22 23 22 21 20 20 21 22 24 26 27 30 31 39 53 62 62 62 65
18 14 13 16 13 11 13 7 6 9 14 18 23 29 29 20 29 32 19 15 18 20 18 17 16 16 15 13 13 12 13 17 21 24 28 30 30 42 39 46 52 57 56 52
19 12 13 17 19 13 11 11 11 13 14 17 21 27 31 16 18 17 25 20 8 15 15 11 9 9 7 6 9 11 13 21 26 29 30 29 36 46 46 43 41 41 44 48
18 14 10 10 15 14 13 12 14 15 18 18 22 23 25 19 12 15 8 16 14 4 5 18 10 10 11 11 14 13 23 27 29 27 24 30 39 43 37 37 40 44 48 51
22 17 12 9 12 12 15 15 17 19 20 23 18 12 15 14 12 3 6 5 9 8 3 2 7 9 15 17 16 22 29 30 26 26 25 26 28 31 35 38 41 46 52 57
25 20 16 13 16 19 21 22 21 24 18 16 12 12 13 11 10 9 6 2 6 5 2 1 5 7 9 10 11 12 15 17 19 22 24 27 29 32 36 41 47 54 59 64
26 20 21 19 21 21 22 23 25 20 21 19 15 13 12 9 9 9 9 7 7 4 7 9 9 9 10 10 11 13 16 18 21 22 23 26 30 35 41 47 53 60 64 67

GFSCGP_250_spd_039.txt.gz
Wind_Speed
85 86 89 94 91 88 85 80 78 78 80 77 76 76 79 82 76 74 74 76 78 75 73 69 72 73 71 72 70 70 67 63 65 64 60 55 54 51 53 53 51 53 54 55
83 78 83 90 91 91 88 86 88 87 84 81 82 80 81 82 81 83 84 82 81 80 77 75 74 73 71 71 71 73 71 68 65 65 65 59 55 51 53 54 52 51 52 54
75 81 80 79 80 83 83 86 90 89 89 90 87 84 86 84 85 86 86 86 83 80 80 76 75 74 71 71 74 75 73 69 72 69 66 61 59 55 56 55 55 51 53 54
71 69 75 76 76 77 78 82 86 87 90 89 86 83 83 84 84 85 86 84 84 85 80 78 77 75 74 75 77 79 80 77 73 71 73 68 63 62 61 59 58 52 55 47
77 70 68 72 76 74 75 78 84 84 82 81 81 80 75 80 81 82 84 87 88 86 83 82 81 81 80 79 80 80 82 83 78 76 73 77 68 64 65 60 57 58 53 52
77 72 71 71 70 68 69 72 74 73 74 74 79 78 71 80 82 83 85 86 86 85 83 84 85 85 85 85 85 85 84 85 82 78 72 77 75 68 65 63 56 56 58 59
79 78 73 72 72 72 73 72 73 73 74 74 76 76 71 76 79 83 85 87 87 88 88 88 90 91 92 93 93 91 89 88 87 81 76 74 75 73 66 62 60 62 63 61
73 77 75 72 69 70 72 74 72 72 73 73 75 76 78 82 82 84 86 89 92 94 95 95 95 98 100 102 100 99 96 92 92 89 80 76 77 76 71 66 63 62 64 65
64 68 69 68 67 67 69 65 66 66 66 63 64 62 64 69 76 82 82 83 87 93 97 98 98 101 105 107 107 105 103 98 94 90 88 76 76 74 71 67 65 66 66 64
50 56 61 63 60 60 58 57 55 51 49 46 44 49 58 70 73 75 78 82 87 92 95 97 101 107 108 107 106 100 99 102 94 90 81 71 75 76 71 70 69 67 67 63
34 37 40 40 40 40 41 40 40 40 41 44 50 51 66 66 67 69 71 77 84 90 90 92 94 99 101 101 96 93 84 84 81 75 74 69 70 70 73 72 68 66 64 63
26 28 25 23 26 28 30 32 36 38 40 44 39 42 52 54 58 64 70 76 84 87 84 83 83 88 88 85 79 74 84 83 78 71 69 70 69 73 75 72 67 64 63 62
24 20 18 21 23 26 28 27 26 24 23 32 34 42 47 50 53 59 65 70 71 68 62 59 64 68 62 56 56 60 66 75 77 70 66 66 68 70 70 66 64 63 62 58
20 19 19 22 23 23 18 17 17 22 21 24 28 31 39 43 47 50 58 67 59 47 41 42 50 41 43 45 42 50 58 67 72 65 61 62 64 64 63 61 61 56 53 53
18 24 27 22 17 14 15 16 18 17 16 13 16 20 26 34 33 34 38 46 40 35 32 33 33 31 32 34 29 40 49 55 62 62 56 54 53 49 49 49 47 49 49 48
25 21 19 16 14 13 13 17 15 8 5 6 15 24 27 36 30 26 26 29 26 24 21 17 15 19 18 21 24 31 44 49 53 56 48 43 39 38 39 41 44 46 44 47
17 16 16 14 14 14 12 15 11 2 3 7 19 26 31 35 36 28 23 27 31 27 17 8 4 6 6 5 10 19 32 38 41 49 45 41 37 37 38 38 40 44 45 47
16 12 11 16 16 16 17 17 11 3 3 8 19 24 32 30 34 26 27 28 28 26 27 26 22 18 18 17 16 19 24 32 40 45 44 38 36 35 35 37 36 39 42 43
12 11 14 19 17 14 20 18 12 1 7 15 19 23 29 26 31 26 27 27 31 31 31 30 30 31 31 31 29 27 29 32 36 37 36 34 34 30 26 27 32 34 33 44
11 15 16 22 17 16 17 21 13 8 8 14 18 24 27 22 22 29 18 18 27 26 29 31 33 33 31 29 27 25 22 23 27 26 24 22 22 18 22 27 36 33 41 56
13 17 19 20 16 15 21 21 15 11 9 13 18 24 28 18 15 21 20 16 17 18 22 23 24 25 24 24 24 21 19 18 18 15 10 18 20 21 28 32 32 46 47 52
17 18 22 21 18 17 18 19 17 11 13 14 17 21 24 15 13 13 13 16 14 12 14 17 15 16 17 14 13 15 11 13 17 24 27 22 25 30 35 38 42 44 39 41
19 24 21 23 23 22 20 19 17 14 15 12 19 18 22 20 14 12 7 8 11 13 12 10 8 8 10 10 7 8 5 8 16 18 20 21 26 29 33 36 42 43 46 52
23 23 23 20 23 25 23 19 17 14 16 15 16 20 23 20 11 7 11 6 4 6 5 4 7 7 4 3 5 7 14 18 14 13 19 21 25 32 33 34 37 39 42 48
23 29 24 19 19 21 17 17 19 21 18 10 15 18 19 18 12 7 7 6 5 4 3 3 0 4 10 12 15 17 17 21 24 25 26 26 26 29 33 36 38 42 47 52
21 27 26 26 25 17 17 20 22 25 21 11 14 15 16 16 13 5 6 6 5 2 5 6 4 4 6 8 10 11 12 13 15 18 21 24 28 31 34 39 45 50 54 57

GFSCGP_250_spd_042.txt.gz
Wind_Speed
97 97 91 88 87 85 81 77 76 77 77 73 71 70 76 80 75 75 76 75 73 74 76 77 77 78 77 76 75 72 70 67 69 68 65 66 65 61 61 61 63 63 62 57
89 90 94 95 92 88 83 79 76 79 77 76 75 73 74 76 76 76 76 75 77 77 78 78 78 79 79 81 82 82 77 73 68 67 68 67 68 64 64 62 63 65 63 58
82 84 88 89 93 93 88 85 83 81 78 76 74 74 78 79 79 79 80 79 80 81 82 84 83 82 84 87 88 88 83 78 75 68 67 67 66 65 65 68 65 64 63 55
87 84 81 81 82 85 90 90 88 87 85 79 78 73 78 80 80 84 84 84 85 86 87 89 90 91 91 90 90 88 85 81 78 74 68 69 70 70 67 65 64 65 65 61
75 80 78 77 75 77 79 82 87 92 89 86 86 82 81 86 87 89 91 90 91 93 93 95 95 94 94 91 89 89 89 89 85 79 72 70 72 73 74 74 70 67 64 59
71 75 76 76 75 76 76 76 77 78 83 85 90 87 82 87 90 91 94 96 98 99 100 99 98 96 94 95 96 95 93 92 90 86 79 75 72 74 72 74 75 70 66 66
71 68 71 72 70 70 72 68 69 70 74 74 77 78 74 88 90 94 95 96 93 94 94 95 95 95 95 96 96 95 93 92 92 90 86 80 75 75 75 74 76 71 69 65
75 71 69 66 67 69 67 63 61 62 64 64 65 66 71 77 81 84 86 88 90 92 93 93 94 95 96 98 97 97 97 95 95 93 92 88 83 80 78 78 79 76 70 67
73 69 70 68 68 67 69 65 63 61 59 61 63 67 73 80 80 80 82 85 87 89 90 92 94 95 98 100 101 100 100 100 100 99 98 95 88 84 83 81 84 79 74 74
54 62 69 69 65 67 68 69 66 64 63 65 68 69 76 78 74 75 77 79 80 81 84 88 92 95 96 98 100 102 103 102 102 100 96 96 90 86 84 84 86 80 78 75
46 48 52 54 56 59 63 71 70 66 62 61 62 67 71 67 62 63 65 66 69 73 78 81 84 89 96 99 101 103 102 103 101 99 100 98 97 91 86 82 82 79 75 72
41 44 47 52 56 57 58 61 63 58 55 59 55 60 54 52 56 60 63 67 70 74 77 81 83 90 95 97 99 100 102 102 102 99 96 92 87 83 77 74 71 67 66 67
31 32 34 37 40 43 45 47 46 45 44 39 39 46 43 46 48 52 58 62 65 68 71 72 72 74 79 81 82 80 84 88 87 83 87 85 85 82 78 75 66 62 62 60
24 25 26 28 28 30 30 30 33 32 31 34 31 34 35 34 35 40 48 53 54 59 58 63 65 56 55 59 60 63 65 59 60 60 68 67 67 67 74 72 63 56 54 54
24 25 24 25 27 26 27 28 24 25 27 26 25 19 16 21 28 34 34 34 42 47 51 54 47 39 40 43 45 46 46 44 44 48 50 53 53 59 62 57 53 49 49 53
22 23 24 25 24 22 21 24 25 21 18 19 13 9 15 21 22 29 27 34 38 37 36 35 31 27 29 27 25 25 27 30 36 36 34 39 44 45 44 44 46 46 49 52
25 27 28 24 21 21 20 19 18 19 18 14 12 11 15 21 21 27 27 30 32 29 31 27 17 10 9 10 11 14 16 18 19 23 28 33 36 34 36 37 37 38 41 41
27 26 23 22 20 17 17 20 20 17 12 9 10 14 15 21 22 22 27 27 27 31 29 26 22 16 12 9 10 14 16 17 16 21 27 34 32 30 28 26 26 28 32 36
22 21 20 17 16 18 22 25 22 16 8 5 11 15 16 19 18 20 26 24 25 23 27 27 24 26 26 25 24 24 25 23 22 27 33 32 27 23 23 25 28 30 33 33
19 18 15 13 19 24 23 21 24 16 12 12 13 16 18 21 13 19 25 16 20 14 20 26 27 28 31 32 29 27 28 30 31 31 30 25 23 23 25 27 28 30 33 37
17 15 14 15 20 23 22 22 24 24 18 16 16 18 21 25 12 18 22 16 8 11 10 19 21 21 26 29 29 28 25 30 26 20 15 22 24 25 29 30 31 32 36 43
18 15 15 16 20 21 17 20 27 25 21 19 15 18 19 23 22 19 20 22 12 6 6 9 12 12 12 14 21 20 19 20 19 20 21 17 18 22 27 29 31 31 31 33
17 15 15 18 21 21 19 19 22 24 24 19 17 20 22 24 23 14 14 17 17 8 2 2 6 2 4 6 8 7 13 12 9 10 12 12 12 17 21 27 31 32 35 44
19 17 18 18 24 23 23 22 23 25 23 20 20 21 27 26 19 14 13 12 13 13 12 9 9 10 1 6 3 4 7 2 2 10 13 17 16 20 23 26 31 35 38 42
21 16 18 22 26 26 28 27 27 25 26 23 21 21 22 20 16 12 10 10 9 10 9 8 6 5 8 8 8 8 9 9 8 6 9 12 15 19 24 28 33 38 42 47
24 17 24 26 27 25 24 28 26 27 26 23 22 20 21 19 18 11 11 12 11 9 10 9 7 5 5 4 5 5 7 9 10 12 16 20 23 26 30 34 38 42 46 51

GFSCGP_250_spd_045.txt.gz
Wind_Speed
107 101 96 93 92 93 89 84 82 80 78 75 76 72 75 80 76 74 73 73 75 77 82 79 79 79 79 78 75 77 76 75 75 76 74 72 73 73 72 74 72 75 75 71
109 103 97 96 92 92 88 85 82 81 80 77 73 71 74 76 75 74 74 75 76 76 80 82 79 78 78 78 79 79 79 78 77 78 79 78 79 76 73 72 72 72 74 74
104 102 100 97 95 90 85 82 83 85 80 76 74 69 72 77 76 75 77 78 78 77 78 80 81 80 78 79 81 82 82 82 80 80 83 82 83 83 79 72 70 71 71 71
94 97 100 102 97 92 88 87 85 82 80 76 76 70 74 77 77 77 78 78 78 79 78 79 81 81 82 81 83 85 89 89 88 88 87 88 89 88 87 78 73 72 74 71
82 87 91 94 97 94 91 89 87 85 81 78 77 74 76 78 77 79 82 82 81 83 83 85 87 88 89 90 91 92 94 95 96 96 94 94 95 94 89 81 78 76 71 72
79 79 79 83 86 90 92 93 93 90 86 81 84 79 79 84 84 83 85 86 87 87 86 88 90 92 95 97 99 99 100 101 102 103 102 101 98 91 87 84 83 80 76 70
73 73 77 76 78 81 83 87 86 87 89 88 90 86 85 91 92 89 88 89 89 91 92 94 96 98 100 103 105 106 107 109 109 108 106 103 97 91 86 83 82 81 80 76
73 75 71 76 77 76 79 75 74 76 78 79 81 80 85 92 94 94 92 93 96 97 100 102 105 106 108 110 112 113 113 115 111 108 105 101 98 94 90 86 83 83 79 79
66 65 63 65 68 77 77 73 68 64 66 69 72 74 79 82 83 84 84 87 91 96 99 102 105 107 108 107 107 108 108 106 105 104 103 99 96 94 92 89 86 84 84 83
60 64 68 64 61 62 65 70 73 71 68 68 67 71 72 70 71 72 75 78 83 86 88 90 92 95 98 100 101 103 104 104 103 102 101 100 100 99 97 94 90 85 85 87
48 58 65 64 59 58 58 61 65 65 65 63 65 69 68 66 65 67 69 74 79 83 85 88 89 89 90 91 93 96 95 96 96 95 95 95 96 94 93 91 89 87 86 86
38 47 60 63 63 61 61 62 63 63 62 62 62 69 68 65 65 65 69 72 73 76 79 79 79 81 84 87 90 90 91 92 89 91 94 97 97 96 94 95 92 86 83 84
36 38 40 48 61 65 64 64 64 66 60 56 58 66 64 63 65 63 58 57 64 69 72 75 76 79 79 82 83 82 81 82 83 84 86 88 90 94 94 94 91 85 81 79
31 34 38 41 44 46 48 50 49 49 48 50 46 51 52 48 46 48 51 54 59 61 64 61 64 66 67 60 60 62 68 70 73 77 82 83 84 85 86 80 76 76 74 73
30 33 34 36 38 39 40 40 43 42 40 37 36 32 34 33 33 37 45 47 49 44 43 52 56 54 56 55 54 56 56 58 61 61 61 64 65 65 68 68 69 72 70 69
25 27 28 28 28 26 26 26 25 25 27 26 28 27 26 27 31 28 35 37 35 32 40 48 48 43 44 38 34 34 37 41 44 44 45 46 46 46 49 48 47 45 46 50
25 26 26 24 21 23 25 25 24 24 24 24 25 24 25 21 23 27 28 29 29 29 37 40 40 40 35 27 20 20 23 23 21 20 20 22 25 26 23 25 28 31 35 37
23 23 23 22 23 23 22 23 24 24 24 23 23 20 20 21 23 27 27 28 29 28 32 34 33 32 21 19 12 8 5 5 5 7 9 11 12 13 16 18 19 20 24 28
24 23 19 21 21 20 23 24 24 24 23 20 19 18 16 18 23 25 24 25 24 25 26 29 28 28 20 15 16 17 16 16 12 18 26 25 26 23 19 18 18 18 20 24
22 20 19 20 21 22 23 23 23 23 25 21 18 16 18 20 25 21 24 22 23 18 22 26 20 24 21 18 19 22 22 25 27 30 30 26 21 18 17 16 18 21 23 26
17 17 20 20 19 21 22 25 25 28 27 24 23 20 20 23 26 23 27 21 20 16 19 20 16 16 19 18 14 15 22 23 21 20 21 22 19 15 12 14 17 20 26 31
16 19 19 16 15 19 21 23 24 31 31 30 27 22 22 25 25 28 28 21 17 15 14 11 15 11 11 13 15 12 10 9 13 12 9 6 8 8 10 13 18 23 26 29
17 19 16 13 14 18 23 22 25 28 32 31 30 25 26 26 30 33 28 20 16 15 12 12 8 9 8 6 8 10 8 8 6 1 3 4 3 4 10 15 17 22 25 27
18 18 15 13 15 20 22 23 20 22 26 30 30 28 26 23 28 28 20 18 16 11 12 10 6 5 5 5 2 5 2 5 4 6 3 6 10 13 16 19 24 27 30 34
19 19 16 16 18 20 26 25 23 25 27 29 29 31 29 29 30 28 18 19 18 14 10 10 12 11 9 7 4 4 5 1 4 4 6 9 13 16 20 24 26 29 33 37
23 21 19 19 22 24 25 28 26 28 30 30 31 31 26 28 28 25 18 19 19 17 15 12 9 10 11 11 11 10 9 9 11 12 14 16 19 23 26 29 31 34 38 43

GFSCGP_250_spd_048.txt.gz
Wind_Speed
117 120 107 92 99 107 103 100 100 101 96 91 90 87 87 87 82 83 83 80 80 80 83 81 79 78 79 80 81 81 79 79 78 78 79 79 77 77 73 73 70 71 69 71
110 118 119 104 93 96 98 97 97 95 93 89 86 78 79 85 84 87 82 82 81 79 82 84 81 78 78 80 81 81 81 80 78 79 80 80 79 76 78 76 76 75 74 73
104 111 116 117 100 90 92 93 91 91 90 86 83 81 81 82 82 81 83 83 82 80 80 81 77 77 77 78 80 82 84 83 82 80 81 79 80 80 81 80 82 84 83 79
100 97 103 111 115 97 91 88 90 90 87 84 81 76 80 80 80 78 77 76 75 76 77 78 78 78 78 80 81 82 83 83 83 82 82 83 83 83 85 87 87 87 86 84
87 92 95 102 106 109 94 90 89 88 86 82 81 75 81 79 79 79 78 77 76 76 75 77 80 79 78 79 82 84 86 86 88 89 88 87 88 89 90 91 93 92 91 90
83 86 91 96 98 99 98 95 91 85 84 80 80 80 80 84 83 81 80 79 80 79 78 80 81 82 83 84 86 88 89 91 92 94 95 95 96 95 95 97 98 99 99 98
73 76 81 85 91 93 95 96 92 88 85 81 82 80 80 81 83 86 84 82 82 83 83 83 85 87 87 90 92 94 97 99 101 101 102 102 103 103 100 101 103 103 103 102
69 71 73 75 77 88 93 91 91 90 88 86 87 87 86 85 87 85 84 85 87 89 89 90 91 91 93 96 99 101 102 104 106 108 109 109 109 108 108 108 109 109 107 101
63 65 69 71 73 75 80 88 92 91 92 91 87 90 89 89 88 87 87 88 89 90 92 94 97 99 101 104 107 109 111 114 116 116 117 117 120 120 116 113 108 101 96 93
56 60 62 69 69 71 72 71 72 78 81 83 90 95 94 94 92 90 91 93 94 94 96 99 101 102 104 106 109 112 114 114 114 114 114 112 109 107 106 104 101 99 98 96
50 55 59 63 66 65 62 64 66 70 70 73 79 80 80 78 76 76 75 76 78 79 80 81 83 86 90 94 97 100 103 104 105 104 104 103 101 98 97 97 96 95 96 95
38 45 53 55 58 63 64 64 64 68 69 70 72 70 70 68 68 69 68 67 67 69 72 75 79 82 86 90 91 93 95 97 97 98 100 98 96 95 94 92 89 86 86 84
34 37 46 53 54 57 58 58 56 54 56 61 64 64 62 66 69 64 65 66 67 68 71 73 75 75 76 80 84 87 89 90 85 84 86 86 87 89 92 90 87 85 85 85
33 34 37 42 46 50 53 54 54 55 55 55 56 57 55 60 60 59 52 54 56 59 58 60 63 68 72 77 77 76 76 72 67 68 71 75 75 72 70 72 75 76 76 78
36 35 33 34 38 43 47 50 51 53 51 54 50 53 52 50 45 45 45 45 46 48 50 52 53 58 59 59 60 58 56 55 54 53 55 58 63 65 66 66 68 69 71 72
29 34 34 34 35 37 38 41 43 43 45 42 42 41 37 34 31 33 36 38 41 44 42 42 43 40 49 53 51 48 41 38 36 35 35 36 40 44 49 54 56 57 59 62
24 26 28 30 31 32 33 35 34 33 34 30 28 24 22 26 27 29 33 35 33 34 31 33 31 37 46 44 41 35 27 21 21 22 24 26 27 28 31 31 34 37 39 41
22 22 22 22 22 24 23 22 21 21 20 20 21 22 26 25 26 27 34 30 30 27 29 27 29 33 36 37 36 34 28 22 22 18 9 2 3 5 5 11 15 16 13 20
19 17 17 18 19 18 18 18 19 20 21 23 26 28 27 26 25 29 27 23 23 24 25 25 26 29 27 30 29 26 18 13 18 20 22 19 20 20 21 18 15 17 14 11
19 19 19 19 20 19 18 19 20 21 22 26 29 25 27 25 26 24 25 21 23 23 22 26 23 23 20 25 25 25 14 12 13 11 18 20 22 19 17 17 16 15 12 7
21 20 19 19 19 19 19 20 22 22 25 30 27 27 26 26 24 27 30 25 24 24 19 23 21 18 17 16 19 16 17 14 11 11 11 12 12 12 11 10 8 5 6 7
20 20 18 18 17 18 20 23 24 25 28 29 31 32 29 27 23 26 31 31 28 21 18 18 16 19 14 11 12 13 13 15 15 13 11 11 12 13 12 11 10 10 10 12
17 17 16 16 19 19 20 21 22 26 29 32 34 35 35 29 27 25 26 31 26 21 17 15 13 17 16 11 11 12 12 13 7 7 11 8 6 9 10 11 12 14 16 20
17 16 17 20 19 19 16 19 24 28 28 28 32 38 38 33 31 29 30 35 23 21 18 16 11 10 11 10 9 10 13 11 9 9 7 8 10 11 13 15 18 20 23 25
20 18 19 19 17 18 19 21 24 26 26 29 30 33 33 31 30 29 30 31 21 22 18 17 16 13 12 11 10 10 10 10 11 11 12 12 13 15 17 19 21 24 27 31
25 20 20 19 19 21 21 21 25 26 26 26 28 29 31 30 27 23 26 29 25 21 20 19 18 17 16 16 16 15 14 14 15 16 16 16 18 21 24 27 29 31 33 35

GFSCGP_250_spd_051.txt.gz
Wind_Speed
111 112 115 117 114 112 111 108 107 107 104 99 94 92 92 91 90 87 86 85 83 83 80 81 78 75 73 73 74 76 77 77 78 76 76 77 78 79 77 77 78 78 77 75
102 104 109 118 123 111 111 109 108 106 103 101 98 91 93 95 93 90 88 88 87 85 82 82 80 78 76 77 78 79 80 81 81 80 79 78 80 81 81 79 79 79 78 78
96 101 103 111 116 117 100 101 106 106 104 102 96 91 92 96 94 90 87 87 85 87 84 83 80 79 81 81 81 80 80 82 84 83 81 79 80 80 82 82 84 83 80 80
92 95 102 104 113 116 108 102 98 101 101 97 95 92 98 96 91 89 87 86 84 81 81 81 81 80 82 83 83 83 84 85 84 83 82 83 83 82 84 85 85 84 83 84
87 93 98 101 104 108 111 104 98 91 89 89 89 88 94 91 89 88 88 85 82 81 82 78 79 79 80 81 83 84 85 85 84 84 85 86 87 86 86 87 88 90 89 88
80 84 89 91 98 104 109 104 95 93 91 88 86 82 86 88 82 83 83 82 80 78 83 82 82 81 81 82 83 83 85 85 87 88 89 90 91 92 92 92 93 94 94 95
75 79 78 81 84 90 98 105 100 83 81 83 87 88 87 86 84 79 79 77 78 80 80 80 81 84 85 86 86 87 88 90 91 92 93 94 95 96 95 96 97 98 98 98
67 69 71 72 76 80 86 97 102 100 80 79 83 83 83 85 83 82 81 82 82 79 78 80 81 84 87 89 89 91 93 95 97 99 100 101 101 102 103 104 104 105 105 107
60 63 65 66 68 69 73 80 93 101 103 90 81 81 82 85 86 86 84 85 86 87 88 88 89 89 90 92 95 96 99 101 103 105 106 108 110 111 112 113 113 112 112 114
54 56 60 61 62 63 68 76 79 86 94 100 100 93 86 83 87 86 88 88 86 87 89 89 90 90 92 95 98 101 104 107 111 113 115 117 118 118 118 119 117 116 114 112
48 51 56 58 61 63 63 68 69 73 77 81 90 94 98 94 92 91 92 90 90 90 90 91 93 95 99 102 103 102 102 102 103 105 106 106 105 104 103 102 103 104 103 103
42 44 50 52 55 57 58 58 62 63 68 78 83 85 86 87 88 92 93 92 93 94 93 90 87 85 83 83 84 86 89 91 93 96 99 100 100 101 100 98 96 94 92 91
36 40 44 49 52 53 55 55 57 62 68 70 69 71 74 75 78 78 78 78 77 76 75 75 73 73 72 74 76 76 79 79 82 88 92 93 91 88 88 89 87 83 82 83
32 33 38 45 49 51 52 54 59 62 61 60 60 63 64 65 65 64 65 66 68 69 66 67 65 66 63 58 58 64 67 73 76 79 78 74 74 76 74 74 73 70 70 70
29 29 29 34 42 45 52 52 54 57 58 59 56 57 56 53 51 53 56 56 56 59 61 58 52 47 46 50 56 60 60 60 59 61 58 52 51 54 56 59 63 64 66 64
27 28 27 28 31 36 43 47 48 49 53 53 56 54 52 48 48 47 48 52 49 48 44 38 39 42 43 45 47 46 40 37 39 43 44 35 28 29 32 34 39 45 52 56
27 29 29 28 29 32 35 38 40 42 45 48 47 41 43 44 45 45 45 43 36 32 32 32 37 35 37 37 34 36 36 38 38 38 35 28 25 22 21 20 21 25 30 32
19 24 28 29 28 27 27 27 28 30 32 33 32 33 34 36 39 37 29 30 28 27 24 29 32 33 27 28 28 28 26 28 32 36 33 32 27 22 17 14 11 10 9 11
18 20 22 24 25 25 25 26 27 29 29 28 29 29 29 31 29 26 28 29 27 19 23 28 29 30 24 25 26 21 22 21 22 25 26 25 26 26 22 17 17 16 13 12
11 13 15 16 16 17 18 20 22 23 24 26 27 29 29 28 27 27 28 26 27 25 25 31 26 26 23 22 24 20 17 17 17 21 21 23 24 24 22 20 21 22 23 21
15 13 14 16 15 16 18 20 23 23 25 26 28 29 29 29 29 27 27 28 28 29 23 24 23 23 21 19 21 17 16 17 16 14 17 19 20 18 19 19 19 20 21 21
19 19 18 17 17 19 22 23 22 22 22 23 28 31 31 30 29 28 25 27 25 23 26 22 22 22 19 19 21 20 18 16 18 22 17 13 15 18 19 20 21 20 20 21
20 20 19 20 21 21 21 20 19 20 22 27 31 31 33 34 33 29 28 29 23 26 25 23 21 21 19 17 17 19 20 19 14 14 17 16 15 18 20 21 22 21 20 19
23 23 21 22 21 21 21 20 21 22 24 26 27 30 33 34 34 33 31 30 29 29 21 23 21 21 19 18 17 17 18 18 18 14 15 16 15 16 16 16 17 19 21 23
25 22 21 21 22 21 21 21 21 22 21 24 26 29 31 34 33 30 27 25 26 27 24 22 21 20 20 19 19 17 17 18 19 19 17 15 12 13 16 19 22 24 26 28
26 22 20 19 20 21 20 21 20 21 23 25 29 29 29 30 30 28 28 25 24 28 27 24 22 22 22 22 21 20 19 20 20 19 17 14 15 18 21 24 26 26 27 28

GFSCGP_250_spd_054.txt.gz
Wind_Speed
101 111 118 124 127 123 117 118 118 117 113 110 105 100 98 97 95 92 88 87 85 81 80 78 76 77 79 78 76 77 76 77 80 80 77 75 75 77 78 79 79 80 79 79
96 101 111 119 126 125 120 117 118 117 114 110 105 102 102 102 99 96 93 90 89 87 84 81 80 79 76 77 78 80 82 83 85 84 82 81 79 81 81 80 81 83 84 85
86 92 100 113 119 124 123 121 117 116 114 111 107 105 103 102 100 97 96 94 92 89 86 84 83 82 81 82 82 83 85 86 86 85 85 83 83 83 85 85 86 87 86 85
81 85 91 102 113 119 121 121 120 116 114 112 109 105 104 102 101 98 96 94 93 92 90 89 87 85 85 84 86 86 90 88 87 85 85 87 88 89 90 90 90 89 88 87
76 81 85 95 107 112 118 120 120 119 114 111 108 107 103 102 100 97 97 97 93 91 90 89 90 90 89 89 87 87 86 86 86 89 87 89 88 89 90 89 90 90 90 90
70 75 80 86 95 103 109 114 117 116 116 111 108 107 106 104 102 99 96 95 94 94 94 92 91 91 91 92 90 89 87 84 84 89 92 91 90 91 91 92 93 95 96 96
67 72 76 79 87 96 101 104 108 113 110 111 107 106 105 103 101 100 99 98 96 94 94 92 91 89 86 84 82 83 83 89 93 91 90 92 93 94 95 96 97 98 99 100
61 63 67 69 78 82 90 93 96 101 103 101 104 102 103 102 101 97 95 94 93 91 89 87 84 83 83 84 86 87 89 92 91 92 92 93 95 97 99 100 101 103 105 106
53 56 60 61 66 72 78 86 91 92 96 91 94 94 89 88 93 94 93 90 86 84 81 80 82 82 86 85 86 88 91 93 92 93 97 101 103 105 107 108 109 110 111 113
46 48 50 52 55 64 72 81 86 88 91 95 94 92 91 92 91 90 89 87 86 84 86 87 86 85 87 89 91 94 95 98 100 100 103 105 108 111 114 116 117 119 121 119
41 42 42 45 49 50 59 69 76 85 84 90 90 89 88 85 84 83 83 84 85 85 88 89 89 90 91 93 94 96 97 100 102 105 108 109 111 110 110 110 111 111 110 110
37 39 41 43 43 44 51 60 65 75 85 86 86 89 91 87 79 82 76 76 78 83 83 86 91 90 90 94 98 100 103 103 103 98 97 98 99 99 99 99 99 99 100 100
36 38 39 41 42 44 48 53 57 61 64 73 81 83 82 84 90 92 91 86 83 83 86 90 93 94 97 102 100 99 96 91 86 84 82 83 86 88 88 86 84 86 87 89
34 36 39 41 43 44 44 46 52 60 64 67 67 69 72 74 75 77 80 84 90 94 92 87 87 89 87 82 81 80 77 74 70 69 71 68 69 75 77 75 72 72 73 73
32 32 34 37 41 43 45 46 49 51 51 53 60 64 66 64 66 67 66 67 70 72 72 70 69 72 72 69 66 63 59 58 61 58 55 43 38 41 43 45 48 49 49 48
28 30 30 32 37 40 42 46 45 48 52 53 54 56 61 62 61 61 62 63 63 62 63 65 60 57 58 55 49 48 50 51 49 46 40 33 37 36 37 35 30 30 30 31
27 29 29 29 31 36 42 46 48 49 51 52 51 55 56 58 58 57 57 55 55 56 54 52 50 45 39 40 39 44 43 39 37 36 34 30 32 36 35 34 31 30 23 20
20 23 25 27 27 29 32 37 41 45 49 48 49 51 52 53 51 51 51 52 53 51 46 40 34 31 34 37 37 37 37 32 31 34 29 27 28 27 28 29 31 30 29 27
15 18 22 26 25 24 25 27 31 35 39 42 43 43 42 42 43 45 46 44 42 38 33 29 29 32 39 35 35 34 34 28 29 29 29 27 27 25 24 25 24 24 25 27
17 19 19 21 24 24 24 25 26 28 29 31 32 33 34 34 35 36 36 33 30 30 27 28 30 34 38 38 32 33 30 24 25 26 24 24 24 21 20 23 21 20 22 22
16 17 19 23 25 27 28 29 30 30 32 32 33 33 33 32 31 31 32 31 31 26 25 26 27 26 32 32 30 29 28 24 25 27 28 22 21 21 20 20 20 21 22 24
17 20 21 21 20 21 22 24 26 26 26 27 28 28 30 30 32 32 31 31 28 26 27 27 28 27 26 29 28 29 26 24 24 25 23 22 22 21 19 19 19 21 22 23
19 20 20 22 21 22 22 23 25 25 27 27 29 31 30 31 32 32 33 32 28 28 29 29 32 27 27 27 28 26 25 22 21 23 22 20 21 22 21 18 18 21 23 24
23 21 21 22 22 21 23 25 24 23 23 25 26 27 30 32 33 33 33 32 34 34 33 30 32 28 28 28 28 28 27 25 24 23 22 21 22 22 21 20 21 23 25 25
24 23 24 25 23 23 25 23 22 22 21 23 26 29 32 31 31 34 31 32 34 31 28 30 32 30 29 29 28 29 29 28 26 25 25 24 23 23 21 22 24 26 28 29
24 25 27 25 26 25 25 24 21 20 20 23 25 28 29 30 30 31 33 31 27 28 28 26 30 30 30 30 31 29 30 29 28 27 25 24 24 23 23 25 26 30 32 32

GFSCGP_250_spd_057.txt.gz
Wind_Speed
97 107 113 118 129 128 127 123 126 120 114 111 107 105 100 100 98 95 92 86 83 81 80 77 76 75 74 73 73 73 74 74 72 76 76 75 72 78 81 85 86 87 88 89
95 100 108 116 123 131 127 121 124 123 117 114 111 107 104 105 100 96 93 91 88 84 82 80 79 76 76 76 77 78 81 80 78 78 78 79 83 84 86 87 90 93 94 94
89 92 100 106 117 121 130 125 122 125 120 117 112 110 109 106 104 100 97 93 91 89 87 84 82 81 81 82 83 82 81 82 83 84 86 86 89 91 93 96 97 99 98 96
85 87 95 98 109 113 121 130 124 121 124 122 116 114 110 108 106 104 100 96 93 92 90 88 87 85 84 84 84 85 86 87 89 89 91 93 94 97 101 104 106 103 96 92
75 80 86 92 98 108 112 125 126 124 124 122 121 117 111 110 108 107 104 101 98 95 92 92 93 90 89 89 89 89 89 89 91 94 97 99 101 102 103 101 99 97 99 95
71 75 79 82 84 93 109 115 125 125 124 122 121 120 114 112 109 108 106 104 101 99 97 95 94 93 93 93 92 92 91 92 94 96 98 100 101 103 99 99 97 94 99 102
67 69 71 75 77 83 95 109 116 124 126 125 120 119 115 112 110 107 105 106 105 103 101 99 98 96 95 94 94 94 95 96 97 99 100 102 103 102 98 97 97 99 101 101
59 64 69 72 73 77 85 99 108 112 121 123 123 120 113 111 111 111 108 105 104 102 101 99 97 95 94 94 96 97 98 100 101 105 105 102 101 98 98 97 98 102 101 104
48 54 59 62 64 70 77 85 95 104 110 117 121 119 117 112 109 109 109 109 109 105 102 99 98 98 98 98 100 101 103 104 105 102 97 97 94 97 97 97 104 107 110 112
40 45 48 52 54 60 66 70 77 86 98 106 111 113 114 114 113 112 111 109 108 107 106 105 103 103 101 100 99 100 99 96 94 93 93 93 97 99 101 108 111 116 118 120
30 34 38 42 45 49 55 61 67 77 85 93 97 101 102 105 108 108 106 106 108 108 108 107 104 103 103 101 99 97 94 93 93 94 95 97 100 103 107 113 118 112 110 111
27 29 32 35 37 41 47 52 61 70 77 83 86 86 88 89 91 93 95 96 95 93 95 96 97 96 98 95 90 92 91 95 92 94 96 99 104 108 115 108 103 99 101 102
27 29 30 32 33 36 39 45 53 63 72 76 80 79 79 79 81 82 84 87 87 83 80 80 83 87 88 90 89 88 89 90 94 95 100 105 110 100 95 87 81 82 87 86
28 29 30 31 34 35 38 42 47 55 64 73 78 78 77 79 81 79 79 81 84 84 83 84 84 87 88 85 86 88 89 92 98 104 106 92 87 81 71 70 70 73 74 65
28 30 32 33 33 34 34 37 44 53 60 63 72 76 74 73 72 76 76 76 79 81 84 85 85 84 87 89 93 98 101 96 87 83 75 72 69 64 60 54 51 48 50 53
27 29 31 32 34 36 38 38 41 42 47 55 59 69 77 84 81 75 75 78 80 80 83 83 79 81 84 80 76 74 71 69 69 64 60 61 59 54 51 46 47 47 47 48
26 29 30 32 33 35 39 41 42 42 42 49 57 60 64 66 73 84 83 82 80 77 75 77 74 68 67 66 63 61 60 59 57 50 54 53 53 47 41 43 42 38 40 38
20 22 26 28 29 30 35 37 40 43 45 46 45 50 56 58 62 66 70 71 70 69 66 66 64 59 59 56 56 52 52 50 47 48 50 49 46 40 37 35 32 29 30 34
15 20 23 25 27 28 29 33 37 40 43 47 46 48 50 53 55 56 59 65 66 64 63 60 57 52 49 47 46 45 49 47 44 47 46 42 37 31 34 29 27 28 27 28
18 18 23 26 26 26 27 30 32 36 39 43 47 48 48 51 52 53 50 49 48 49 51 50 45 43 38 37 39 41 48 47 44 43 39 38 34 33 30 27 25 28 28 27
21 22 22 24 28 28 28 27 28 28 33 35 38 42 45 46 45 41 38 37 38 41 40 37 34 30 32 33 36 40 44 42 39 38 37 36 35 33 28 25 26 29 29 28
19 21 24 26 26 28 32 31 30 32 31 31 32 34 37 38 39 36 37 36 34 34 33 31 31 31 32 35 37 40 40 37 36 35 32 31 29 30 29 29 29 30 28 28
20 20 21 24 26 29 29 31 32 33 33 32 32 34 33 33 33 33 32 31 32 32 32 31 31 32 35 37 37 35 36 35 33 33 32 29 28 28 28 31 31 31 29 29
23 22 22 21 23 23 25 24 24 25 26 27 27 26 27 28 28 30 31 32 34 35 35 33 33 38 36 36 35 35 34 33 33 34 33 32 31 31 30 32 33 33 31 30
28 27 26 24 23 24 24 24 25 26 26 26 26 26 26 26 29 32 33 36 37 38 32 34 36 32 33 36 35 34 34 33 32 33 34 34 34 34 33 34 34 34 33 32
32 29 29 26 27 29 29 29 30 28 27 27 26 26 28 28 30 35 37 38 37 34 35 36 30 29 30 35 34 34 34 33 33 34 35 37 36 35 36 36 37 37 35 34

GFSCGP_250_spd_060.txt.gz
Wind_Speed
98 100 102 107 113 117 126 128 126 125 120 116 108 106 101 95 94 94 91 87 84 83 85 84 80 78 78 79 78 77 79 79 74 71 70 68 71 74 76 78 77 80 81 83
91 96 101 106 111 113 120 126 128 128 121 117 113 107 104 98 95 96 92 88 85 82 80 76 78 78 77 77 76 77 76 76 75 72 72 73 78 80 81 81 82 84 87 89
86 90 96 98 103 109 112 121 127 125 120 120 116 110 106 101 100 98 95 93 89 86 84 81 80 79 76 77 76 76 75 75 77 78 79 80 79 82 87 88 89 93 95 95
82 85 90 92 95 101 106 114 125 123 123 123 121 113 110 105 103 99 97 96 92 90 87 86 84 83 80 79 79 79 80 80 81 82 83 84 86 85 88 94 96 98 100 103
68 76 81 87 89 95 101 108 119 120 126 127 123 118 112 107 104 102 99 97 94 93 90 88 87 86 85 83 83 84 85 86 86 88 89 89 92 93 95 97 101 103 105 106
67 69 75 79 83 86 91 102 112 122 124 125 125 123 118 113 109 106 103 101 99 96 94 93 92 90 89 89 88 88 89 90 90 91 92 94 96 98 98 102 102 105 107 109
63 65 70 75 78 79 85 92 104 114 121 121 124 124 120 117 112 110 107 105 103 99 99 98 96 94 93 93 93 92 92 92 92 94 96 98 98 99 101 102 105 107 110 113
58 61 65 69 71 72 76 86 95 105 112 118 120 120 119 116 118 116 113 109 107 103 101 101 99 98 98 97 96 96 97 98 98 99 98 98 99 102 104 106 106 111 113 111
50 54 58 61 62 65 69 76 85 94 106 115 120 120 118 114 116 117 117 115 111 108 105 103 101 101 101 100 101 100 100 101 101 101 103 104 102 104 106 106 110 107 112 111
40 44 48 51 53 55 60 67 75 84 93 106 113 120 121 120 119 118 115 114 115 113 111 108 106 105 104 103 102 102 102 103 103 103 104 106 107 108 110 113 111 110 106 105
28 32 35 39 42 46 52 57 64 72 81 92 103 108 110 118 122 119 117 115 113 112 112 112 110 109 108 106 106 106 107 108 107 107 109 111 111 112 112 110 107 105 104 104
24 26 28 31 34 40 47 52 57 62 68 77 86 97 104 106 109 116 117 115 113 113 113 112 110 109 108 107 107 107 107 108 109 110 110 112 108 103 101 98 99 101 102 105
24 24 25 27 30 33 38 45 50 55 62 67 74 79 89 96 99 102 105 108 110 112 113 113 111 111 110 109 110 109 110 110 109 106 101 96 94 92 94 96 99 103 108 99
22 23 24 27 29 31 34 36 40 46 52 59 65 71 80 83 89 92 93 94 95 98 101 103 105 106 105 103 102 101 96 94 90 88 89 90 91 93 98 101 103 94 86 77
22 23 24 25 27 31 31 33 36 40 45 50 56 65 71 74 80 83 81 83 83 83 84 85 84 84 84 81 79 79 81 83 84 85 86 90 94 98 95 86 80 73 68 65
23 25 27 28 28 28 30 33 37 38 42 47 52 59 65 71 76 75 74 73 72 73 75 75 75 74 73 75 76 79 80 82 84 88 91 89 85 81 74 71 66 61 59 56
18 22 26 28 28 30 32 36 35 36 39 43 49 52 57 65 69 70 70 68 69 69 72 73 75 76 78 75 75 79 81 84 85 81 80 76 72 67 60 59 58 57 52 48
15 18 21 25 28 32 35 35 37 39 39 42 46 49 53 54 62 68 71 69 68 68 71 74 74 75 77 77 78 79 83 81 77 71 69 67 60 53 53 54 52 50 46 42
13 17 20 21 26 29 31 34 36 38 41 43 42 46 49 53 56 60 71 77 73 68 70 73 78 80 80 78 82 75 69 66 64 61 58 56 50 49 49 50 46 43 44 39
17 17 20 23 24 25 30 29 31 36 38 42 42 42 46 50 53 55 58 61 67 72 69 67 68 71 74 73 71 66 58 53 50 49 52 53 46 45 44 45 43 42 38 37
20 22 21 22 25 27 26 26 27 29 36 38 42 46 48 49 50 52 54 57 61 61 62 63 61 58 55 52 51 47 44 44 44 47 51 49 46 41 40 39 38 37 37 38
23 24 24 24 26 29 28 27 29 30 31 32 36 40 43 46 48 48 50 51 52 50 49 49 43 40 40 37 36 39 41 43 46 48 45 44 42 38 36 36 36 36 36 38
25 25 23 24 27 28 30 31 30 29 29 29 31 32 34 37 40 44 46 47 46 41 38 37 37 33 31 33 37 40 42 44 44 43 44 40 38 37 36 37 38 38 38 39
28 27 26 23 24 27 29 29 32 35 33 32 31 31 32 33 34 35 36 36 37 36 34 33 31 31 33 35 37 42 42 41 41 40 38 37 36 36 37 38 38 40 41 41
33 30 27 25 24 22 22 27 31 33 34 34 33 34 34 33 33 33 35 36 35 33 32 32 33 35 35 36 37 40 39 38 40 36 36 35 35 36 37 39 40 40 42 43
34 31 30 26 28 24 25 23 20 22 24 25 27 28 29 29 29 30 31 31 33 32 35 37 37 37 36 38 37 36 37 40 38 37 34 34 35 36 38 39 40 42 43 44

GFSCGP_250_spd_063.txt.gz
Wind_Speed
100 103 107 122 123 116 115 118 122 124 120 119 114 111 108 102 96 94 93 93 89 87 88 86 83 81 80 81 81 79 77 78 78 77 76 74 75 76 78 74 70 76 77 78
95 97 109 118 121 117 113 112 113 120 122 122 120 115 111 104 99 95 94 92 90 87 85 82 82 82 82 83 82 82 81 80 78 76 73 71 72 73 71 73 76 73 75 76
86 96 102 106 115 117 113 109 112 114 120 119 119 116 114 106 103 100 98 93 90 88 84 81 81 82 82 82 81 81 80 79 77 74 73 71 70 71 75 78 79 81 81 82
79 90 96 100 103 110 115 117 107 106 112 117 121 119 117 112 106 103 101 95 91 88 85 83 83 83 83 80 79 79 77 76 74 74 74 76 77 78 79 80 85 87 88 91
73 77 88 96 100 102 108 106 105 107 106 109 118 121 118 115 109 103 102 99 96 91 89 86 86 84 83 82 80 78 78 77 78 78 79 80 83 82 82 84 87 92 95 97
72 73 78 86 89 91 92 94 103 107 105 106 111 118 120 117 113 111 103 100 99 97 93 91 88 87 87 85 83 82 82 83 83 84 85 85 85 86 88 89 89 93 96 101
63 64 71 75 77 81 81 85 93 99 98 102 110 112 114 119 117 112 109 105 101 99 98 96 93 90 89 88 88 86 86 87 87 87 88 88 89 91 93 94 95 95 99 102
52 57 64 65 64 66 70 75 78 85 89 100 114 105 108 116 117 115 115 112 107 101 98 97 96 94 94 95 94 92 92 92 92 92 93 92 94 96 97 97 100 101 102 106
44 46 50 54 56 59 59 60 66 73 80 92 100 103 104 108 113 116 117 115 111 106 103 100 98 97 96 95 94 95 95 96 95 95 96 98 98 97 96 98 101 105 107 111
32 41 50 57 56 52 51 53 57 64 73 81 87 100 107 106 112 116 118 117 114 112 110 107 104 102 99 98 98 98 98 98 98 98 99 99 99 101 102 105 106 108 112 114
26 31 37 42 43 45 48 50 54 59 65 73 81 85 97 110 113 114 115 115 117 115 114 112 108 105 104 104 103 102 102 102 101 102 102 102 103 105 106 107 111 111 113 115
24 29 33 36 38 42 43 45 50 54 59 66 70 76 84 97 106 112 114 115 115 115 115 114 113 112 111 110 108 108 107 107 106 106 107 108 107 109 110 110 112 113 112 107
22 26 29 31 32 35 38 42 47 52 57 61 66 69 77 85 96 102 109 112 113 113 112 112 111 111 111 110 109 109 109 108 107 107 109 110 109 109 111 111 109 103 94 92
23 26 29 31 32 35 37 39 44 48 52 57 60 66 71 76 83 92 100 108 111 112 111 111 111 111 111 111 111 112 111 111 110 108 109 112 111 107 100 96 87 87 88 91
21 24 27 28 30 33 35 36 39 43 47 49 53 59 65 69 74 82 88 95 101 105 108 109 109 108 107 106 104 105 105 107 105 102 95 91 87 83 80 81 84 87 91 91
21 25 30 31 32 33 34 35 36 39 41 47 49 55 60 65 69 74 78 83 88 92 96 99 99 98 96 92 90 90 88 84 81 79 75 75 76 77 81 85 86 85 85 80
17 19 24 27 30 33 35 35 35 38 40 41 47 51 55 60 64 67 72 77 79 82 82 83 84 84 83 80 79 76 72 72 73 72 73 77 78 79 82 84 85 82 73 67
16 19 21 24 26 28 32 34 36 39 39 41 45 47 52 57 58 61 66 67 71 73 72 69 69 69 68 66 64 66 69 71 70 72 76 79 81 82 83 83 75 68 60 57
13 17 22 24 24 29 32 34 37 38 39 41 42 46 48 52 53 54 56 61 64 67 69 65 60 60 59 61 62 64 68 74 76 80 79 81 84 83 77 70 63 53 51 51
16 17 17 21 24 28 29 30 32 34 37 40 44 46 47 48 50 50 51 53 55 62 65 68 64 59 61 63 65 69 69 74 72 78 82 77 76 71 64 58 53 50 47 46
20 19 20 20 22 27 25 28 31 33 36 38 42 44 43 43 45 46 48 49 49 50 54 59 64 67 65 65 67 68 71 74 71 68 65 64 59 57 52 50 48 46 43 43
24 22 22 24 24 23 24 27 28 29 30 32 37 41 44 42 43 44 46 47 48 49 50 51 53 55 57 59 60 61 60 55 53 54 52 51 51 49 48 47 47 44 42 42
28 26 24 25 26 27 25 26 28 28 29 30 32 36 40 43 48 47 47 47 49 50 52 53 54 53 51 50 49 44 45 44 45 45 46 48 46 44 45 43 43 42 42 42
29 29 27 26 26 27 28 28 31 33 32 30 30 31 34 38 42 44 47 50 51 49 50 49 49 47 45 41 40 39 38 39 40 44 46 44 40 40 40 42 42 41 41 42
31 31 29 29 29 28 29 30 32 32 33 34 33 32 32 33 34 36 38 39 40 43 46 47 46 41 39 39 35 36 38 37 39 46 45 40 40 39 38 39 39 40 42 43
31 33 34 31 32 32 30 28 26 29 31 31 33 35 35 34 34 35 34 34 34 36 38 39 38 39 37 35 36 37 37 39 42 43 42 41 39 38 39 38 38 39 40 41

GFSCGP_250_spd_066.txt.gz
Wind_Speed
93 91 90 97 107 114 117 120 121 123 123 122 119 115 112 108 102 98 93 92 90 87 84 83 81 79 80 80 79 78 78 76 74 73 73 74 75 75 75 75 76 76 76 75
84 85 93 98 106 114 116 119 118 123 124 122 123 117 116 112 104 102 97 93 93 88 84 82 82 81 81 81 82 81 79 78 77 77 76 76 75 75 76 76 76 76 74 74
71 83 88 95 101 111 116 119 119 121 121 118 120 120 117 110 105 102 99 96 92 92 89 85 82 82 81 80 80 80 80 79 78 78 79 79 79 80 79 78 76 75 73 74
73 81 86 93 99 108 115 116 114 114 114 116 119 117 116 114 109 105 104 100 94 89 89 88 88 86 84 83 81 80 80 80 79 77 75 74 75 77 79 77 77 77 78 80
70 76 82 88 97 102 115 111 111 111 112 111 112 114 114 115 111 105 105 103 99 93 90 88 87 88 87 87 85 82 81 81 80 81 81 80 78 75 74 74 77 78 82 85
69 73 79 84 90 97 108 114 113 109 104 103 104 106 110 110 107 111 109 106 103 100 96 94 92 90 89 88 86 85 85 83 82 82 81 81 80 79 79 79 81 84 87 89
60 68 72 78 84 88 94 109 111 101 94 93 101 103 99 107 109 109 110 110 107 103 101 100 96 95 92 90 89 87 86 85 85 86 85 85 85 85 85 87 88 89 91 92
45 53 62 68 75 84 89 93 98 93 97 105 103 89 92 98 100 104 107 109 110 108 106 104 101 99 98 96 93 91 90 87 86 85 85 86 86 87 89 90 91 93 95 96
30 51 58 63 67 71 76 82 82 82 91 104 103 93 95 94 93 95 101 108 111 112 111 109 106 104 102 100 97 95 94 92 91 91 91 91 91 91 92 93 94 96 99 102
28 35 46 53 58 61 65 67 67 73 83 98 110 107 109 108 102 97 98 101 105 111 113 114 112 108 105 103 101 99 99 97 96 96 95 95 95 94 95 96 98 100 102 104
31 34 38 43 48 54 55 55 54 58 67 83 91 100 123 115 111 113 108 101 99 101 104 111 113 112 109 107 104 102 101 99 98 97 96 96 96 97 98 100 101 103 105 108
30 31 33 40 46 51 53 55 51 56 61 64 72 82 93 105 115 123 122 116 113 103 100 101 105 111 112 111 108 105 103 102 101 100 100 99 100 101 101 103 105 108 110 112
24 25 29 35 38 40 42 50 55 55 55 59 65 73 80 86 90 94 103 109 114 115 108 100 98 102 109 112 111 110 108 106 105 104 104 105 105 106 107 109 108 110 112 113
21 22 25 27 32 36 41 45 49 51 52 54 59 67 71 74 77 81 86 92 94 97 103 102 99 98 100 105 108 108 109 109 109 109 107 108 109 109 109 110 111 113 114 108
21 24 27 28 31 35 37 41 44 47 49 49 55 60 64 67 69 74 77 81 85 87 90 96 101 103 98 97 100 102 105 106 106 107 108 107 107 107 109 110 107 99 92 87
20 24 26 28 32 34 37 39 40 42 44 48 52 56 59 62 65 67 71 75 80 83 85 88 92 95 98 98 98 98 100 103 104 104 105 106 106 105 102 97 88 82 78 76
18 21 26 29 32 35 36 39 41 41 42 41 46 52 54 57 60 63 65 67 71 75 78 80 84 86 88 89 90 92 93 96 97 98 98 94 91 87 84 77 75 75 75 77
18 22 24 27 31 33 37 38 38 40 39 40 43 45 50 55 57 58 60 63 65 69 71 74 77 79 81 82 84 84 85 86 85 84 78 75 73 69 70 73 74 76 78 82
13 15 20 26 29 35 38 38 39 39 41 44 45 47 50 51 52 54 57 60 62 64 66 68 70 72 73 74 74 72 68 64 60 59 60 60 63 67 69 74 77 78 78 78
17 16 16 19 25 31 33 35 37 40 42 44 45 47 50 50 50 52 53 54 56 58 60 62 65 66 68 71 65 61 58 57 55 55 60 63 65 68 73 75 74 74 68 61
21 21 19 20 21 24 27 30 34 37 39 41 43 44 47 49 49 51 52 52 52 53 54 56 58 60 61 64 63 61 56 57 60 59 60 62 68 69 75 72 66 61 54 50
25 25 24 23 21 23 23 25 30 32 35 37 40 42 45 45 45 46 48 47 47 49 50 50 50 49 50 55 62 65 63 64 66 67 64 69 66 62 59 58 55 50 48 47
27 26 26 26 24 22 23 27 27 30 32 34 36 38 40 42 45 46 44 42 43 44 43 43 44 43 42 44 46 49 52 53 52 53 56 54 52 52 51 50 47 47 44 46
28 28 28 29 27 26 25 26 28 28 31 33 34 35 36 38 40 45 48 47 44 45 44 42 42 43 43 47 47 48 51 52 51 49 45 45 45 46 49 49 46 42 43 45
29 29 31 32 31 31 28 25 27 31 31 32 33 32 32 33 35 37 40 44 47 48 47 45 45 46 46 48 47 47 48 46 47 43 42 41 43 47 49 49 44 41 43 43
30 31 33 34 35 35 32 30 29 29 30 33 33 33 33 33 33 33 34 36 39 42 45 46 49 51 54 51 49 51 51 45 42 40 40 42 45 47 48 47 44 42 42 44

GFSCGP_250_spd_069.txt.gz
Wind_Speed
77 78 74 74 86 95 103 109 112 113 115 115 118 113 114 120 112 105 99 93 88 87 86 83 82 81 81 81 80 79 78 78 77 76 76 75 73 73 73 73 73 73 73 74
75 72 80 81 87 95 101 107 109 115 119 116 120 119 118 123 116 107 102 98 94 88 86 84 82 81 83 83 83 82 81 79 77 76 76 76 77 76 74 74 75 76 77 77
71 73 77 79 82 92 100 106 111 115 116 116 119 123 124 121 117 111 105 102 99 92 88 86 84 82 82 82 82 82 81 81 80 79 78 78 77 76 77 78 78 79 78 78
70 73 73 76 80 90 97 104 108 113 116 116 119 120 122 122 119 113 108 105 102 99 93 90 89 87 85 83 82 81 79 79 79 78 78 78 78 79 79 78 79 79 79 79
67 70 71 74 79 85 94 100 107 110 115 117 116 116 117 120 116 113 110 108 106 102 99 96 91 90 89 88 86 84 81 79 78 78 78 78 79 79 80 80 82 84 84 85
62 64 66 70 76 82 89 95 103 109 114 112 114 114 114 114 112 113 113 111 108 106 103 101 97 94 93 92 90 88 85 83 82 81 80 80 80 80 79 80 82 83 85 86
47 52 60 66 71 78 84 90 97 104 112 111 112 112 111 113 113 112 110 110 109 107 105 103 102 99 95 94 92 90 88 86 85 85 85 85 83 83 83 82 82 83 83 85
30 39 54 61 66 71 80 85 90 97 105 112 107 103 107 112 109 108 109 108 107 106 106 105 103 101 99 97 96 94 92 90 88 87 86 85 85 85 85 85 86 87 89 88
27 41 52 58 63 67 74 79 85 90 95 97 96 96 104 105 102 101 100 104 107 107 109 110 108 106 104 102 100 98 96 95 94 93 92 90 89 89 89 88 88 89 90 92
13 25 38 52 59 60 63 72 76 82 87 87 90 92 101 106 105 102 99 101 103 105 107 109 108 108 108 107 105 103 101 100 99 98 97 96 95 95 94 95 95 95 96 98
16 22 26 36 44 53 59 61 68 74 76 85 93 101 105 110 102 100 99 98 95 94 96 100 102 102 105 108 109 108 106 104 103 102 101 100 99 98 98 98 98 99 100 99
23 24 27 31 45 53 57 59 58 60 67 78 91 117 111 117 108 101 102 95 89 88 92 92 89 91 95 100 105 108 108 109 109 107 106 105 104 102 100 100 99 99 99 101
24 28 35 38 43 46 52 57 58 60 65 65 75 93 104 121 115 115 110 104 103 96 95 91 86 86 87 89 93 94 97 99 100 103 105 107 108 108 106 106 105 105 105 105
22 27 31 36 41 48 53 59 62 61 58 65 65 74 82 94 107 117 117 119 119 112 104 98 95 92 89 90 89 88 90 94 96 98 97 98 99 102 104 105 106 107 105 106
18 24 27 31 36 42 47 48 51 55 60 56 63 64 69 75 79 86 92 95 100 112 117 112 112 112 106 100 99 101 102 101 101 102 101 98 98 98 97 99 101 102 104 106
14 18 24 29 32 35 39 42 44 47 49 49 55 60 65 69 72 73 76 79 82 87 90 92 93 95 106 113 113 112 109 108 109 106 103 102 104 106 100 97 103 108 103 100
15 17 20 22 26 30 34 38 41 42 44 45 48 55 59 62 65 69 70 71 73 76 79 81 83 86 88 91 93 93 93 91 89 89 92 94 97 99 98 99 94 91 90 88
14 17 20 22 24 28 31 33 37 39 40 43 49 52 54 56 60 62 65 67 68 70 71 73 77 80 82 82 82 81 81 81 81 81 82 82 82 80 83 84 79 80 77 72
14 14 17 22 24 29 31 33 36 38 40 42 45 47 50 51 52 57 61 63 64 66 66 68 69 72 71 70 71 72 71 73 73 73 73 73 72 71 71 66 61 60 60 62
20 19 18 18 22 28 30 31 33 35 37 41 43 45 47 48 50 53 55 58 60 61 61 63 64 65 64 65 66 67 68 68 66 69 68 65 59 54 52 54 54 59 62 66
24 25 24 22 21 22 25 29 34 37 38 40 41 42 45 46 47 46 50 52 54 55 56 58 61 63 63 62 64 65 65 63 59 60 61 56 51 55 55 56 59 61 65 69
27 27 26 28 27 24 25 25 28 34 40 41 42 45 47 48 49 47 50 49 49 50 49 50 51 54 56 58 59 60 61 62 60 60 58 57 56 54 55 58 64 63 66 65
28 28 28 29 29 29 28 27 27 28 31 37 40 44 47 48 48 48 47 47 47 49 46 46 48 48 47 47 48 49 50 51 48 47 57 58 54 58 63 61 57 60 56 53
29 31 30 30 30 31 31 29 28 29 30 30 32 36 39 42 44 46 46 44 44 45 44 41 42 41 41 44 45 44 42 39 39 42 46 50 53 53 53 56 56 52 49 49
30 31 32 34 32 33 31 30 32 30 29 30 32 33 34 36 38 39 40 41 42 45 45 45 43 42 40 39 39 40 40 40 42 44 46 50 51 51 51 51 50 47 48 48
29 32 33 35 35 35 33 34 34 33 31 29 29 32 33 33 36 36 36 37 38 41 45 48 48 45 42 42 42 42 43 44 47 50 52 52 52 51 50 48 47 47 49 49

GFSCGP_250_spd_072.txt.gz
Wind_Speed
73 76 70 75 81 81 87 95 102 104 107 110 109 108 104 106 112 110 106 101 97 93 90 90 85 85 82 79 78 76 74 73 71 70 71 71 72 71 72 71 70 72 73 73
69 71 73 76 81 81 84 93 99 104 110 108 109 107 106 105 110 114 112 106 102 96 89 87 85 82 83 84 83 81 79 77 76 75 75 75 76 76 76 76 76 75 75 75
63 71 68 72 74 77 83 90 98 103 106 109 109 109 106 106 107 114 115 110 105 97 91 88 86 84 82 82 83 84 83 82 81 80 79 78 79 79 78 77 76 76 77 77
60 65 65 71 72 73 79 88 95 100 104 106 110 108 106 107 109 110 114 114 109 104 98 94 91 88 86 85 84 83 82 82 83 82 81 81 80 80 79 79 80 79 78 78
53 57 62 67 71 73 75 83 90 96 101 106 110 107 106 108 107 106 109 116 115 108 104 100 97 93 91 88 86 85 84 83 81 79 79 80 80 78 77 77 77 77 77 78
50 55 63 65 71 70 74 77 82 89 98 102 105 104 109 108 108 108 111 113 112 115 110 104 100 97 96 93 90 88 86 85 83 80 79 79 78 79 79 79 79 80 80 81
45 50 56 61 65 67 68 71 77 84 91 97 101 101 107 109 107 108 109 112 110 108 111 108 106 103 99 97 94 92 91 89 87 85 83 83 83 82 82 82 82 83 84 85
38 41 48 54 60 64 66 69 72 80 86 94 100 98 104 109 107 110 108 110 110 105 106 111 112 109 105 101 99 98 96 94 92 89 87 86 85 85 85 85 86 85 85 85
26 28 38 51 57 62 63 66 70 76 83 89 95 96 100 107 108 108 107 106 109 108 105 102 108 110 109 107 105 102 100 99 97 95 93 91 90 88 88 88 88 88 89 90
14 21 28 42 51 54 59 65 67 71 78 82 86 92 98 102 108 105 104 104 106 106 106 104 102 103 107 108 106 104 102 101 101 100 98 97 95 94 93 93 94 94 95 96
15 19 22 29 39 50 55 59 62 68 74 78 80 88 95 101 105 107 103 104 105 107 105 100 100 99 101 104 106 107 106 104 104 103 102 101 100 100 100 101 101 101 101 102
21 23 20 27 39 49 54 57 59 62 67 75 77 80 101 103 103 106 106 104 103 103 101 99 97 98 99 99 102 104 104 104 103 104 104 104 105 105 106 107 106 106 106 106
23 25 28 33 35 37 42 48 53 57 63 68 74 76 96 96 109 103 104 104 100 93 89 90 92 90 90 92 93 94 97 100 104 105 104 104 105 104 105 107 108 108 108 106
12 23 29 37 41 45 48 55 59 64 63 63 66 80 85 94 92 97 102 99 103 93 81 84 88 84 85 88 88 86 88 92 91 92 93 95 97 98 99 99 103 103 102 100
11 15 22 29 36 43 49 55 63 63 63 60 65 69 78 81 84 91 91 94 98 106 104 95 87 92 90 80 83 85 82 84 84 87 87 88 86 88 87 88 89 93 95 97
11 13 16 22 27 33 39 46 52 56 58 60 69 67 74 71 75 77 80 86 86 89 96 107 103 102 91 86 85 85 86 88 90 92 90 92 94 94 93 93 92 96 101 98
11 13 15 18 20 25 31 36 41 48 52 55 56 65 65 67 68 71 71 73 77 81 85 86 88 92 94 94 93 93 94 93 93 95 95 97 97 99 98 98 102 104 95 90
12 14 16 17 19 24 26 28 32 37 42 45 48 54 56 59 61 64 66 68 70 70 71 75 77 76 76 77 79 79 81 81 82 82 86 86 86 86 87 89 87 84 82 79
15 16 16 19 20 25 25 26 29 34 36 39 43 45 47 49 50 55 55 57 62 65 67 68 70 70 70 70 71 71 73 74 74 76 78 79 80 79 77 77 75 71 65 65
21 20 21 20 20 24 25 25 27 30 30 35 38 40 42 45 49 47 47 51 55 57 59 62 65 66 68 68 69 69 69 69 70 70 70 70 69 68 67 63 59 62 59 55
26 24 25 24 25 25 22 24 27 29 33 34 35 37 40 42 42 42 45 48 50 54 56 58 59 62 62 63 65 66 66 66 63 62 62 63 61 59 57 56 56 53 51 49
30 29 28 29 29 27 28 26 25 27 32 34 35 37 38 38 39 40 41 43 45 47 47 48 49 51 53 56 59 59 59 59 58 58 59 59 58 57 54 51 54 51 53 55
33 33 32 32 32 32 31 31 29 29 30 31 32 33 36 39 41 43 44 43 43 43 43 44 45 43 42 44 46 50 51 54 55 56 59 59 60 59 62 59 55 57 57 53
34 35 35 33 32 33 33 33 34 35 32 33 33 33 35 39 41 42 45 45 44 44 46 45 44 45 44 41 42 43 43 43 44 44 46 47 50 52 51 46 47 52 54 54
32 34 36 36 34 35 35 35 36 37 38 36 34 35 36 36 38 40 42 44 46 46 45 44 46 45 45 41 39 38 40 43 45 45 45 44 44 44 42 42 46 51 51 52
31 33 35 37 35 38 36 36 38 38 39 39 37 35 36 36 36 35 37 37 38 39 40 41 42 44 46 44 42 40 39 38 39 40 41 41 40 40 42 45 49 51 55 56

GFSCGP_250_spd_075.txt.gz
Wind_Speed
71 75 72 77 79 81 89 95 100 104 104 104 104 103 102 103 101 99 103 103 97 95 92 90 88 87 81 80 76 67 63 63 66 70 69 67 66 65 65 63 61 61 61 64
63 68 74 77 79 82 85 91 96 105 104 106 104 103 102 100 101 100 100 104 101 97 96 93 92 90 88 82 79 77 74 70 69 68 69 69 70 69 68 67 67 67 68 70
54 64 67 72 74 76 83 88 92 99 106 105 104 103 98 96 97 100 100 103 105 100 98 97 94 92 88 86 85 83 79 78 74 72 71 71 72 73 73 72 72 72 74 75
55 59 66 68 73 74 79 85 87 90 97 102 104 99 98 100 99 98 98 98 105 106 102 99 97 93 90 87 86 85 83 83 83 81 78 76 76 77 77 76 76 77 77 77
46 54 62 63 69 72 76 79 81 82 88 94 99 98 98 101 98 96 97 98 104 110 109 105 102 98 94 91 89 87 86 85 83 81 81 81 79 79 79 79 78 78 78 78
42 49 54 64 66 70 73 74 74 74 80 84 92 94 100 100 99 100 100 100 102 104 109 110 106 104 101 97 94 90 88 86 86 84 81 79 79 78 78 78 77 77 77 77
38 43 52 58 62 66 68 68 68 70 73 79 86 88 101 99 97 100 100 100 102 104 104 107 111 108 107 103 97 93 90 89 88 86 84 82 81 81 81 82 81 81 81 80
32 38 45 53 56 59 63 64 62 62 67 75 83 86 94 96 97 99 98 99 102 104 104 105 110 113 111 107 103 101 96 94 92 91 88 86 85 84 83 83 83 83 83 84
21 31 35 41 50 54 58 61 61 62 66 72 75 81 87 93 95 95 96 98 101 104 103 103 104 105 111 112 110 106 103 100 97 96 93 91 90 89 88 88 88 89 89 89
14 23 31 37 45 51 54 60 60 62 64 67 71 77 82 88 94 97 96 95 99 102 105 104 103 104 103 109 112 111 108 106 104 101 99 97 95 95 94 93 93 94 94 95
14 14 19 27 37 47 53 54 57 61 62 64 67 72 77 82 90 95 97 98 99 100 101 104 106 102 101 100 101 108 111 108 105 104 103 102 101 100 99 98 97 97 98 99
17 19 22 29 34 40 46 49 53 56 59 62 66 69 73 76 82 90 94 97 97 98 99 102 104 102 101 99 96 97 99 106 113 112 110 108 106 105 105 104 104 104 104 104
20 24 26 29 33 38 43 50 53 56 60 61 63 65 70 75 79 83 87 92 95 96 97 97 95 98 96 98 97 95 93 93 95 102 109 111 111 110 110 108 107 107 106 107
17 25 29 34 38 42 46 53 55 58 57 62 58 65 74 75 76 80 83 91 94 96 97 99 98 93 90 86 87 89 90 91 92 94 95 97 98 100 102 105 106 106 108 107
10 17 28 32 35 42 47 53 58 58 62 61 63 65 73 78 76 81 83 88 92 93 92 90 90 91 90 85 81 82 84 84 86 86 84 87 88 90 90 92 94 94 95 95
12 13 16 21 27 31 43 50 55 60 65 64 67 68 78 76 72 75 78 79 82 83 81 82 83 82 85 87 76 75 73 75 75 75 74 76 79 81 82 85 85 88 89 90
14 16 17 19 19 23 32 34 43 50 55 57 59 66 71 66 67 68 70 73 77 78 78 79 84 85 89 91 87 81 78 79 80 81 85 86 81 80 81 85 85 86 85 87
18 18 18 18 19 23 24 25 30 35 40 45 52 58 62 63 64 66 64 65 68 72 76 78 80 81 81 81 79 76 75 71 72 75 76 78 81 81 81 80 82 83 81 82
21 21 21 21 21 24 24 24 25 26 25 29 35 40 46 50 54 59 62 60 61 63 67 70 72 73 74 74 72 70 68 68 70 71 73 72 72 73 74 75 74 74 74 76
23 23 24 24 24 25 22 23 25 25 25 28 30 32 34 38 44 41 44 47 50 55 59 63 65 65 66 66 65 64 63 64 64 63 63 64 65 65 66 66 66 67 68 69
25 26 26 26 26 28 24 23 24 26 29 30 30 31 31 33 36 33 36 39 40 44 47 49 53 56 57 59 61 61 61 61 61 62 62 62 63 63 64 64 63 64 62 55
26 28 27 28 31 31 28 28 26 25 27 29 32 32 34 35 35 34 34 36 38 36 38 40 42 45 47 48 49 52 55 56 57 58 59 58 59 58 57 56 56 54 53 52
28 27 29 28 32 34 33 32 32 32 31 30 30 30 33 36 38 38 38 37 36 37 37 37 39 39 38 39 40 39 39 42 46 49 52 54 55 54 54 53 53 55 54 49
31 30 30 31 31 33 37 37 38 36 35 36 35 33 33 33 35 37 38 38 37 39 39 40 39 39 40 41 41 41 40 38 39 41 43 44 46 48 51 54 56 58 57 56
29 32 30 33 32 34 37 39 39 40 40 39 39 38 38 36 34 35 35 36 37 38 39 41 42 42 43 44 43 42 41 39 39 40 41 42 42 42 42 43 44 45 50 53
30 31 31 35 33 37 38 39 40 41 43 42 41 40 40 40 39 36 36 37 36 36 37 38 38 39 40 42 42 43 42 42 38 38 37 38 41 43 45 46 47 46 47 46

GFSCGP_250_spd_078.txt.gz
Wind_Speed
75 76 79 83 87 88 87 94 96 97 99 101 100 104 106 105 102 100 100 102 102 101 99 95 90 85 82 80 79 74 73 66 60 62 63 66 66 64 65 64 62 62 63 63
70 75 75 81 84 85 86 90 95 99 100 101 101 99 99 102 102 101 101 101 104 104 101 99 94 90 87 84 83 80 74 64 60 62 63 65 65 67 70 69 67 67 68 68
65 68 73 77 80 82 84 86 91 97 99 99 99 99 98 99 100 104 101 98 101 101 103 103 99 95 91 88 86 83 80 77 77 71 66 64 65 66 68 70 71 72 72 70
63 69 70 71 76 79 81 84 88 91 93 97 99 97 98 101 100 99 101 101 97 99 102 104 103 99 96 94 91 88 85 84 82 80 79 76 73 73 71 71 71 69 70 71
58 62 67 70 72 74 74 79 83 86 86 88 93 95 96 99 100 98 98 99 100 99 99 102 105 104 99 96 95 93 89 88 88 88 87 86 84 83 80 75 73 73 72 71
54 60 62 65 67 68 74 76 78 79 81 82 86 91 98 99 100 99 96 95 96 96 97 98 103 106 106 102 98 96 95 92 92 91 90 88 87 85 83 82 82 82 81 81
44 48 56 62 66 70 71 73 73 74 76 76 78 83 98 98 98 98 97 94 92 96 98 99 100 106 108 107 105 102 98 96 93 92 91 89 87 86 85 86 85 84 84 83
37 46 51 55 60 65 68 69 68 68 70 74 75 78 86 94 97 98 95 94 94 95 97 99 101 103 109 111 109 106 103 99 97 96 95 93 91 90 89 89 88 88 86 84
27 35 43 50 57 59 60 63 64 65 69 74 72 75 78 85 90 97 96 95 94 95 96 97 100 103 105 112 112 109 107 105 103 101 99 97 95 94 93 92 90 90 89 88
27 34 39 44 49 54 56 60 64 66 68 69 68 72 71 78 83 87 93 98 98 98 98 100 100 102 105 107 112 113 112 110 108 106 104 102 99 98 97 96 95 94 94 94
18 27 35 38 43 49 54 56 59 63 64 65 66 69 68 72 76 80 84 90 94 96 98 100 101 102 104 107 108 109 112 114 113 112 110 109 107 105 103 101 99 98 99 99
18 25 26 32 39 44 49 54 57 59 61 64 65 66 67 68 73 77 82 85 91 92 95 96 97 100 102 104 107 109 109 109 109 110 112 113 112 111 109 108 105 104 104 103
11 23 29 34 38 41 46 51 55 58 61 61 64 65 67 68 72 74 77 81 85 89 90 91 94 97 99 100 101 102 105 107 107 106 107 109 111 112 114 113 112 110 108 108
12 16 27 33 38 41 46 51 54 54 54 60 59 66 71 71 71 70 72 76 80 85 89 89 91 93 96 94 95 97 98 99 102 104 104 105 106 108 111 114 116 117 115 114
12 15 21 28 36 40 46 50 55 57 62 59 65 64 72 74 70 68 72 75 80 83 86 87 88 89 90 89 90 92 92 95 97 97 97 98 99 100 98 100 102 101 102 105
13 15 20 25 31 37 43 46 52 55 59 59 65 62 73 74 68 68 70 75 75 78 80 82 84 86 86 85 85 86 88 89 88 88 87 88 90 91 87 91 92 91 94 93
14 15 18 23 27 32 38 41 43 50 55 59 61 68 70 71 67 65 67 69 72 74 73 76 79 80 81 81 80 80 79 79 79 80 82 81 79 77 77 82 85 93 94 94
17 17 17 19 24 28 31 31 36 39 44 48 54 60 64 67 64 62 65 65 66 67 69 73 75 76 78 79 78 78 77 79 82 81 82 78 75 76 78 79 80 82 86 85
21 20 21 21 21 25 24 27 29 31 32 37 43 48 53 56 58 62 59 59 60 61 64 66 68 71 73 75 77 77 77 78 77 74 71 69 70 73 76 77 78 79 78 78
24 23 23 23 24 25 24 24 27 29 31 35 36 38 40 43 49 49 51 55 55 56 59 61 64 65 66 68 69 70 72 72 72 69 68 67 68 69 70 70 71 70 70 71
26 27 28 26 27 29 25 26 26 28 32 32 34 35 36 36 38 35 37 41 42 45 48 52 55 59 61 63 66 67 66 65 65 65 64 64 63 63 63 62 62 62 63 65
28 26 28 29 30 32 29 30 30 30 32 32 32 32 34 35 36 35 33 35 36 37 39 40 41 44 47 51 55 57 59 60 61 62 62 62 63 64 63 61 61 62 63 65
38 30 28 30 32 34 35 33 34 34 33 33 33 33 32 33 34 35 34 37 37 37 38 38 39 39 41 43 44 45 46 47 47 50 53 56 57 59 59 58 58 59 59 58
39 36 33 33 30 32 38 38 36 36 36 36 37 36 37 35 34 34 34 36 38 39 40 41 41 40 40 41 42 43 43 43 44 45 46 46 46 49 51 53 55 56 56 56
40 36 33 35 34 33 38 40 40 39 39 39 40 40 41 40 39 38 37 36 36 38 40 40 41 43 43 43 43 43 44 46 46 46 45 44 44 45 47 47 47 48 50 52
44 40 37 36 33 34 39 41 43 43 42 42 42 42 44 44 43 42 41 40 39 39 40 40 41 42 43 43 43 44 46 46 47 47 46 44 43 44 44 45 47 46 46 46

GFSCGP_250_spd_081.txt.gz
Wind_Speed
60 67 72 77 79 83 85 92 94 94 91 89 90 97 101 106 105 109 108 106 103 100 95 91 88 87 85 81 79 76 73 71 67 61 58 56 58 58 59 60 61 60 61 62
58 66 72 78 83 82 83 86 90 92 92 91 91 95 98 104 104 109 109 107 105 102 99 95 93 91 89 86 83 80 79 75 72 71 67 61 62 62 60 61 63 66 65 65
54 62 64 68 72 77 82 85 87 90 94 92 89 91 95 101 106 104 105 106 106 104 103 101 99 98 95 92 89 86 82 79 77 74 72 70 69 63 63 64 62 62 64 65
47 50 61 70 73 76 79 79 85 91 92 92 91 90 93 98 102 104 104 103 104 103 104 103 103 101 101 97 93 91 88 84 81 80 79 78 76 76 71 68 65 65 66 66
46 52 61 64 67 72 77 79 87 90 91 88 89 89 90 93 99 102 105 104 102 102 102 103 106 105 104 101 99 95 93 91 88 85 84 81 82 80 72 69 69 69 67 67
42 50 59 66 68 70 75 78 80 83 85 85 88 90 90 94 96 98 101 103 103 103 101 100 104 106 105 104 103 101 100 98 96 90 88 84 81 81 80 80 83 84 85 84
45 54 59 62 64 67 71 75 77 79 81 85 85 88 93 93 93 94 94 96 101 103 102 100 98 103 107 108 107 106 106 104 101 99 95 93 91 91 91 90 90 91 90 90
32 43 53 59 62 65 68 72 72 73 75 80 84 85 91 91 92 92 92 93 94 97 101 101 102 102 103 104 106 107 107 107 107 105 101 98 95 94 93 92 93 94 94 93
16 35 45 53 58 61 63 63 64 69 71 74 79 82 86 83 88 92 93 92 93 94 95 97 98 100 102 103 104 106 107 108 108 109 109 105 104 101 99 98 97 96 95 95
28 36 43 48 52 55 59 61 65 68 71 74 75 78 78 78 81 85 91 95 95 94 93 96 97 98 99 103 105 105 105 107 109 110 110 109 108 107 106 104 102 99 98 98
24 33 40 44 49 54 57 60 62 64 67 70 72 75 73 74 76 78 82 89 94 95 94 95 95 97 97 100 101 103 105 106 106 109 110 111 112 112 111 109 108 105 104 104
17 26 33 41 46 52 55 59 61 63 66 68 68 69 69 70 73 75 76 79 85 91 94 95 95 98 99 99 100 102 104 106 107 108 109 112 113 114 114 113 113 112 111 110
13 24 31 36 38 41 47 52 56 60 61 63 66 68 68 69 71 73 73 74 77 81 87 92 97 99 99 100 101 103 104 104 105 107 109 110 111 115 115 114 114 114 114 113
5 14 22 31 38 44 45 48 52 56 57 62 62 67 68 72 71 70 70 72 74 77 81 86 91 96 100 103 103 103 103 104 104 106 106 107 108 110 114 117 118 118 117 116
7 10 16 24 32 40 45 50 51 54 61 61 66 66 71 74 72 71 69 71 72 75 78 82 86 91 95 99 102 103 103 105 105 105 104 104 106 106 107 110 113 114 115 116
12 12 16 21 29 34 40 47 51 55 60 62 66 67 72 72 71 68 71 71 72 74 76 80 82 84 86 89 91 94 96 98 98 100 101 101 101 101 103 105 106 107 109 111
18 16 17 20 21 29 37 41 44 49 55 59 61 67 68 68 70 68 68 69 72 75 75 75 77 79 81 83 84 85 86 87 87 90 93 94 95 95 93 93 93 94 96 98
26 20 19 21 22 26 31 32 37 42 47 50 56 61 62 64 67 66 65 64 67 71 71 72 72 74 75 76 78 79 80 82 83 85 86 87 87 86 87 86 87 86 86 87
31 24 21 22 23 27 30 31 32 38 42 46 51 53 55 56 59 59 61 62 63 64 66 67 67 68 69 71 73 75 77 77 78 78 79 80 81 81 80 80 80 80 80 79
47 31 23 22 22 27 32 29 30 34 37 42 42 44 46 49 54 53 54 54 55 57 61 64 63 64 65 67 69 69 70 71 73 74 74 76 76 76 76 76 75 75 74 73
50 37 28 24 23 27 27 30 33 32 34 36 38 39 39 41 45 47 48 50 51 52 54 56 59 62 63 65 65 66 66 66 68 68 68 68 68 68 68 68 69 70 70 69
54 48 38 29 24 29 27 28 32 35 37 37 35 35 35 36 38 41 42 44 45 46 47 48 51 55 57 57 58 60 61 64 65 66 66 67 68 69 68 67 66 66 66 66
58 49 47 37 30 27 30 31 32 34 38 39 39 37 36 35 35 37 39 40 41 43 43 44 44 45 46 47 48 49 52 54 56 57 59 58 59 61 62 62 62 63 63 62
70 61 53 47 36 31 30 33 34 35 38 41 43 42 40 39 37 36 36 36 38 40 41 42 43 44 44 45 45 47 47 47 48 50 51 51 50 52 52 53 54 55 57 58
75 66 61 56 46 34 34 31 33 37 39 40 43 45 45 45 44 42 40 39 38 37 38 40 42 44 45 45 46 47 48 49 50 50 50 51 51 52 52 52 52 53 53 53
85 78 74 65 52 41 36 35 33 35 38 42 42 44 47 48 47 47 46 44 44 43 41 40 40 41 43 45 47 48 49 49 51 53 54 54 53 52 53 52 51 52 51 50

GFSCGP_250_spd_084.txt.gz
Wind_Speed
51 62 67 69 77 83 87 89 91 94 97 100 97 94 93 94 98 100 106 112 114 116 112 108 103 94 86 81 82 78 78 75 71 70 71 72 68 64 62 59 57 55 56 59
48 58 65 71 80 81 86 89 91 97 99 98 94 91 91 92 92 96 98 105 108 114 111 109 103 98 90 87 83 78 81 80 76 75 70 68 65 68 65 63 61 60 58 58
35 49 61 70 76 76 81 88 90 89 92 91 92 90 87 88 89 92 94 101 104 107 104 106 103 100 98 91 87 86 79 80 79 77 75 71 70 69 70 66 68 65 61 61
33 45 57 67 72 74 77 83 84 82 84 87 88 87 87 87 87 88 90 95 101 104 106 107 105 101 100 99 91 89 89 83 77 71 73 71 72 68 67 73 75 72 67 65
31 40 48 56 65 69 76 78 79 80 83 80 82 83 85 85 84 85 87 93 99 103 106 105 106 105 101 99 99 94 91 89 87 86 84 82 79 80 77 76 76 76 77 78
27 32 42 50 57 65 70 70 73 76 76 70 76 80 86 83 82 84 86 90 96 102 106 106 106 107 105 102 100 100 97 94 92 90 90 88 87 86 85 82 80 80 79 80
23 33 43 52 59 62 64 67 68 73 73 76 79 81 85 79 80 83 84 87 92 97 103 104 105 107 106 106 103 102 102 100 97 96 95 95 94 92 88 86 85 82 82 83
22 34 43 48 53 57 61 66 71 70 70 75 78 80 83 82 83 82 83 85 89 92 99 103 102 107 107 106 106 105 105 104 104 103 102 102 101 100 99 98 96 94 91 90
5 26 34 42 47 52 56 59 62 66 71 73 75 76 81 80 81 82 83 85 85 88 92 100 99 109 111 109 109 109 109 109 109 109 108 106 105 106 105 104 103 101 100 99
10 20 29 38 44 51 56 57 62 65 68 70 72 76 77 80 81 83 83 83 83 85 88 91 96 101 105 110 112 111 110 111 112 111 111 111 110 110 110 109 109 107 107 106
4 15 27 34 41 46 51 56 60 62 62 65 68 71 70 77 78 80 81 82 83 84 86 88 91 93 101 106 106 106 106 108 107 108 110 113 114 115 114 113 112 111 111 111
6 10 19 28 37 44 49 53 55 56 59 63 67 69 71 75 76 78 78 78 82 85 86 88 90 91 93 96 100 103 105 106 108 108 108 110 112 113 114 113 113 113 111 112
13 14 18 25 33 40 46 49 53 55 58 62 65 67 68 70 72 74 75 75 77 81 86 89 92 93 94 95 96 97 99 103 106 108 109 111 111 110 110 112 112 112 112 111
13 12 17 23 29 37 43 49 53 55 58 64 63 66 65 68 70 69 70 71 75 78 81 85 89 92 95 98 100 101 100 102 103 105 107 108 108 108 109 109 110 109 110 111
13 13 13 20 26 31 39 45 49 52 58 56 64 63 65 66 69 69 69 69 76 76 78 81 83 86 89 92 95 99 103 103 103 103 104 105 107 108 107 106 107 108 108 108
37 17 13 19 21 26 34 39 48 51 55 57 61 61 66 65 67 69 69 70 74 73 76 77 78 81 84 86 89 92 96 99 102 104 104 105 104 105 105 106 106 107 106 105
46 36 23 16 20 23 29 37 41 44 51 54 55 62 63 65 66 68 68 68 70 71 73 75 75 76 78 81 83 86 89 92 93 95 97 99 102 105 106 106 107 108 107 107
48 43 33 23 18 23 31 35 36 39 45 47 52 58 59 58 60 63 64 66 67 68 70 71 73 75 76 76 78 80 82 83 85 86 87 89 91 93 96 97 98 100 101 100
52 48 41 31 22 22 27 34 34 35 41 43 49 51 52 53 55 54 54 54 55 58 62 68 71 71 71 73 75 76 75 76 76 76 79 80 81 83 85 86 88 89 88 89
62 50 45 38 27 25 28 29 31 35 36 42 44 46 49 51 54 51 52 53 54 54 56 59 63 65 66 67 69 70 69 72 73 74 75 76 77 78 79 79 80 80 82 82
62 56 47 45 40 34 26 27 28 31 37 43 42 41 43 44 45 45 47 49 51 52 51 53 57 57 60 64 65 66 66 67 68 69 71 71 72 73 75 75 76 77 77 77
68 63 53 56 53 47 36 26 28 32 37 41 45 43 42 43 44 45 44 46 47 47 45 45 47 51 54 56 59 61 64 65 67 67 68 69 69 70 70 71 71 70 71 70
86 80 75 69 68 56 46 36 30 30 35 40 44 44 44 43 43 43 44 44 45 46 46 45 44 45 47 48 51 55 58 58 60 61 62 63 64 66 66 67 68 68 67 67
86 87 86 83 73 63 57 43 33 29 32 36 42 44 46 46 46 45 45 43 42 42 43 44 43 43 45 46 46 47 49 50 52 52 52 54 56 58 57 58 58 58 60 60
87 90 90 91 80 67 63 50 39 32 31 33 39 42 44 46 47 47 47 47 45 43 41 40 40 42 43 44 45 47 48 48 48 50 52 53 52 54 55 55 55 56 56 55
85 94 95 95 89 77 70 57 44 36 33 34 36 41 45 44 46 48 48 48 49 48 46 44 42 41 40 40 42 44 46 48 50 50 52 53 54 55 56 57 56 54 54 57

GFSCGP_250_spd_087.txt.gz
Wind_Speed
31 45 56 60 66 73 81 85 86 91 93 96 96 100 104 103 104 109 113 112 119 102 107 106 100 89 90 92 89 88 81 77 74 73 72 71 71 68 67 66 66 69 68 68
34 43 53 64 71 76 82 85 87 89 93 101 97 97 101 101 97 101 108 111 114 120 109 112 105 98 93 90 91 88 88 83 82 73 70 72 66 64 68 66 63 70 73 71
34 43 50 60 69 71 77 81 82 86 92 92 94 100 98 96 92 94 100 104 112 108 110 107 108 105 98 92 87 92 87 84 80 80 73 69 66 67 63 63 62 63 65 67
34 42 50 57 69 73 77 81 84 88 92 94 96 97 92 91 92 88 91 97 100 107 102 110 108 106 109 103 96 95 91 89 85 77 74 69 66 66 71 72 68 61 64 69
25 36 46 57 61 66 70 73 81 87 92 92 91 90 88 87 87 85 84 89 95 98 103 101 110 110 115 111 106 103 102 97 93 89 78 79 76 77 74 72 73 76 71 70
23 29 40 48 56 63 67 75 79 85 84 84 87 88 85 85 86 82 83 85 90 92 96 99 102 106 106 111 110 109 110 109 104 102 101 97 89 83 83 84 78 77 77 76
22 27 34 47 55 59 65 73 77 75 78 80 83 81 76 77 77 77 83 85 82 87 90 93 99 103 105 104 106 107 109 110 107 102 103 100 104 102 98 92 85 83 81 82
20 27 33 42 49 56 63 64 65 66 66 72 77 79 78 73 71 73 77 81 82 84 85 87 94 98 99 104 107 107 106 105 106 107 103 101 101 102 103 102 102 101 99 98
11 22 33 42 47 53 55 59 60 61 64 68 70 73 74 74 72 73 76 80 83 81 81 82 85 94 97 100 105 107 106 105 106 108 107 106 104 103 103 103 102 101 101 101
7 12 24 32 38 42 47 54 58 60 62 65 69 72 75 74 75 79 80 81 81 80 78 79 81 87 90 94 101 104 107 107 108 109 109 110 110 110 109 108 106 108 107 105
15 4 11 22 31 37 41 47 53 57 61 65 68 67 69 74 72 74 76 77 78 77 76 76 79 85 86 90 96 101 105 112 110 109 110 111 113 113 113 112 111 111 111 111
17 10 1 10 23 30 35 41 48 54 58 62 64 65 66 69 69 71 73 74 76 76 77 77 78 84 86 87 92 96 101 106 112 116 115 115 114 113 113 113 115 115 117 117
22 13 7 3 11 23 32 38 43 50 55 59 63 65 68 68 69 70 72 72 74 75 76 78 80 83 86 86 87 90 94 98 107 110 114 120 117 115 116 116 118 118 120 120
31 21 12 8 10 14 21 33 40 46 51 56 58 61 63 66 69 70 70 70 73 75 77 79 81 84 87 87 88 89 90 94 98 102 107 111 115 120 122 125 124 123 120 118
38 30 20 14 11 14 18 24 33 45 49 52 58 60 64 66 68 68 69 68 70 75 77 78 79 81 85 88 90 91 93 95 96 98 101 104 107 111 114 117 115 115 114 114
42 35 31 22 17 17 21 26 30 34 37 49 53 58 62 62 65 67 68 68 70 74 75 75 77 78 80 82 85 88 93 97 99 100 101 102 104 106 107 110 109 109 109 109
45 40 35 27 21 21 25 26 30 33 38 41 45 56 54 57 60 65 68 68 70 72 74 75 74 75 77 80 80 82 86 89 92 95 98 101 103 105 107 108 109 110 109 108
46 40 43 37 29 28 27 28 31 34 39 39 45 52 50 50 56 59 61 63 67 71 73 73 73 75 75 75 77 79 81 82 84 85 88 91 92 93 94 95 97 99 100 102
65 62 54 47 38 27 27 25 25 34 41 43 44 47 50 50 51 52 51 52 56 58 62 63 65 69 70 71 74 77 80 80 79 78 79 79 80 81 83 86 87 89 90 92
65 69 60 53 52 45 35 30 23 23 36 41 46 48 50 52 50 52 50 50 51 52 53 55 56 59 64 66 70 72 72 72 73 73 74 76 76 77 78 79 79 81 83 85
70 75 69 62 60 51 45 37 32 27 31 37 43 48 51 51 50 52 51 51 51 50 51 53 54 56 59 62 63 65 68 69 69 71 70 70 71 74 75 77 78 79 80 80
68 75 75 69 67 66 55 52 45 36 28 32 40 45 49 50 50 50 51 50 50 51 50 50 49 50 54 58 60 62 64 66 66 67 67 68 70 71 71 72 73 74 74 74
69 70 74 76 81 76 69 65 55 44 35 31 34 40 47 51 53 54 53 52 50 49 49 49 48 47 47 48 51 54 57 59 60 61 62 64 67 67 67 68 68 69 70 70
74 76 83 84 82 79 76 69 63 54 42 34 31 37 41 48 51 53 54 53 52 50 49 48 48 48 47 47 47 47 47 48 50 52 56 59 60 61 62 62 62 62 63 63
74 76 83 90 91 95 94 83 73 54 46 39 34 33 38 42 47 51 54 55 54 53 51 50 48 48 46 47 46 46 46 47 47 47 48 50 52 53 53 55 56 55 56 56
77 81 86 93 93 96 92 91 80 67 49 39 34 33 34 38 42 48 53 55 55 55 55 54 52 50 48 47 46 46 46 46 46 46 46 47 49 50 51 51 51 52 53 53

GFSCGP_250_spd_090.txt.gz
Wind_Speed
23 35 47 54 58 63 69 77 77 82 90 94 100 98 106 107 108 113 120 123 104 107 108 102 101 101 102 100 95 97 93 92 87 83 80 66 68 64 53 54 55 56 59 61
28 37 40 47 54 59 65 75 80 84 88 89 93 101 101 99 103 105 114 121 121 103 104 106 108 103 98 96 99 98 99 97 95 95 90 85 85 80 73 68 66 65 64 66
28 36 43 48 54 59 65 73 77 83 87 91 94 90 92 96 99 103 102 113 121 119 103 105 104 105 102 100 97 100 100 101 97 90 91 87 88 87 81 77 74 72 68 70
22 33 42 48 53 60 65 70 77 82 85 88 89 88 89 92 96 100 106 106 112 116 121 109 99 102 104 105 102 97 93 95 95 95 97 95 91 86 82 74 71 68 70 71
22 30 39 48 51 57 63 71 75 79 82 88 88 91 91 91 94 95 94 97 104 109 116 123 120 101 100 100 103 105 103 98 88 88 85 87 88 88 92 91 82 84 83 80
17 26 32 45 51 56 61 67 71 75 82 88 88 92 88 87 92 91 91 95 98 104 110 119 120 123 116 102 103 101 102 102 98 97 76 82 85 83 87 87 88 84 87 88
20 22 32 38 45 52 58 65 71 75 82 85 86 84 81 83 86 85 87 90 95 99 99 108 121 123 125 123 110 104 106 104 100 103 100 98 90 86 90 92 92 94 92 87
17 21 29 37 43 47 51 59 67 70 72 76 79 81 82 84 82 82 84 87 86 90 94 98 103 106 112 118 119 113 110 108 109 106 102 108 109 103 101 100 102 99 98 98
7 17 26 33 40 46 50 55 61 66 67 70 72 76 76 79 80 81 82 82 83 84 85 90 93 95 98 105 111 117 116 114 112 115 110 107 111 116 118 115 115 112 112 113
10 5 14 25 36 43 48 51 57 60 63 66 69 72 74 77 79 77 76 78 76 75 77 79 83 89 95 98 104 109 110 114 114 112 114 117 120 117 116 115 116 118 119 119
16 11 7 16 29 35 39 46 50 53 55 58 63 68 72 75 76 76 76 76 74 74 74 77 81 87 92 95 96 102 107 107 108 110 111 112 114 115 114 114 114 116 115 114
20 13 5 6 16 27 34 39 44 47 49 52 56 62 67 70 71 74 74 75 75 74 75 77 80 86 90 90 91 94 97 101 102 103 107 109 108 108 112 115 113 115 113 114
30 20 12 4 4 12 22 31 38 43 47 51 55 60 65 70 72 75 77 76 76 76 76 77 79 82 85 88 88 89 90 93 96 97 100 105 110 107 110 109 113 116 113 114
40 30 21 11 4 6 12 21 31 39 45 51 54 61 65 69 72 71 73 74 75 76 77 80 82 83 84 85 86 87 88 90 92 93 96 100 104 104 105 107 110 114 117 119
48 43 35 22 15 8 10 15 22 31 38 45 55 57 64 68 69 70 70 69 71 74 77 80 83 83 81 81 83 85 88 89 91 92 93 97 99 99 101 104 107 111 112 114
47 42 38 33 24 17 13 12 20 27 30 38 43 55 60 63 65 68 70 71 73 75 77 77 77 78 79 81 82 82 84 87 89 91 93 94 97 98 100 102 104 106 107 107
54 49 44 39 31 28 25 19 19 22 27 36 41 51 50 55 61 66 70 72 72 72 74 76 76 77 79 81 81 82 81 81 85 90 93 95 96 97 99 100 101 102 102 103
57 53 50 50 44 36 28 26 24 23 25 29 37 47 50 52 55 60 64 66 68 71 74 74 74 75 76 78 77 79 80 81 82 83 85 89 93 96 99 100 101 102 102 103
61 62 59 55 46 37 36 40 29 25 24 28 34 42 48 49 53 56 59 61 60 61 62 65 68 70 72 73 74 77 77 77 78 81 83 84 85 87 88 90 92 94 93 93
55 62 62 64 63 65 50 46 37 35 33 26 30 37 45 51 52 57 57 58 59 59 59 60 60 60 61 63 64 67 70 73 74 74 77 78 81 82 82 82 83 85 85 86
52 58 61 62 62 65 67 60 60 50 40 33 29 31 38 47 52 56 58 59 60 60 60 60 60 61 62 62 63 65 67 67 70 71 74 76 77 77 77 77 80 83 83 83
57 59 60 61 67 70 68 75 65 59 52 45 38 35 35 41 48 55 59 59 60 61 60 59 60 60 60 59 60 63 64 65 66 69 71 72 73 74 74 76 77 79 78 79
62 61 65 68 66 78 84 85 83 69 60 51 47 40 36 40 44 49 56 60 61 61 62 62 60 59 58 57 56 57 59 62 64 64 65 65 67 68 68 69 71 72 74 74
64 66 70 72 76 74 86 88 94 81 69 58 49 39 44 37 42 46 48 55 59 60 60 61 61 59 58 56 54 54 55 55 55 57 58 59 60 62 63 65 67 67 66 66
65 66 73 76 82 86 94 95 99 97 84 73 61 49 38 42 40 42 46 48 53 57 58 58 60 60 59 57 56 54 52 51 51 51 52 52 52 53 54 56 57 58 58 58
67 72 75 75 83 86 93 98 97 102 90 82 76 62 47 38 38 38 41 43 46 50 55 57 59 60 60 59 57 55 52 50 49 50 50 50 49 49 49 50 50 50 50 50

GFSCGP_250_spd_093.txt.gz
Wind_Speed
17 23 29 39 42 48 54 60 67 77 87 89 90 96 103 107 108 109 107 106 107 111 106 101 89 86 88 92 92 85 87 88 86 88 82 76 67 75 71 65 56 56 51 52
14 25 33 38 42 50 56 64 73 81 86 88 94 93 99 103 106 106 108 105 107 108 106 106 100 84 90 93 88 76 75 77 86 88 87 77 82 79 81 76 72 70 64 59
10 23 36 40 41 48 55 65 79 86 93 91 84 94 94 97 103 106 107 110 103 108 108 108 105 107 96 88 88 89 83 83 86 84 86 83 85 85 77 78 85 78 72 72
7 18 23 42 50 50 53 63 72 78 75 79 86 87 92 98 102 103 104 109 108 100 106 107 98 95 89 97 99 82 75 85 79 71 86 87 89 87 94 93 88 85 88 87
7 17 29 37 39 42 50 58 70 75 79 84 86 84 81 87 92 100 102 104 108 111 106 107 112 112 111 106 107 103 99 92 91 95 73 76 84 82 84 90 90 93 91 93
9 13 23 34 37 40 42 49 57 62 74 75 78 75 73 77 86 91 100 104 108 112 111 111 109 111 111 112 114 109 107 106 104 96 98 86 84 91 91 91 90 84 86 91
10 12 23 33 36 38 43 48 53 60 61 69 71 73 72 76 81 84 91 97 101 105 111 110 107 104 104 113 114 114 114 114 112 111 107 104 101 94 87 89 92 92 93 95
8 13 19 24 31 37 38 42 49 51 52 58 64 69 71 75 81 81 84 88 94 99 106 110 111 110 111 110 108 108 114 115 115 114 114 111 106 103 102 97 96 102 100 95
17 4 10 22 27 30 36 39 43 47 52 56 60 65 72 74 76 79 81 85 89 94 99 105 110 113 116 114 113 113 110 107 108 110 110 113 115 113 115 112 109 106 107 111
15 11 2 8 22 28 29 33 41 45 49 52 57 60 63 71 76 78 81 84 88 90 94 97 102 110 113 118 121 118 117 115 112 110 109 112 116 115 116 115 115 115 115 118
23 14 8 0 10 21 31 35 38 41 45 49 55 60 65 67 70 73 73 75 79 81 85 90 96 102 107 113 113 118 123 124 120 116 118 118 116 112 111 116 118 120 122 121
29 21 13 7 3 7 20 29 35 39 43 46 51 56 63 65 67 67 68 70 72 75 79 82 86 90 94 98 102 104 112 119 121 123 123 121 122 120 118 119 121 118 120 120
41 34 23 15 8 1 8 18 27 34 39 43 50 55 61 66 68 68 70 69 71 74 76 78 81 83 85 89 94 98 103 109 116 119 124 127 128 128 124 123 123 122 123 125
48 41 35 29 19 11 7 11 19 27 34 42 48 55 60 64 65 67 70 72 74 75 76 77 79 80 83 85 89 92 95 98 106 111 116 119 121 123 126 124 124 124 123 122
51 48 43 38 29 23 16 11 16 21 26 33 40 44 56 62 65 67 68 71 72 75 78 80 83 86 87 87 85 84 87 90 94 98 103 107 111 114 117 116 115 116 117 119
50 48 47 42 39 37 29 20 17 14 24 32 34 43 48 51 56 61 65 67 70 75 78 80 82 83 84 83 83 84 85 86 86 88 91 97 101 104 107 109 109 109 110 110
52 51 50 50 43 39 41 40 32 21 17 23 32 44 46 51 53 58 63 67 72 76 77 79 81 81 82 83 85 86 86 85 85 85 86 86 88 93 96 99 100 101 103 104
49 46 49 53 52 53 45 49 43 34 31 24 25 32 40 48 53 56 61 65 69 73 75 77 79 81 82 83 83 82 81 82 82 84 84 86 86 85 87 90 93 96 99 100
54 48 49 52 55 58 60 56 53 48 43 35 32 31 31 38 46 56 61 66 68 70 72 74 76 78 80 82 82 80 80 81 81 82 82 83 81 81 83 85 87 90 92 94
55 52 56 51 60 59 62 66 65 60 52 45 37 31 35 38 39 45 55 65 69 72 73 75 76 76 77 79 79 80 79 79 81 81 81 79 79 80 82 83 85 87 87 88
53 57 59 51 57 63 68 71 72 73 69 58 49 40 33 33 38 44 46 51 63 72 75 76 76 76 78 78 76 76 77 76 78 76 74 74 78 83 83 83 83 82 83 84
51 56 60 59 54 66 74 76 78 82 78 74 69 52 44 34 36 38 45 49 51 59 68 74 75 77 77 76 74 75 75 75 72 72 72 74 76 78 79 80 81 82 82 82
48 53 59 62 64 65 74 77 81 79 87 86 75 68 56 44 38 39 42 45 51 51 55 63 69 72 73 73 72 73 74 73 71 70 72 72 72 72 72 73 75 76 75 77
50 50 57 61 65 66 74 79 87 79 86 84 83 77 66 55 46 40 39 44 44 49 49 53 60 66 68 68 67 68 68 67 67 67 68 70 70 68 67 67 68 69 69 70
50 52 57 63 67 71 77 79 87 85 81 96 97 91 81 68 55 49 44 41 39 43 44 47 50 57 62 65 64 64 65 65 63 62 62 63 63 62 61 60 59 60 60 61
51 56 58 64 68 73 79 85 88 92 85 93 106 94 91 76 60 51 45 40 37 37 40 41 45 50 56 60 63 63 63 63 62 61 59 59 58 58 58 57 55 55 55 55

GFSCGP_250_spd_096.txt.gz
Wind_Speed
28 25 21 23 29 39 47 53 57 67 78 89 91 95 104 114 115 114 111 113 112 117 113 109 95 82 88 94 104 96 90 82 87 73 72 72 71 67 64 69 58 52 44 52
21 15 14 22 31 39 47 52 60 69 74 84 89 93 102 107 115 114 114 113 116 105 109 102 96 100 101 100 92 98 93 81 88 85 86 82 64 80 71 61 65 62 60 68
10 6 12 23 30 40 46 49 59 73 85 92 95 97 104 105 113 115 114 113 113 114 109 114 101 98 97 96 81 77 83 82 87 87 82 70 72 76 77 78 82 83 78 73
8 2 12 22 29 38 42 49 61 77 81 87 89 95 95 102 108 115 111 111 108 110 107 111 115 105 90 91 82 75 80 84 85 87 72 70 82 77 72 61 59 65 69 73
11 4 6 25 31 34 39 46 53 61 77 86 88 91 91 93 99 106 112 110 111 109 113 112 112 103 97 95 89 84 86 92 86 86 80 80 81 77 74 71 75 60 66 76
13 5 8 19 29 31 36 41 50 63 70 76 76 80 82 84 94 103 111 113 112 111 112 118 118 115 108 110 99 94 95 96 87 94 96 96 85 86 86 85 82 79 72 71
18 8 7 15 25 29 35 41 49 57 65 69 71 70 73 83 90 100 105 112 114 112 111 113 112 105 117 118 118 115 107 106 97 96 91 82 85 90 91 88 87 74 81 88
22 17 6 13 18 23 25 29 38 47 56 61 63 68 69 77 83 87 98 104 112 113 111 111 116 115 111 113 120 119 117 113 101 99 101 104 98 95 95 93 93 95 94 94
21 19 13 8 13 19 22 24 25 35 42 45 53 58 60 67 72 79 86 95 102 109 111 114 111 113 114 107 106 104 107 119 120 115 114 113 115 107 103 101 103 103 106 106
27 20 16 9 7 10 15 20 23 28 30 35 43 47 55 59 64 67 72 82 93 99 104 110 113 111 112 116 113 112 110 110 111 112 108 114 113 114 120 119 116 114 116 113
34 28 19 13 10 5 10 12 17 21 27 32 37 43 48 52 56 58 61 67 76 87 95 102 108 113 118 117 116 118 121 123 122 119 120 119 121 115 114 113 111 115 119 123
41 34 29 23 14 8 7 4 11 19 23 27 33 39 44 48 51 56 59 63 72 78 87 94 101 109 113 117 122 125 121 120 128 128 128 127 129 129 129 129 130 130 127 123
52 46 40 34 26 20 13 4 4 10 16 24 30 36 41 44 48 52 57 59 65 71 75 83 90 97 105 112 116 119 123 126 126 126 129 131 130 130 131 130 130 131 132 130
53 51 49 45 39 32 24 17 9 10 15 20 26 31 36 42 47 51 55 58 63 67 69 74 79 84 88 94 102 109 113 116 121 124 128 128 130 132 134 137 138 136 135 137
53 49 50 50 45 40 34 27 19 14 11 16 23 31 36 40 43 50 57 62 64 68 70 72 74 78 82 86 89 94 100 104 110 114 116 121 124 129 132 132 130 128 130 132
53 53 55 54 48 44 39 35 30 23 19 18 20 26 30 38 45 52 57 62 66 70 73 74 76 78 80 83 87 91 94 96 97 102 107 113 115 119 121 123 125 127 129 130
51 53 53 55 54 53 49 45 39 35 29 22 21 21 24 30 39 51 58 62 67 71 75 79 82 83 84 86 88 89 90 92 93 96 100 102 103 103 105 107 109 112 113 115
50 47 51 55 53 56 54 50 47 46 41 46 38 34 29 25 30 38 47 57 66 71 76 80 83 85 86 89 90 90 90 90 91 92 92 93 95 96 95 95 94 94 96 100
48 50 49 55 59 56 57 55 55 52 50 48 47 45 44 43 35 33 39 47 58 67 76 80 84 86 88 90 91 91 92 92 91 91 90 91 90 89 88 89 89 90 92 92
45 48 48 52 55 60 60 58 54 58 58 54 52 49 45 41 35 35 40 41 48 57 66 75 82 86 88 90 90 90 91 89 89 90 90 88 87 87 87 87 87 88 88 87
45 46 49 52 55 60 60 60 58 59 63 63 60 59 58 57 54 44 33 37 49 52 57 64 72 80 87 89 90 90 90 89 91 88 86 85 84 84 86 86 87 87 84 83
43 46 49 50 53 58 56 60 58 62 66 70 68 66 67 66 63 60 48 43 41 47 56 57 62 70 77 82 86 89 89 90 88 88 86 84 83 83 85 86 85 85 85 85
43 47 48 52 51 55 58 59 65 66 67 71 74 75 74 71 70 67 60 50 49 43 46 54 53 60 67 72 76 82 87 89 89 87 84 82 81 80 80 80 80 79 80 80
44 47 51 53 55 54 59 62 65 68 70 72 75 77 77 77 74 71 67 56 49 45 43 46 46 50 55 58 65 71 79 84 86 85 82 81 78 77 75 75 74 73 75 75
42 47 51 53 58 59 61 61 68 72 72 77 80 80 82 85 86 81 72 62 52 44 40 39 38 42 46 49 53 59 66 73 79 81 79 76 74 72 71 70 69 68 68 66
44 47 52 56 58 62 62 67 71 74 76 84 83 83 87 86 90 89 81 64 51 43 37 34 33 35 38 41 45 49 55 62 67 71 72 71 69 66 65 63 63 63 60 59

GFSCGP_250_spd_099.txt.gz
Wind_Speed
43 39 33 27 28 31 38 41 42 44 48 55 70 80 91 98 114 119 125 122 122 100 83 84 84 77 76 79 84 83 74 76 71 67 65 58 56 62 63 66 57 57 55 56
36 28 22 19 23 28 30 36 40 44 46 57 66 71 92 100 113 117 119 119 118 120 94 89 83 87 86 85 88 80 78 83 72 70 68 66 67 66 64 59 57 57 68 67
23 18 7 7 11 21 26 34 37 41 45 58 71 82 93 102 112 119 126 124 123 123 112 95 96 91 80 84 83 86 88 81 84 77 76 67 64 69 70 74 78 74 73 64
16 10 4 1 12 20 26 32 38 40 52 64 76 86 94 101 108 118 126 123 120 122 121 108 105 103 96 95 93 95 96 87 86 83 78 70 72 80 76 77 79 79 83 76
13 14 11 6 11 19 25 34 38 43 59 68 76 87 92 101 108 115 120 127 121 121 112 115 106 101 104 100 98 96 90 89 95 86 85 72 75 72 76 71 67 72 73 75
18 15 15 7 12 17 24 32 36 43 58 69 77 84 88 99 112 114 120 127 131 123 119 118 111 106 101 110 98 94 97 89 97 91 96 98 94 72 69 80 77 74 72 68
21 19 17 11 13 14 21 27 33 48 56 67 77 82 84 97 105 110 115 120 124 135 122 121 123 114 106 104 113 101 102 99 95 99 101 99 99 94 90 84 86 83 78 75
22 21 19 17 13 12 13 18 30 45 49 60 69 76 78 83 100 107 112 116 122 127 124 120 112 121 120 108 101 103 101 100 101 103 105 105 103 91 99 94 91 91 87 87
23 24 22 17 17 18 16 19 26 37 34 47 56 65 71 71 86 101 110 113 115 124 127 125 114 122 124 119 112 114 103 110 111 111 113 106 97 93 99 100 95 89 95 92
29 25 24 22 20 19 16 14 14 12 17 32 37 48 55 61 67 80 103 111 113 112 118 129 125 121 117 121 120 123 123 115 113 115 110 106 104 97 97 102 101 95 97 105
37 32 26 22 22 21 18 12 7 2 4 12 19 31 40 47 55 61 85 101 114 114 113 118 127 127 126 128 120 112 117 123 122 120 120 116 110 107 108 104 108 110 111 109
49 42 34 30 27 24 20 15 10 3 1 5 9 16 26 31 43 47 58 78 95 110 117 116 117 122 131 125 123 123 124 123 120 117 119 117 122 121 116 117 119 119 118 124
56 55 49 40 36 31 25 19 12 7 4 0 6 10 16 20 25 31 40 52 71 88 106 120 120 119 119 123 129 130 130 129 127 125 131 132 129 128 131 132 131 130 130 129
57 55 56 54 50 42 34 27 22 17 13 8 3 8 14 19 25 31 36 42 49 59 71 90 111 123 121 122 124 126 127 130 136 137 133 130 129 128 132 133 132 131 126 129
57 58 57 58 55 53 48 41 33 27 18 14 10 5 10 21 30 33 38 44 51 57 64 73 86 99 110 124 129 130 129 129 129 129 132 138 140 139 136 135 134 134 135 135
61 58 59 58 57 49 48 41 39 34 30 23 18 11 5 11 22 33 44 51 56 60 64 69 76 83 91 101 111 121 131 135 137 140 140 139 138 134 136 140 145 143 143 144
55 56 57 56 55 53 49 46 44 38 37 32 28 18 12 10 13 20 31 41 50 60 67 72 76 80 85 92 99 105 113 120 127 130 133 138 142 145 146 145 144 146 147 147
49 52 52 50 52 47 45 46 46 44 42 41 38 36 33 25 20 18 23 29 39 52 60 67 74 81 87 90 93 95 101 107 112 117 121 125 128 131 135 138 142 143 146 146
48 48 47 48 46 46 48 49 47 47 43 42 40 41 42 39 38 34 30 27 31 39 49 61 69 77 84 89 92 95 97 100 103 108 111 115 117 119 121 124 125 127 126 127
45 47 46 47 46 46 48 47 47 48 51 52 52 53 53 50 51 49 48 45 41 37 39 52 60 71 79 87 88 91 97 99 102 103 104 106 107 107 109 110 111 110 110 108
42 44 46 47 47 46 51 46 51 51 53 53 61 56 58 60 61 62 63 63 57 55 48 45 52 64 68 77 81 85 90 94 98 99 101 102 101 100 100 101 100 100 100 100
38 41 43 46 48 49 51 52 55 57 55 59 61 64 63 63 67 64 71 71 69 67 60 47 44 52 65 70 68 76 81 88 92 96 99 101 100 100 100 100 100 99 97 97
36 38 42 45 47 49 49 52 53 56 55 59 62 67 69 70 70 72 75 76 78 77 69 55 47 46 54 64 65 61 71 76 81 87 93 96 97 99 100 98 97 95 93 90
34 37 40 42 46 49 53 55 58 62 60 63 64 66 65 74 78 79 81 81 85 81 76 60 48 43 46 49 53 56 62 65 71 76 80 85 88 90 91 91 91 91 90 87
35 36 39 41 44 48 50 55 56 61 65 62 70 68 72 76 82 86 89 92 90 87 75 60 47 43 42 42 45 49 55 57 61 66 69 73 77 83 87 87 87 87 85 83
33 37 39 42 45 49 52 55 59 61 66 65 72 73 80 84 86 88 96 96 93 90 79 57 43 39 37 36 37 40 44 48 54 58 60 64 69 76 78 82 83 80 77 74

GFSCGP_250_spd_102.txt.gz
Wind_Speed
60 57 49 48 47 43 43 45 45 45 50 52 56 60 66 76 93 106 115 116 117 98 106 90 86 86 81 81 68 63 60 55 54 58 55 59 52 56 55 59 52 54 56 56
49 43 40 37 34 29 29 31 35 40 46 46 50 55 66 83 99 113 123 115 101 100 100 98 85 89 86 81 78 69 63 68 64 65 64 63 62 62 58 60 61 60 58 61
39 37 31 26 20 16 18 23 29 36 42 46 50 59 70 89 101 112 125 110 104 98 104 88 86 80 80 88 92 75 81 72 74 69 68 70 62 69 66 61 57 61 60 64
29 26 16 11 5 5 13 23 27 36 40 47 55 63 72 87 102 117 127 114 108 106 94 95 87 84 91 88 88 88 84 87 74 76 73 70 74 71 67 62 70 64 66 69
18 12 5 5 5 7 15 22 32 36 41 45 55 65 74 88 102 114 127 118 114 106 107 101 90 96 95 80 92 96 86 79 89 76 71 72 74 77 78 71 70 74 65 64
9 4 9 14 15 15 16 24 30 35 40 46 55 60 66 84 106 120 131 123 115 110 111 111 105 100 85 82 88 95 88 86 86 84 79 71 70 75 77 79 77 75 78 76
7 11 18 19 21 20 17 18 27 31 38 47 53 54 60 80 103 127 130 128 126 115 117 114 110 101 89 83 93 94 96 94 94 95 84 88 83 77 80 71 77 78 74 76
14 17 21 22 22 24 19 15 17 23 29 32 46 47 58 85 108 127 133 130 123 120 122 111 111 103 95 92 95 102 92 89 90 95 92 90 90 91 90 78 79 81 76 78
20 22 23 24 25 24 20 13 6 4 18 35 44 49 63 82 101 125 128 133 128 131 124 113 122 103 109 95 99 113 98 92 87 89 98 98 99 105 101 98 96 93 93 88
25 24 24 26 27 28 26 26 19 14 7 19 36 42 61 80 98 117 132 131 133 136 129 127 113 112 100 112 105 113 112 105 101 96 93 96 100 103 106 110 106 107 102 100
34 28 25 28 30 30 29 30 30 29 16 10 1 15 45 65 84 106 124 137 135 142 130 135 121 111 112 101 106 108 106 107 106 111 108 108 102 100 101 103 106 110 110 112
44 38 32 32 33 33 32 31 30 28 22 11 4 6 4 39 68 88 105 120 137 139 136 135 136 124 119 116 107 107 105 111 114 119 124 122 115 111 114 106 107 105 108 109
57 52 46 41 41 39 35 33 34 28 23 11 8 5 2 11 23 46 74 101 117 129 137 140 137 140 125 129 124 119 125 114 115 115 116 122 120 119 113 106 110 109 113 115
60 60 54 54 53 52 49 50 43 35 28 17 12 8 8 11 15 20 32 61 77 104 124 134 143 138 132 140 141 128 127 131 132 128 127 122 117 118 116 113 119 120 119 122
63 65 64 64 64 61 57 53 47 45 39 29 16 6 2 12 25 32 38 43 59 81 94 111 124 140 141 137 143 147 139 138 140 140 139 140 139 140 135 134 131 130 133 133
60 59 61 62 62 58 54 51 48 44 41 36 29 27 22 16 9 8 24 38 49 62 76 90 108 129 133 138 149 147 149 151 144 152 151 147 144 146 149 150 146 142 140 142
54 55 55 54 53 52 49 48 44 40 36 29 25 20 20 20 19 19 20 20 20 26 42 62 82 98 113 132 137 137 148 159 159 156 153 154 153 149 150 151 153 154 150 145
48 51 50 49 49 46 43 43 37 37 33 32 31 31 27 24 19 17 16 11 15 21 27 32 42 61 84 103 117 129 139 144 147 151 160 165 167 161 158 156 158 157 156 158
46 45 45 45 43 40 40 39 36 36 38 35 36 35 37 31 30 29 32 27 28 29 24 28 34 43 54 68 89 106 121 132 138 144 148 147 150 155 158 161 164 164 164 159
39 40 43 40 42 38 38 42 37 35 35 36 36 34 37 43 45 42 41 45 41 41 43 45 41 47 46 56 68 80 98 112 124 134 139 144 149 152 151 153 152 153 155 155
35 37 37 36 36 37 38 39 38 40 39 37 38 43 47 47 50 51 54 57 59 59 56 56 53 52 55 55 60 73 81 91 105 116 126 132 137 142 147 152 157 162 165 166
30 31 32 32 34 36 38 39 41 39 41 43 43 46 48 52 56 60 61 62 64 68 70 63 58 59 62 57 57 58 71 83 86 93 99 109 120 128 133 140 144 144 145 143
26 27 28 30 32 36 37 39 41 44 46 48 49 50 51 56 59 61 62 67 70 71 71 69 64 63 67 64 56 52 59 68 75 72 74 84 94 101 110 120 125 125 125 123
24 26 27 30 32 33 36 38 42 45 49 51 54 57 57 60 64 70 68 73 76 79 82 78 76 64 60 54 56 49 54 58 62 64 63 66 74 80 85 92 99 105 112 111
23 27 29 31 33 35 37 40 42 47 50 54 58 60 61 64 68 70 74 79 82 87 90 89 85 71 57 46 47 46 48 49 52 55 56 58 62 67 71 76 85 89 92 97
22 25 28 31 34 36 39 42 45 48 52 55 61 65 65 68 70 75 78 81 85 88 93 94 89 76 58 42 41 40 41 42 43 46 50 55 58 57 60 66 75 80 83 86

GFSCGP_250_spd_105.txt.gz
Wind_Speed
48 51 55 58 61 62 63 67 69 69 67 65 66 73 71 76 77 79 79 77 82 92 100 102 84 88 92 86 73 76 68 57 58 55 50 55 59 58 62 65 64 65 65 61
45 52 54 53 57 56 50 52 54 55 57 59 58 61 67 72 76 79 80 80 87 93 94 88 84 90 86 92 83 80 67 59 54 53 52 53 57 61 60 62 64 63 57 62
46 44 45 44 41 40 39 37 40 43 42 45 48 48 55 63 73 79 83 82 88 104 98 90 89 87 77 90 91 82 74 73 73 64 52 55 57 52 54 52 51 54 54 64
36 35 34 32 31 29 27 25 24 23 30 34 39 47 52 58 70 78 85 86 102 112 105 103 104 91 91 92 89 90 80 82 80 63 62 65 58 58 58 64 61 61 55 65
27 25 26 21 16 13 11 15 21 23 28 39 45 50 54 60 72 83 87 92 110 118 103 103 103 100 102 96 98 91 87 72 76 71 67 71 71 71 72 72 70 73 67 61
17 14 11 8 4 4 8 11 19 23 29 39 44 53 55 68 79 87 97 109 115 108 101 113 101 99 97 106 90 94 89 84 86 77 78 80 77 77 74 75 77 74 76 72
8 6 2 9 15 15 16 17 18 25 32 40 45 50 61 70 81 94 110 117 117 114 114 106 110 105 101 97 100 92 95 98 96 90 89 85 83 83 80 83 81 82 78 80
9 5 12 18 22 25 17 21 20 25 29 35 40 47 56 69 78 103 118 117 118 115 114 107 114 104 94 103 103 101 91 95 96 96 104 103 92 89 88 83 87 87 89 87
17 17 21 26 30 30 30 24 15 16 17 22 25 32 49 61 98 116 114 111 109 109 114 103 103 111 100 94 96 104 91 94 99 103 88 100 105 98 94 87 85 87 87 91
20 23 25 31 31 34 34 29 28 16 10 11 18 23 40 57 103 116 117 105 90 106 114 109 97 100 110 98 99 105 98 101 96 103 102 104 106 103 94 91 94 95 90 82
25 26 31 32 33 37 41 42 40 30 16 16 15 16 33 62 105 120 122 109 108 114 110 113 110 97 105 112 114 110 105 100 100 96 100 99 106 108 100 94 95 94 89 93
32 35 37 34 36 37 44 43 43 38 35 26 27 21 22 52 85 127 126 123 122 118 121 124 112 108 103 115 113 113 104 98 99 102 99 97 98 102 102 102 92 97 100 105
40 42 43 42 41 42 43 43 38 37 28 24 21 20 16 40 76 118 129 130 118 115 123 119 120 115 103 109 117 117 115 107 104 107 104 105 101 100 102 105 104 103 104 103
53 52 54 53 48 51 44 36 36 31 23 23 19 20 21 31 71 98 129 138 130 122 122 124 124 123 124 116 117 117 115 110 108 107 111 111 109 109 110 111 111 106 108 107
60 59 60 59 60 57 50 50 48 42 38 34 29 19 21 42 63 82 110 133 134 125 127 127 132 125 127 124 117 124 128 127 126 117 116 114 113 116 117 120 120 117 114 115
62 64 61 57 55 54 51 51 47 42 37 35 30 30 24 16 23 60 111 120 129 129 133 124 132 129 128 136 131 133 129 130 126 127 128 125 125 123 126 125 126 129 135 129
57 58 56 54 52 50 47 45 45 41 40 36 32 30 24 21 18 19 33 74 104 129 133 128 133 135 138 139 140 141 138 137 138 139 133 134 137 136 132 133 134 137 137 131
51 50 48 47 48 45 43 42 39 36 35 34 30 25 22 19 14 10 6 15 28 37 74 115 128 137 135 135 137 145 151 155 153 152 151 149 143 141 142 141 138 137 137 138
43 43 43 43 41 38 36 35 35 32 30 28 29 30 31 28 24 17 12 6 4 11 17 22 35 52 78 94 108 136 156 167 169 171 168 168 170 165 160 155 151 152 154 155
36 36 36 35 34 35 34 32 31 32 32 30 30 33 33 32 30 34 33 26 27 27 24 24 25 31 36 55 62 78 89 99 120 142 166 177 187 191 180 178 180 176 171 165
29 29 29 28 29 30 29 30 30 31 34 35 37 36 36 38 39 41 43 46 43 39 46 39 42 46 47 46 52 63 82 102 105 106 120 132 140 147 160 173 182 193 186 184
22 23 22 23 25 25 27 27 28 30 32 32 36 39 40 43 44 48 54 55 54 54 51 59 65 61 62 61 61 66 76 85 91 98 110 124 127 127 129 137 144 148 166 189
18 18 18 19 20 23 24 26 28 30 32 34 37 39 43 46 47 52 57 61 60 63 67 70 72 75 77 76 70 67 71 75 82 84 86 90 99 106 107 114 119 124 135 144
15 16 17 19 20 22 24 28 30 31 34 37 37 42 44 47 52 49 58 62 67 70 74 78 82 84 85 84 75 67 61 63 63 63 62 59 69 80 84 86 96 104 112 121
17 18 20 20 22 24 27 29 33 34 36 37 39 40 46 49 52 55 63 64 68 71 80 86 86 88 94 80 72 61 55 54 52 52 53 52 55 60 64 67 72 79 89 99
18 21 23 25 26 27 28 30 33 37 40 40 42 44 45 54 57 58 63 69 73 75 86 89 90 89 93 78 65 57 52 48 45 45 45 46 47 50 54 58 60 65 70 78

GFSCGP_250_spd_108.txt.gz
Wind_Speed
41 44 48 50 54 57 60 62 65 66 67 66 65 65 68 76 74 75 78 79 81 80 77 64 65 75 79 78 82 82 74 69 65 79 80 69 66 61 56 53 48 54 66 68
34 38 44 49 53 56 59 61 64 67 67 69 69 68 70 72 72 74 73 76 80 83 70 66 68 75 75 80 83 83 73 80 80 68 61 64 62 62 66 57 53 58 63 68
35 39 44 46 49 52 56 58 59 57 56 56 58 61 65 69 73 74 72 79 81 82 66 68 80 86 83 83 84 81 76 78 71 69 66 60 60 68 68 63 64 65 59 61
32 34 36 40 40 38 40 40 40 42 42 46 48 49 52 59 66 72 75 78 81 75 66 78 88 95 96 91 85 87 84 87 89 87 78 66 68 66 64 63 63 63 58 57
24 26 29 29 29 31 31 31 33 36 38 37 38 42 46 56 60 66 74 77 75 70 81 84 87 99 94 103 96 93 90 94 81 76 77 69 63 58 59 56 59 64 61 59
18 20 21 20 21 23 23 22 24 25 25 27 32 40 47 52 56 60 67 70 74 84 84 88 96 103 97 102 99 95 98 90 88 88 84 75 70 65 61 59 63 66 71 62
13 14 14 14 12 11 12 10 11 13 15 19 28 37 46 49 51 56 64 72 82 88 94 104 96 95 101 103 104 106 105 105 98 89 88 87 81 76 75 75 74 69 69 75
6 5 5 5 4 4 8 8 8 11 15 20 23 26 29 38 46 55 69 80 84 87 94 110 107 108 108 103 109 112 104 109 103 103 99 91 82 81 77 80 82 80 81 80
4 2 6 12 16 16 18 17 17 13 10 14 19 25 36 44 50 61 75 92 108 97 97 118 111 109 104 100 100 97 105 105 105 102 102 104 98 91 86 91 84 88 89 91
8 11 12 16 20 27 35 34 33 30 23 16 9 18 28 40 49 64 84 107 99 101 103 118 114 109 107 98 96 103 109 109 104 105 106 102 108 101 100 92 95 93 92 93
19 21 20 24 28 39 41 42 39 32 31 29 18 15 24 35 50 67 90 119 103 101 93 109 114 106 105 109 105 111 106 100 103 102 99 103 105 104 104 103 98 99 101 97
29 28 31 30 37 40 42 45 36 35 28 30 28 16 27 40 51 67 95 126 110 87 102 96 119 114 115 109 112 106 111 105 106 106 101 103 110 107 108 105 107 105 102 108
32 31 35 38 37 35 36 38 34 33 29 27 26 24 26 38 58 81 101 127 106 92 80 93 104 116 109 101 101 106 114 116 111 111 104 111 103 105 105 110 108 110 111 106
44 45 47 43 39 37 36 37 36 31 23 18 18 23 27 42 61 91 109 127 113 102 95 89 109 111 111 97 95 92 102 108 111 112 112 108 109 111 113 107 107 109 108 109
58 54 51 48 48 49 49 46 44 39 32 21 13 11 25 40 56 93 108 117 116 116 94 97 104 93 109 113 107 108 101 105 116 115 114 116 121 117 114 119 117 110 110 112
60 56 55 51 54 53 49 47 44 42 37 31 23 15 7 26 48 83 109 119 117 126 115 107 114 109 96 99 103 106 105 104 110 122 124 124 118 124 127 126 125 125 125 120
57 55 53 52 53 51 48 50 48 45 41 38 35 27 17 7 28 72 113 104 104 91 105 100 103 100 111 111 100 102 110 120 119 118 118 122 133 134 137 136 133 129 129 127
50 49 48 48 48 48 48 44 41 40 39 37 34 30 26 17 9 43 80 82 77 82 86 87 85 94 98 101 113 112 118 126 121 124 126 133 135 135 142 143 145 144 140 136
41 42 43 41 40 39 37 35 35 34 33 32 30 26 25 25 21 14 15 71 74 62 74 84 80 87 90 97 117 130 127 128 139 144 144 146 149 145 144 144 147 149 152 149
33 32 31 31 30 30 30 29 28 25 25 24 23 24 25 24 20 12 12 28 31 36 65 94 95 86 93 96 112 110 118 135 141 157 157 163 167 167 162 162 158 158 162 159
23 23 24 24 23 23 24 24 24 25 22 22 22 23 23 25 27 28 31 34 36 34 22 33 38 54 69 72 75 87 104 126 133 131 134 141 158 170 179 175 178 186 180 177
17 18 18 18 19 20 21 21 22 23 23 23 22 23 25 28 30 31 33 37 39 37 41 45 43 40 51 52 61 65 78 82 95 106 112 124 134 143 151 156 158 178 187 183
13 13 13 14 15 17 18 21 21 23 24 28 27 25 26 29 31 31 33 42 45 42 49 51 54 56 61 67 64 64 69 81 93 104 115 118 117 121 130 134 136 137 141 141
13 13 14 15 16 17 19 21 23 24 25 27 30 31 35 37 39 37 42 44 47 53 57 60 64 66 71 76 73 71 72 75 75 71 73 77 82 88 95 104 111 118 124 129
15 16 17 18 18 20 21 23 26 27 28 32 32 36 38 41 47 49 49 53 58 60 68 71 77 74 83 74 76 77 76 70 61 55 56 57 64 69 71 70 74 80 86 91
19 21 22 23 24 24 24 25 28 31 32 35 37 39 44 47 52 55 59 59 64 68 75 79 83 80 88 82 82 81 74 63 53 50 48 48 49 52 56 56 57 58 61 67

GFSCGP_250_spd_111.txt.gz
Wind_Speed
47 49 54 57 55 56 57 59 63 65 66 63 65 64 70 71 72 75 74 78 81 78 85 87 81 80 72 61 60 66 74 66 62 57 62 62 63 68 65 68 66 61 52 50
36 38 42 46 50 50 53 53 55 57 61 62 61 60 63 67 69 73 73 76 77 72 83 88 82 79 73 61 63 67 78 68 67 71 61 64 68 65 76 74 71 63 57 59
31 34 38 40 41 44 49 49 54 57 60 61 60 63 66 68 69 70 69 73 75 76 80 80 80 78 70 64 65 69 78 73 72 74 68 69 74 77 79 75 63 61 57 58
25 29 32 36 39 43 47 50 53 57 58 59 60 62 65 67 68 68 69 70 78 71 69 73 74 78 72 66 67 77 85 83 76 70 70 80 74 68 82 88 74 69 64 71
21 26 31 33 35 36 37 37 39 41 44 47 48 53 58 62 64 66 69 71 71 68 72 70 74 76 74 64 73 79 83 86 77 78 69 78 80 80 73 66 67 77 68 67
16 17 18 18 20 20 23 24 25 30 29 31 32 37 43 50 53 58 62 66 71 74 73 77 78 82 71 70 76 83 85 89 87 89 88 85 76 75 77 75 69 65 69 73
8 8 12 13 15 16 16 17 18 19 20 19 21 24 30 38 44 48 52 53 58 68 73 77 82 79 76 75 77 83 82 85 88 91 95 82 82 78 77 77 77 74 67 65
4 3 6 6 8 7 3 3 2 3 5 8 9 14 22 31 36 40 42 49 59 70 75 82 81 84 78 79 81 85 83 90 92 91 94 85 88 89 82 82 87 82 80 74
6 4 2 2 7 9 9 9 12 10 11 11 11 12 18 22 30 36 46 54 58 71 78 83 85 84 85 92 92 89 95 95 96 96 95 93 96 94 97 95 94 81 79 76
8 8 9 14 12 17 12 13 16 15 16 18 17 18 23 29 35 40 53 58 65 75 82 86 93 91 93 92 97 97 99 97 102 102 104 101 105 102 101 100 99 91 93 93
10 11 16 17 14 18 15 18 19 19 18 22 20 20 26 32 39 43 53 61 71 78 83 91 93 101 103 99 101 103 99 104 102 101 101 104 105 103 104 105 104 102 104 103
19 18 19 19 21 16 19 25 21 23 23 23 28 21 28 32 43 49 59 69 72 78 83 85 94 102 106 107 107 107 101 102 101 105 108 110 109 106 110 107 108 104 106 106
30 27 25 24 25 26 25 24 24 22 21 21 19 18 22 34 44 65 69 75 76 80 83 88 98 95 96 109 109 109 101 96 100 98 105 105 108 111 113 113 116 114 114 114
40 39 36 32 32 34 39 40 34 28 17 14 13 18 18 28 44 71 71 75 78 81 85 84 93 91 104 103 107 110 109 105 102 105 102 107 107 108 108 114 115 116 113 118
50 47 47 48 50 47 49 47 44 40 35 25 17 9 9 18 36 59 82 83 84 80 84 83 78 93 85 97 101 104 101 104 102 107 103 109 111 116 119 117 120 117 108 112
53 50 49 49 52 51 51 46 43 43 42 40 33 25 11 6 22 45 70 85 86 86 85 80 80 86 80 75 104 97 106 94 96 107 108 104 112 115 121 124 123 116 120 128
50 49 48 47 48 48 45 43 41 40 39 36 34 31 26 14 7 30 56 78 92 80 88 77 84 74 74 87 85 104 102 97 103 102 105 110 115 121 121 124 128 133 139 134
44 44 44 43 42 41 42 40 38 36 33 29 29 27 24 19 13 2 32 48 69 71 66 68 80 85 87 83 84 98 95 102 108 113 122 124 119 121 126 133 133 134 139 141
36 36 36 37 35 35 35 34 32 32 31 29 25 23 19 18 19 15 10 17 52 50 58 59 59 80 73 71 80 90 105 106 113 124 128 131 135 136 145 142 149 144 146 149
28 28 27 27 27 26 26 24 25 26 26 27 25 23 22 19 23 14 15 6 23 43 54 57 56 59 78 78 81 85 96 107 115 125 136 139 140 152 158 156 156 153 151 146
19 19 19 19 20 20 20 20 20 21 20 18 18 17 16 14 18 17 11 1 13 20 38 46 52 60 74 85 95 98 100 108 119 120 129 137 156 153 156 166 167 169 164 167
12 13 13 12 12 12 12 11 12 12 14 15 14 15 13 13 14 13 12 10 15 20 17 16 20 29 32 39 43 50 56 67 79 101 113 115 113 114 127 138 143 163 176 175
12 12 11 13 13 12 13 14 14 15 17 19 21 21 23 25 27 28 24 23 18 21 30 35 37 46 49 51 54 61 65 70 67 69 75 82 92 101 110 117 120 126 132 141
14 15 17 18 19 21 20 19 19 18 19 23 26 27 29 31 32 35 38 38 41 42 48 53 57 63 67 78 75 77 84 77 76 77 79 76 70 69 71 75 83 90 96 100
17 18 19 21 21 22 23 24 25 24 22 23 26 29 30 33 36 39 44 46 48 50 54 59 64 69 76 84 85 86 89 84 83 84 80 70 59 56 59 63 66 69 74 77
20 20 20 21 22 23 25 25 25 25 26 26 27 29 32 34 38 42 45 49 53 57 62 65 72 78 81 89 91 90 92 88 86 83 77 65 56 54 55 56 59 61 63 65

GFSCGP_250_spd_114.txt.gz
Wind_Speed
55 59 62 65 68 67 67 66 68 67 70 70 67 70 75 74 63 72 82 81 76 76 79 84 84 86 87 84 84 86 86 74 63 58 63 65 74 73 69 61 60 58 56 53
49 51 51 54 56 58 59 61 61 60 59 57 59 60 64 71 68 68 72 74 76 81 83 85 87 84 84 83 85 87 85 67 59 59 62 66 81 77 67 60 59 57 55 57
42 41 43 46 47 46 47 49 52 54 53 52 53 53 55 60 64 66 67 69 72 76 79 81 85 85 84 85 85 89 86 69 56 60 62 70 80 79 70 63 59 65 62 61
36 37 37 38 40 42 42 45 46 48 49 48 50 51 52 53 55 57 59 59 62 72 75 75 75 77 82 85 87 89 83 66 56 62 66 75 80 72 65 66 67 65 58 59
23 26 27 28 32 36 38 42 44 47 49 51 50 53 54 55 55 54 55 56 55 59 66 69 68 71 78 82 85 88 79 66 59 65 69 73 79 73 69 63 65 61 61 71
15 16 19 24 26 28 30 32 34 37 42 45 46 49 48 51 52 53 55 58 59 58 59 64 66 66 72 76 81 80 77 62 58 62 68 78 73 67 71 69 65 67 74 74
2 7 12 15 17 18 18 21 23 24 28 30 33 33 32 36 40 42 43 48 56 62 61 58 58 64 69 71 73 76 67 56 59 61 74 77 77 72 69 75 74 69 69 76
3 7 8 8 9 13 16 15 16 16 17 18 19 19 20 25 27 31 36 42 49 56 62 62 61 62 66 66 67 68 63 56 61 68 84 82 77 68 70 72 74 76 73 74
2 2 5 7 8 9 10 10 10 7 9 8 7 11 12 16 18 23 30 37 44 51 58 64 65 64 64 69 68 68 64 64 68 72 91 88 79 79 81 75 80 79 81 81
5 6 7 5 9 8 9 5 4 2 4 8 7 10 15 14 19 22 32 36 43 48 56 64 69 66 68 71 68 69 67 67 68 78 85 84 86 90 86 87 84 86 86 86
7 3 7 10 11 13 11 7 9 9 9 16 15 13 17 24 24 32 35 41 47 50 53 63 67 71 70 71 69 71 67 69 74 84 93 90 93 91 95 92 98 91 93 96
14 19 22 24 25 25 22 21 15 15 15 16 23 18 20 22 29 34 38 40 49 53 55 61 63 58 67 70 70 75 77 74 77 78 91 98 92 92 98 99 101 105 103 99
31 32 34 36 37 35 34 27 27 27 21 22 22 22 22 23 27 32 37 44 51 57 57 60 59 58 62 67 71 73 72 76 78 85 89 93 96 97 99 105 111 112 112 113
43 42 43 47 48 46 43 40 34 33 30 25 22 17 13 20 25 28 32 38 47 55 62 65 56 59 61 63 69 71 73 76 82 86 88 95 101 104 105 103 102 103 110 117
47 47 49 53 52 49 50 47 45 43 41 35 30 21 10 13 18 24 30 35 40 47 61 65 57 53 64 65 69 71 70 81 80 89 91 90 97 104 104 108 112 113 112 114
45 49 50 51 50 47 47 47 47 47 45 44 43 36 25 12 12 22 27 33 37 42 52 62 65 64 64 68 67 74 72 75 89 92 91 100 104 107 108 108 112 114 119 120
44 44 44 45 44 44 43 43 41 41 40 41 40 40 39 34 22 1 23 25 33 46 47 53 59 62 62 66 73 70 79 85 85 92 101 98 101 111 115 118 119 125 125 131
38 37 37 36 36 36 38 38 36 35 36 36 32 34 37 33 29 21 6 17 35 33 47 48 55 70 65 59 66 81 81 84 91 95 97 102 109 115 117 128 126 127 132 134
28 28 27 27 27 27 28 28 27 28 28 27 27 25 26 23 23 23 21 13 9 25 40 37 56 52 59 69 71 68 81 81 88 93 107 113 113 125 132 138 145 146 147 147
19 19 19 19 20 19 20 20 20 20 21 20 18 18 19 18 10 12 15 7 8 13 18 26 35 44 57 59 65 66 63 69 79 88 101 108 112 121 127 140 154 151 155 161
14 14 13 13 13 11 11 12 12 13 13 14 16 17 16 16 13 10 6 8 2 4 6 12 21 28 35 46 52 56 65 70 84 91 94 100 112 117 116 115 118 130 138 145
13 14 14 14 14 14 14 13 12 12 11 10 8 8 8 7 6 6 10 12 8 13 14 15 18 25 26 30 35 40 46 59 64 70 72 67 76 95 98 99 101 103 104 110
17 17 17 16 17 17 17 16 17 18 17 17 15 12 10 12 10 11 14 15 14 15 20 25 28 27 33 33 39 45 53 58 63 65 67 69 71 75 75 78 79 81 81 82
20 20 20 20 20 21 21 21 20 20 20 20 21 20 19 19 19 20 20 20 19 20 24 24 26 29 34 40 47 57 70 76 82 86 79 80 80 79 79 78 70 65 65 63
23 24 23 24 23 22 22 22 23 21 21 21 22 23 22 22 23 25 25 25 25 24 28 33 38 45 55 61 70 75 78 84 89 90 86 86 83 79 77 70 63 59 59 60
28 26 26 26 27 26 23 20 21 22 21 23 23 24 25 27 28 30 32 34 35 39 44 48 52 56 62 67 75 80 84 90 94 96 89 89 84 80 71 62 63 55 56 55

GFSCGP_250_spd_117.txt.gz
Wind_Speed
49 51 58 64 71 72 70 69 72 72 73 74 72 72 76 81 78 81 89 95 97 97 92 88 83 84 87 83 77 80 80 81 79 78 76 78 80 66 66 67 72 76 76 69
45 55 57 57 57 55 56 56 56 60 61 59 60 60 65 69 70 69 71 75 79 81 79 80 81 80 88 88 82 80 80 81 83 83 82 83 84 79 64 67 69 73 72 68
44 43 44 44 43 46 48 49 51 51 53 55 57 57 58 61 60 60 62 66 70 72 75 76 81 86 85 85 82 82 84 82 81 83 83 85 86 80 60 68 69 78 71 72
29 31 33 34 38 40 40 44 45 44 45 45 46 47 49 52 54 55 58 62 63 65 67 67 70 77 84 82 81 84 85 84 82 83 83 85 85 80 63 67 69 86 81 77
24 25 27 30 32 35 36 37 37 38 38 40 41 43 44 45 47 48 49 50 54 56 59 59 60 67 73 74 77 82 86 87 85 83 83 85 79 77 65 65 70 81 83 86
15 17 20 22 24 28 30 33 36 37 37 38 40 42 43 45 48 49 49 48 48 49 53 57 59 61 67 70 74 78 82 84 83 84 83 81 76 70 61 65 69 71 75 76
9 12 7 9 9 14 17 18 22 26 27 29 31 35 37 41 44 46 46 49 50 49 48 51 54 54 59 64 69 70 72 76 77 78 77 78 67 63 59 62 60 67 71 72
13 11 11 12 12 13 14 15 16 18 18 19 20 21 25 28 33 38 39 40 45 51 52 51 52 53 54 57 61 65 66 69 71 72 72 67 63 59 58 60 60 68 71 72
20 21 19 18 17 16 15 16 16 15 14 13 12 13 13 16 22 25 30 35 39 44 47 50 52 52 48 49 54 59 61 60 63 64 65 58 58 57 58 59 60 70 76 75
21 17 13 12 14 12 11 10 11 11 9 7 6 5 7 8 8 13 20 27 32 35 39 46 49 52 46 43 49 53 54 56 55 58 52 51 53 53 59 59 65 69 75 78
25 23 22 17 18 23 19 21 19 17 14 9 9 8 3 2 4 9 17 21 26 30 36 42 49 44 49 43 42 41 47 50 51 48 48 51 52 54 61 65 67 70 75 77
36 35 33 31 30 33 34 30 26 21 16 14 13 10 8 4 4 11 16 22 26 30 35 38 45 43 43 46 41 42 45 47 44 45 51 53 54 57 65 74 77 81 79 81
47 48 47 49 46 43 43 41 32 27 24 21 16 14 11 8 2 9 15 17 25 30 34 37 41 43 40 48 44 42 43 45 51 56 59 59 61 65 66 81 83 84 89 91
53 54 54 54 55 57 57 55 51 43 33 29 26 24 23 16 13 2 9 12 22 32 34 37 40 43 43 45 49 46 49 49 52 54 62 62 65 66 72 80 92 94 96 98
52 52 52 52 51 50 50 49 49 51 50 43 36 30 25 22 16 10 6 4 14 23 24 25 34 37 36 40 48 48 51 50 51 52 57 63 65 68 76 85 94 100 102 108
46 47 47 46 45 47 47 47 47 46 49 49 47 45 37 27 19 16 9 7 6 10 24 22 28 31 32 41 44 45 51 55 55 58 60 63 68 74 77 90 100 105 110 115
39 40 39 39 39 39 39 40 40 41 41 44 43 43 42 39 31 22 14 10 10 12 15 26 33 30 36 34 38 43 50 52 55 59 60 64 70 76 85 88 98 105 113 121
31 31 30 31 31 31 32 31 31 31 32 32 33 32 31 30 28 25 20 17 14 15 16 13 18 33 40 39 44 46 50 48 53 58 64 65 70 76 81 90 97 108 118 124
23 23 23 23 23 22 23 23 23 23 22 22 21 20 18 19 19 18 15 13 8 7 9 9 12 19 24 34 44 52 54 55 59 64 68 73 77 83 90 98 103 111 119 123
19 19 20 20 19 19 18 17 16 15 14 13 14 13 10 9 10 10 9 7 6 8 8 7 6 7 13 19 26 32 42 53 61 62 64 70 74 83 89 101 113 121 125 128
16 16 16 16 16 17 18 18 16 17 17 15 11 8 6 4 3 4 2 3 5 7 11 12 16 20 24 26 31 33 37 38 41 49 61 68 72 82 90 97 105 110 116 125
14 13 14 16 15 16 16 17 18 20 20 19 18 15 14 12 11 12 13 14 12 15 18 20 21 20 25 27 30 34 39 45 51 57 63 72 81 85 90 94 95 95 104 94
19 17 16 16 16 18 19 18 19 18 19 20 21 22 21 22 21 21 22 22 24 25 26 27 27 32 33 34 39 43 38 43 49 53 60 64 73 76 81 83 81 84 84 84
27 27 25 23 22 20 19 21 20 21 20 18 18 19 21 23 24 27 29 29 31 33 34 35 35 33 35 35 34 37 41 48 55 56 67 71 78 82 89 87 86 82 77 72
23 28 30 30 30 29 25 22 22 22 20 22 20 20 21 22 25 28 29 29 29 29 29 31 32 32 33 34 37 42 48 56 62 65 73 78 85 87 91 91 87 79 68 63
23 29 33 33 30 36 35 33 29 26 27 27 25 25 25 25 24 23 23 25 26 26 29 31 34 36 37 41 45 50 55 63 70 73 78 83 88 90 92 87 87 82 61 62